[[{"header":{"parameterUnit":"m.s-1","parameterCategory":1,"la1":31.0,"la2":29.5877,"lo1":-88.7671,"lo2":-86.6584,"dy":0.0162,"dx":0.0185,"nx":115,"ny":88,"refTime":"2024-04-20T12:00:00:Z","depth":0,"parameterNumber":2,"parameterNumberName":"U-component_of_WINDS"},"data":[0.0,0.0,0.0,0.0,0.0,0.0,0.0,0.0,0.0,0.0,0.0,0.0,0.0,0.0,0.0,0.0,0.0,0.0,0.0,0.0,0.0,0.0,0.0,0.0,0.0,0.0,0.0,0.0,0.0,0.0,0.0,0.0,0.0,0.0,0.0,0.0,0.0,0.0,0.0,0.0,0.0,0.0,0.0,0.0,0.0,0.0,0.0,0.0,0.0,0.0,0.0,0.0,0.0,0.0,0.0,0.0,0.0,0.0,0.0,0.0,0.0,0.0,0.0,0.0,0.0,0.0,0.0,0.0,0.0,0.0,0.0,0.0,0.0,0.0,0.0,0.0,0.0,0.0,0.0,0.0,0.0,0.0,0.0,0.0,0.0,0.0,0.0,0.0,0.0,0.0,0.0,0.0,0.0,0.0,0.0,0.0,0.0,0.0,0.0,0.0,0.0,0.0,0.0,0.0,0.0,0.0,0.0,0.0,0.0,0.0,0.0,0.0,0.0,0.0,0.0,0.0,0.0,0.0,0.0,0.0,0.0,0.0,0.0,0.0,0.0,0.0,0.0,0.0,0.0,0.0,0.0,0.0,0.0,0.0,0.0,0.0,0.0,0.0,0.0,0.0,0.0,0.0,0.0,0.0,0.0,0.0,0.0,0.0,0.0,0.0,0.0,0.0,0.0,0.0,0.0,0.0,0.0,0.0,0.0,0.0,0.0,0.0,0.0,0.0,0.0,0.0,0.0,0.0,0.0,0.0,0.0,0.0,0.0,0.0,0.0,0.0,0.0,0.0,0.0,0.0,0.0,0.0,0.0,0.0,0.0,0.0,0.0,0.0,0.0,0.0,0.0,0.0,0.0,0.0,0.0,0.0,0.0,0.0,0.0,0.0,0.0,0.0,0.0,0.0,0.0,0.0,0.0,0.0,0.0,0.0,0.0,0.0,0.0,0.0,0.0,0.0,0.0,0.0,0.0,0.0,0.0,0.0,0.0,0.0,0.0,0.0,0.0,0.0,0.0,0.0,0.0,0.0,0.0,0.0,0.0,0.0,0.0,0.0,0.0,0.0,0.0,0.0,0.0,0.0,0.0,0.0,0.0,0.0,0.0,0.0,0.0,0.0,0.0,0.0,0.0,0.0,0.0,0.0,0.0,0.0,0.0,0.0,0.0,0.0,0.0,0.0,0.0,0.0,0.0,0.0,0.0,0.0,0.0,0.0,0.0,0.0,0.0,0.0,0.0,0.0,0.0,0.0,0.0,0.0,0.0,0.0,0.0,0.0,0.0,0.0,0.0,0.0,0.0,0.0,0.0,0.0,0.0,0.0,0.0,0.0,0.0,0.0,0.0,0.0,0.0,0.0,0.0,0.0,0.0,0.0,0.0,0.0,0.0,0.0,0.0,0.0,0.0,0.0,0.0,0.0,0.0,0.0,0.0,0.0,0.0,0.0,0.0,0.0,0.0,0.0,0.0,0.0,0.0,0.0,0.0,0.0,0.0,0.0,0.0,0.0,0.0,0.0,0.0,0.0,0.0,0.0,0.0,0.0,0.0,0.0,0.0,0.0,0.0,0.0,0.0,0.0,0.0,0.0,0.0,0.0,0.0,0.0,0.0,0.0,0.0,0.0,0.0,0.0,0.0,0.0,0.0,0.0,0.0,0.0,0.0,0.0,0.0,0.0,0.0,0.0,0.0,0.0,0.0,0.0,0.0,0.0,0.0,0.0,0.0,0.0,0.0,0.0,0.0,0.0,0.0,0.0,0.0,0.0,0.0,0.0,0.0,0.0,0.0,0.0,0.0,0.0,0.0,0.0,0.0,0.0,0.0,0.0,0.0,0.0,0.0,0.0,0.0,0.0,0.0,0.0,0.0,0.0,0.0,0.0,0.0,0.0,0.0,0.0,0.0,0.0,0.0,0.0,0.0,0.0,0.0,0.0,0.0,0.0,0.0,0.0,0.0,0.0,0.0,0.0,0.0,0.0,0.0,0.0,0.0,0.0,0.0,0.0,0.0,0.0,0.0,0.0,0.0,0.0,0.0,0.0,0.0,0.0,0.0,0.0,0.0,0.0,0.0,0.0,0.0,0.0,0.0,0.0,0.0,0.0,0.0,0.0,0.0,0.0,0.0,0.0,0.0,0.0,0.0,0.0,0.0,0.0,0.0,0.0,0.0,0.0,0.0,0.0,0.0,0.0,0.0,0.0,0.0,0.0,0.0,0.0,0.0,0.0,0.0,0.0,0.0,0.0,0.0,0.0,0.0,0.0,0.0,0.0,0.0,0.0,0.0,0.0,0.0,0.0,0.0,0.0,0.0,0.0,0.0,0.0,0.0,0.0,0.0,0.0,0.0,0.0,0.0,0.0,0.0,0.0,0.0,0.0,0.0,0.0,0.0,0.0,0.0,0.0,0.0,0.0,0.0,0.0,0.0,0.0,0.0,0.0,0.0,0.0,0.0,0.0,0.0,0.0,0.0,0.0,0.0,0.0,0.0,0.0,0.0,0.0,0.0,0.0,0.0,0.0,0.0,0.0,0.0,0.0,0.0,0.0,0.0,0.0,0.0,0.0,0.0,0.0,0.0,0.0,0.0,0.0,0.0,0.0,0.0,0.0,0.0,0.0,0.0,0.0,0.0,0.0,0.0,0.0,0.0,0.0,0.0,0.0,0.0,0.0,0.0,0.0,0.0,0.0,0.0,0.0,0.0,0.0,0.0,0.0,0.0,0.0,0.0,0.0,0.0,0.0,0.0,0.0,0.0,0.0,0.0,0.0,0.0,0.0,0.0,0.0,0.0,0.0,0.0,0.0,0.0,0.0,0.0,0.0,0.0,0.0,0.0,0.0,0.0,0.0,0.0,0.0,0.0,0.0,0.0,0.0,0.0,0.0,0.0,0.0,0.0,0.0,0.0,0.0,0.0,0.0,0.0,0.0,0.0,0.0,0.0,0.0,0.0,0.0,0.0,0.0,0.0,0.0,0.0,0.0,0.0,0.0,0.0,0.0,0.0,0.0,0.0,0.0,0.0,0.0,0.0,0.0,0.0,0.0,0.0,0.0,0.0,0.0,0.0,0.0,0.0,0.0,0.0,0.0,0.0,0.0,0.0,0.0,0.0,0.0,0.0,0.0,0.0,0.0,0.0,0.0,0.0,0.0,0.0,0.0,0.0,0.0,0.0,0.0,0.0,0.0,0.0,0.0,0.0,0.0,0.0,0.0,0.0,0.0,0.0,0.0,0.0,0.0,0.0,0.0,0.0,0.0,0.0,0.0,0.0,0.0,0.0,0.0,0.0,0.0,0.0,0.0,0.0,0.0,0.0,0.0,0.0,0.0,0.0,0.0,0.0,0.0,0.0,0.0,0.0,0.0,0.0,0.0,0.0,0.0,0.0,0.0,0.0,0.0,0.0,0.0,0.0,0.0,0.0,0.0,0.0,0.0,0.0,0.0,0.0,0.0,0.0,0.0,0.0,0.0,0.0,0.0,0.0,0.0,0.0,0.0,0.0,0.0,0.0,0.0,0.0,0.0,0.0,0.0,0.0,0.0,0.0,0.0,0.0,0.0,0.0,0.0,0.0,0.0,0.0,0.0,0.0,0.0,0.0,0.0,0.0,0.0,0.0,0.0,0.0,0.0,0.0,0.0,0.0,0.0,0.0,0.0,0.0,0.0,0.0,0.0,0.0,0.0,0.0,0.0,0.0,0.0,0.0,0.0,0.0,0.0,0.0,0.0,0.0,0.0,0.0,0.0,0.0,0.0,0.0,0.0,0.0,0.0,0.0,0.0,0.0,0.0,0.0,0.0,0.0,0.0,0.0,0.0,0.0,0.0,0.0,0.0,0.0,0.0,0.0,0.0,0.0,0.0,0.0,0.0,0.0,0.0,0.0,0.0,0.0,0.0,0.0,0.0,0.0,0.0,0.0,0.0,0.0,0.0,0.0,0.0,0.0,0.0,0.0,0.0,0.0,0.0,0.0,0.0,0.0,0.0,0.0,0.0,0.0,0.0,0.0,0.0,0.0,0.0,0.0,0.0,0.0,0.0,0.0,0.0,0.0,0.0,0.0,0.0,0.0,0.0,0.0,0.0,0.0,0.0,0.0,0.0,0.0,0.0,0.0,0.0,0.0,0.0,0.0,0.0,0.0,0.0,0.0,0.0,0.0,0.0,0.0,0.0,0.0,0.0,0.0,0.0,0.0,0.0,0.0,0.0,0.0,0.0,0.0,0.0,0.0,0.0,0.0,0.0,0.0,0.0,0.0,0.0,0.0,0.0,0.0,0.0,0.0,0.0,-1.9447,0.0,0.0,0.0,0.0,0.0,0.0,0.0,0.0,0.0,0.0,0.0,0.0,0.0,0.0,0.0,0.0,0.0,0.0,0.0,0.0,0.0,0.0,0.0,0.0,0.0,0.0,0.0,0.0,0.0,0.0,0.0,0.0,0.0,0.0,0.0,0.0,0.0,0.0,0.0,0.0,0.0,0.0,0.0,0.0,0.0,0.0,0.0,0.0,0.0,0.0,0.0,0.0,0.0,0.0,0.0,0.0,0.0,0.0,0.0,0.0,0.0,0.0,0.0,0.0,0.0,0.0,0.0,0.0,0.0,0.0,0.0,0.0,0.0,0.0,0.0,0.0,0.0,0.0,0.0,0.0,0.0,0.0,0.0,0.0,0.0,0.0,0.0,0.0,0.0,0.0,0.0,0.0,0.0,0.0,0.0,0.0,0.0,0.0,0.0,0.0,0.0,0.0,0.0,0.0,0.0,0.0,0.0,0.0,0.0,0.0,-2.7848,-2.8529,-2.8281,-2.7369,-2.5773,0.0,0.0,0.0,0.0,0.0,0.0,0.0,0.0,0.0,0.0,0.0,0.0,0.0,0.0,0.0,0.0,0.0,0.0,0.0,0.0,0.0,0.0,0.0,0.0,0.0,0.0,0.0,0.0,0.0,0.0,0.0,0.0,0.0,0.0,0.0,0.0,0.0,0.0,0.0,0.0,0.0,0.0,0.0,0.0,0.0,0.0,0.0,0.0,0.0,0.0,0.0,0.0,0.0,0.0,0.0,0.0,0.0,0.0,0.0,0.0,0.0,0.0,0.0,0.0,0.0,0.0,0.0,0.0,0.0,0.0,0.0,0.0,0.0,0.0,0.0,0.0,0.0,0.0,0.0,0.0,0.0,0.0,0.0,0.0,0.0,0.0,0.0,0.0,0.0,0.0,0.0,0.0,0.0,0.0,0.0,0.0,0.0,0.0,0.0,0.0,0.0,0.0,0.0,0.0,0.0,0.0,0.0,0.0,0.0,0.0,0.0,0.0,-3.2943,-3.2146,-2.9859,0.0,0.0,0.0,0.0,0.0,0.0,0.0,0.0,0.0,0.0,0.0,0.0,0.0,0.0,0.0,0.0,0.0,0.0,0.0,0.0,0.0,0.0,0.0,0.0,0.0,0.0,0.0,0.0,0.0,0.0,0.0,0.0,0.0,0.0,0.0,0.0,0.0,0.0,0.0,0.0,0.0,0.0,0.0,0.0,0.0,0.0,0.0,0.0,0.0,0.0,0.0,0.0,0.0,0.0,0.0,0.0,0.0,0.0,0.0,0.0,0.0,0.0,0.0,0.0,0.0,0.0,0.0,0.0,0.0,0.0,0.0,0.0,0.0,0.0,0.0,0.0,0.0,0.0,0.0,0.0,0.0,0.0,0.0,0.0,0.0,0.0,0.0,0.0,0.0,0.0,0.0,0.0,0.0,0.0,0.0,0.0,0.0,0.0,0.0,0.0,0.0,0.0,0.0,0.0,0.0,0.0,0.0,0.0,0.0,0.0,-3.3191,-3.2847,-3.3548,0.0,-3.0443,0.0,0.0,0.0,0.0,0.0,0.0,0.0,0.0,0.0,0.0,0.0,0.0,0.0,0.0,0.0,0.0,0.0,0.0,0.0,0.0,0.0,0.0,0.0,0.0,0.0,0.0,0.0,0.0,0.0,0.0,0.0,0.0,0.0,0.0,0.0,0.0,0.0,0.0,0.0,0.0,0.0,0.0,0.0,0.0,0.0,0.0,0.0,0.0,0.0,0.0,0.0,0.0,0.0,0.0,0.0,0.0,0.0,0.0,0.0,0.0,0.0,0.0,0.0,0.0,0.0,0.0,0.0,0.0,0.0,0.0,0.0,0.0,0.0,0.0,0.0,0.0,0.0,0.0,0.0,0.0,0.0,0.0,0.0,0.0,0.0,0.0,0.0,0.0,0.0,0.0,0.0,0.0,0.0,0.0,0.0,0.0,0.0,0.0,0.0,0.0,0.0,0.0,0.0,0.0,0.0,0.0,0.0,0.0,0.0,0.0,-3.3681,-3.441,-3.4531,-3.3496,0.0,0.0,0.0,0.0,0.0,0.0,0.0,0.0,0.0,0.0,0.0,0.0,0.0,0.0,0.0,0.0,0.0,0.0,0.0,0.0,0.0,0.0,0.0,0.0,0.0,0.0,0.0,0.0,0.0,0.0,0.0,0.0,0.0,0.0,0.0,0.0,0.0,0.0,0.0,0.0,0.0,0.0,0.0,0.0,0.0,0.0,0.0,0.0,0.0,0.0,0.0,0.0,0.0,0.0,0.0,0.0,0.0,0.0,0.0,0.0,0.0,0.0,0.0,0.0,0.0,0.0,0.0,0.0,0.0,0.0,0.0,0.0,0.0,0.0,0.0,0.0,0.0,0.0,0.0,0.0,0.0,0.0,0.0,0.0,0.0,0.0,0.0,0.0,0.0,0.0,0.0,0.0,0.0,0.0,0.0,0.0,0.0,0.0,0.0,0.0,0.0,0.0,0.0,0.0,0.0,0.0,0.0,0.0,0.0,0.0,-3.3509,-3.4857,-3.6286,-3.5599,-3.426,-3.2425,0.0,0.0,0.0,0.0,0.0,0.0,0.0,0.0,0.0,0.0,0.0,0.0,0.0,0.0,0.0,0.0,0.0,0.0,0.0,0.0,0.0,0.0,0.0,0.0,0.0,0.0,0.0,0.0,0.0,0.0,0.0,0.0,0.0,0.0,0.0,0.0,0.0,0.0,0.0,0.0,0.0,0.0,0.0,0.0,0.0,0.0,0.0,0.0,0.0,0.0,0.0,0.0,0.0,0.0,0.0,0.0,0.0,0.0,0.0,0.0,0.0,0.0,0.0,0.0,0.0,0.0,0.0,0.0,0.0,0.0,0.0,0.0,0.0,0.0,0.0,0.0,0.0,0.0,0.0,0.0,0.0,0.0,0.0,0.0,0.0,0.0,0.0,0.0,0.0,0.0,0.0,0.0,0.0,0.0,0.0,0.0,0.0,0.0,0.0,0.0,0.0,0.0,0.0,0.0,0.0,0.0,0.0,0.0,-3.2939,-3.5249,-3.721,-3.8618,-3.6658,-3.5101,0.0,0.0,0.0,0.0,0.0,0.0,0.0,0.0,0.0,0.0,0.0,0.0,0.0,0.0,0.0,0.0,0.0,0.0,0.0,0.0,0.0,0.0,0.0,0.0,0.0,0.0,0.0,0.0,0.0,0.0,0.0,0.0,0.0,0.0,0.0,0.0,0.0,0.0,0.0,0.0,0.0,0.0,0.0,0.0,0.0,0.0,0.0,0.0,0.0,0.0,0.0,0.0,0.0,0.0,0.0,0.0,0.0,0.0,0.0,0.0,0.0,0.0,0.0,0.0,0.0,0.0,0.0,0.0,0.0,0.0,0.0,0.0,0.0,0.0,0.0,0.0,0.0,0.0,0.0,0.0,0.0,0.0,0.0,0.0,0.0,0.0,0.0,0.0,0.0,0.0,0.0,0.0,0.0,0.0,0.0,0.0,0.0,0.0,0.0,0.0,0.0,0.0,0.0,0.0,0.0,0.0,0.0,0.0,0.0,-3.4645,-3.7904,-3.9775,-4.0009,-3.8745,-3.6859,0.0,0.0,0.0,0.0,0.0,0.0,0.0,0.0,0.0,0.0,0.0,0.0,0.0,0.0,0.0,0.0,0.0,0.0,0.0,0.0,0.0,0.0,0.0,0.0,0.0,0.0,0.0,0.0,0.0,0.0,0.0,0.0,0.0,0.0,0.0,0.0,0.0,0.0,0.0,0.0,0.0,0.0,0.0,0.0,0.0,0.0,0.0,0.0,0.0,0.0,0.0,0.0,0.0,0.0,0.0,0.0,0.0,0.0,0.0,0.0,0.0,0.0,0.0,0.0,0.0,0.0,0.0,0.0,0.0,0.0,0.0,0.0,0.0,0.0,0.0,0.0,0.0,0.0,0.0,0.0,0.0,0.0,0.0,0.0,0.0,0.0,0.0,0.0,0.0,0.0,0.0,0.0,0.0,0.0,0.0,0.0,0.0,0.0,0.0,0.0,0.0,0.0,0.0,0.0,0.0,0.0,0.0,0.0,0.0,-3.7294,0.0,-4.1416,-4.1125,-4.0042,-3.7871,0.0,0.0,0.0,0.0,0.0,0.0,0.0,0.0,0.0,0.0,0.0,0.0,0.0,0.0,0.0,0.0,0.0,0.0,0.0,0.0,0.0,0.0,0.0,0.0,0.0,0.0,0.0,0.0,0.0,0.0,0.0,0.0,0.0,0.0,0.0,0.0,0.0,0.0,0.0,0.0,0.0,0.0,0.0,0.0,0.0,0.0,0.0,0.0,0.0,0.0,0.0,0.0,0.0,0.0,0.0,0.0,0.0,0.0,0.0,0.0,0.0,0.0,0.0,0.0,0.0,0.0,0.0,0.0,0.0,0.0,0.0,0.0,0.0,0.0,0.0,0.0,0.0,0.0,0.0,0.0,0.0,0.0,0.0,0.0,0.0,0.0,0.0,0.0,0.0,0.0,0.0,0.0,0.0,0.0,0.0,0.0,0.0,0.0,0.0,0.0,0.0,0.0,0.0,0.0,0.0,0.0,0.0,0.0,-3.7378,-4.0816,-4.1543,-4.201,-4.208,-4.0354,-3.8028,0.0,0.0,0.0,0.0,0.0,0.0,0.0,0.0,0.0,0.0,0.0,0.0,0.0,0.0,0.0,0.0,0.0,0.0,0.0,0.0,0.0,0.0,0.0,0.0,0.0,0.0,0.0,0.0,0.0,0.0,0.0,0.0,0.0,0.0,0.0,0.0,0.0,0.0,0.0,0.0,0.0,0.0,0.0,0.0,0.0,0.0,0.0,0.0,0.0,0.0,0.0,0.0,0.0,0.0,0.0,0.0,0.0,0.0,0.0,0.0,0.0,0.0,0.0,0.0,0.0,0.0,0.0,0.0,0.0,0.0,0.0,0.0,0.0,0.0,0.0,0.0,0.0,0.0,0.0,0.0,0.0,0.0,0.0,0.0,0.0,0.0,0.0,0.0,0.0,0.0,0.0,0.0,0.0,0.0,0.0,0.0,0.0,0.0,0.0,0.0,0.0,0.0,0.0,0.0,0.0,0.0,0.0,0.0,0.0,-4.2163,-4.321,-4.3767,-4.3776,-4.197,-3.9588,0.0,0.0,0.0,0.0,0.0,0.0,0.0,0.0,0.0,0.0,0.0,0.0,0.0,0.0,0.0,0.0,0.0,0.0,0.0,0.0,0.0,0.0,0.0,0.0,0.0,0.0,0.0,0.0,0.0,0.0,0.0,0.0,0.0,0.0,0.0,0.0,0.0,0.0,0.0,0.0,0.0,0.0,0.0,0.0,0.0,0.0,0.0,0.0,0.0,0.0,0.0,0.0,0.0,0.0,0.0,0.0,0.0,0.0,0.0,0.0,0.0,0.0,0.0,0.0,0.0,0.0,0.0,0.0,0.0,0.0,0.0,0.0,0.0,0.0,0.0,0.0,0.0,0.0,0.0,0.0,0.0,0.0,0.0,0.0,0.0,0.0,0.0,0.0,0.0,0.0,0.0,0.0,0.0,0.0,0.0,0.0,0.0,0.0,0.0,0.0,0.0,0.0,0.0,0.0,0.0,0.0,0.0,0.0,0.0,-4.2946,-4.4055,-4.4599,-4.4521,-4.2625,-4.0184,-3.7233,0.0,0.0,0.0,0.0,0.0,0.0,0.0,0.0,0.0,0.0,0.0,0.0,0.0,0.0,0.0,0.0,0.0,0.0,0.0,0.0,0.0,0.0,0.0,0.0,0.0,0.0,0.0,0.0,0.0,0.0,0.0,0.0,0.0,0.0,0.0,0.0,0.0,0.0,0.0,0.0,0.0,0.0,0.0,0.0,0.0,0.0,0.0,0.0,0.0,0.0,0.0,0.0,0.0,0.0,0.0,0.0,0.0,0.0,0.0,0.0,0.0,0.0,0.0,0.0,0.0,0.0,0.0,0.0,0.0,0.0,0.0,0.0,0.0,0.0,0.0,0.0,0.0,0.0,0.0,0.0,0.0,0.0,0.0,0.0,0.0,0.0,0.0,0.0,0.0,0.0,0.0,0.0,0.0,0.0,0.0,0.0,0.0,0.0,0.0,0.0,0.0,0.0,0.0,0.0,0.0,0.0,0.0,0.0,-4.3359,-4.4277,-4.469,-4.4469,-4.2536,-4.0077,0.0,0.0,0.0,0.0,0.0,0.0,0.0,0.0,0.0,0.0,0.0,0.0,0.0,0.0,0.0,0.0,0.0,0.0,0.0,0.0,0.0,0.0,0.0,0.0,0.0,0.0,0.0,0.0,0.0,0.0,0.0,0.0,0.0,0.0,0.0,0.0,0.0,0.0,0.0,0.0,0.0,0.0,0.0,0.0,0.0,0.0,0.0,0.0,0.0,0.0,0.0,0.0,0.0,0.0,0.0,0.0,0.0,0.0,0.0,0.0,0.0,0.0,0.0,0.0,0.0,0.0,0.0,0.0,0.0,0.0,0.0,0.0,0.0,0.0,0.0,0.0,0.0,0.0,0.0,0.0,0.0,0.0,0.0,0.0,0.0,0.0,0.0,0.0,0.0,0.0,0.0,0.0,0.0,0.0,0.0,0.0,0.0,0.0,0.0,0.0,0.0,0.0,0.0,0.0,0.0,0.0,0.0,0.0,0.0,-4.431,-4.5205,-4.5549,-4.5258,-4.329,-4.1122,0.0,0.0,0.0,0.0,0.0,0.0,0.0,0.0,0.0,0.0,0.0,0.0,0.0,0.0,0.0,0.0,0.0,0.0,0.0,0.0,0.0,0.0,0.0,0.0,0.0,0.0,0.0,0.0,0.0,0.0,0.0,0.0,0.0,0.0,0.0,0.0,0.0,0.0,0.0,0.0,0.0,0.0,0.0,0.0,0.0,0.0,0.0,0.0,0.0,0.0,0.0,0.0,0.0,0.0,0.0,0.0,0.0,0.0,0.0,0.0,0.0,0.0,0.0,0.0,0.0,0.0,0.0,0.0,0.0,0.0,0.0,0.0,0.0,0.0,0.0,0.0,0.0,0.0,0.0,0.0,0.0,0.0,0.0,0.0,0.0,0.0,0.0,0.0,0.0,0.0,0.0,0.0,0.0,0.0,0.0,0.0,0.0,0.0,0.0,0.0,0.0,0.0,0.0,0.0,0.0,0.0,0.0,0.0,-4.3679,-4.4725,-4.5511,-4.578,-4.5461,-4.3866,-4.1999,0.0,0.0,0.0,0.0,0.0,0.0,0.0,0.0,0.0,0.0,0.0,0.0,0.0,0.0,0.0,0.0,0.0,0.0,0.0,0.0,0.0,0.0,0.0,0.0,0.0,0.0,0.0,0.0,0.0,0.0,0.0,0.0,0.0,0.0,0.0,0.0,0.0,0.0,0.0,0.0,0.0,0.0,0.0,0.0,0.0,0.0,0.0,0.0,0.0,0.0,0.0,0.0,0.0,0.0,0.0,0.0,0.0,0.0,0.0,0.0,0.0,0.0,0.0,0.0,0.0,0.0,0.0,0.0,0.0,0.0,0.0,0.0,0.0,0.0,0.0,0.0,0.0,0.0,0.0,0.0,0.0,0.0,0.0,0.0,0.0,0.0,0.0,0.0,0.0,0.0,0.0,0.0,0.0,0.0,0.0,0.0,0.0,0.0,0.0,0.0,0.0,0.0,0.0,0.0,0.0,0.0,0.0,0.0,-4.3769,-4.4902,-4.5499,-4.5633,-4.5295,-4.4244,-4.2598,0.0,0.0,0.0,0.0,0.0,0.0,0.0,0.0,0.0,0.0,0.0,0.0,0.0,0.0,0.0,0.0,0.0,0.0,0.0,0.0,0.0,0.0,0.0,0.0,0.0,0.0,0.0,0.0,0.0,0.0,0.0,0.0,0.0,0.0,0.0,0.0,0.0,0.0,0.0,0.0,0.0,0.0,0.0,0.0,0.0,0.0,0.0,0.0,0.0,0.0,0.0,0.0,0.0,0.0,0.0,0.0,0.0,0.0,0.0,0.0,0.0,0.0,0.0,0.0,0.0,0.0,0.0,0.0,0.0,0.0,0.0,0.0,0.0,0.0,0.0,0.0,0.0,0.0,0.0,0.0,0.0,0.0,0.0,0.0,0.0,0.0,0.0,0.0,0.0,0.0,0.0,0.0,0.0,0.0,0.0,0.0,0.0,0.0,0.0,0.0,0.0,0.0,0.0,0.0,0.0,0.0,0.0,0.0,-4.4144,-4.5687,-4.5779,-4.5648,-4.5294,-4.411,-4.244,0.0,0.0,0.0,0.0,0.0,0.0,0.0,0.0,0.0,0.0,0.0,0.0,0.0,0.0,0.0,0.0,0.0,0.0,0.0,0.0,0.0,0.0,0.0,0.0,0.0,0.0,0.0,0.0,0.0,0.0,0.0,0.0,0.0,0.0,0.0,0.0,0.0,0.0,0.0,0.0,0.0,0.0,0.0,0.0,0.0,0.0,0.0,0.0,-4.1949,0.0,0.0,0.0,0.0,0.0,0.0,0.0,0.0,0.0,0.0,0.0,0.0,0.0,0.0,0.0,0.0,0.0,0.0,0.0,0.0,0.0,0.0,0.0,0.0,0.0,0.0,0.0,0.0,0.0,0.0,0.0,0.0,0.0,0.0,0.0,0.0,0.0,0.0,0.0,0.0,0.0,0.0,0.0,0.0,0.0,0.0,0.0,0.0,0.0,0.0,0.0,0.0,0.0,0.0,0.0,0.0,0.0,0.0,0.0,-4.4237,-4.5928,-4.585,-4.5576,-4.5184,-4.4328,-4.2888,0.0,0.0,0.0,0.0,0.0,0.0,0.0,0.0,0.0,0.0,0.0,0.0,0.0,0.0,0.0,0.0,0.0,0.0,0.0,0.0,0.0,0.0,0.0,0.0,0.0,0.0,0.0,0.0,0.0,0.0,0.0,0.0,0.0,0.0,0.0,0.0,0.0,0.0,0.0,0.0,0.0,0.0,0.0,0.0,0.0,0.0,0.0,0.0,0.0,0.0,0.0,0.0,0.0,0.0,0.0,0.0,0.0,0.0,0.0,0.0,0.0,0.0,0.0,0.0,0.0,0.0,0.0,0.0,0.0,0.0,0.0,0.0,0.0,0.0,0.0,0.0,0.0,0.0,0.0,0.0,0.0,0.0,0.0,0.0,0.0,0.0,0.0,0.0,0.0,0.0,0.0,0.0,0.0,0.0,0.0,0.0,0.0,0.0,0.0,0.0,0.0,0.0,0.0,0.0,0.0,0.0,0.0,-4.3348,-4.4254,-4.5903,-4.5789,-4.5477,-4.5107,-4.4637,-4.3446,-4.146,0.0,0.0,0.0,0.0,0.0,0.0,0.0,0.0,0.0,0.0,0.0,0.0,0.0,0.0,0.0,0.0,0.0,0.0,0.0,0.0,0.0,0.0,0.0,0.0,0.0,0.0,0.0,0.0,0.0,0.0,0.0,0.0,0.0,0.0,0.0,0.0,0.0,0.0,-3.9094,-4.2629,0.0,0.0,0.0,0.0,0.0,0.0,0.0,0.0,-4.6047,0.0,0.0,0.0,0.0,0.0,0.0,0.0,0.0,0.0,0.0,0.0,0.0,0.0,0.0,0.0,0.0,0.0,0.0,0.0,0.0,0.0,0.0,0.0,0.0,0.0,0.0,0.0,0.0,0.0,0.0,0.0,0.0,0.0,0.0,0.0,0.0,0.0,0.0,0.0,0.0,0.0,0.0,0.0,0.0,0.0,0.0,0.0,0.0,0.0,0.0,0.0,0.0,0.0,0.0,0.0,0.0,-4.3227,-4.3411,-4.4306,-4.594,-4.5757,-4.5442,-4.5107,-4.4599,-4.3359,-4.1388,0.0,0.0,0.0,0.0,0.0,0.0,0.0,0.0,0.0,0.0,0.0,0.0,0.0,0.0,0.0,0.0,0.0,0.0,0.0,0.0,0.0,0.0,0.0,0.0,0.0,0.0,0.0,0.0,0.0,0.0,0.0,0.0,0.0,0.0,0.0,0.0,0.0,0.0,0.0,-4.4608,-4.6431,0.0,0.0,0.0,0.0,0.0,0.0,0.0,0.0,-4.5658,0.0,0.0,0.0,0.0,0.0,0.0,0.0,0.0,0.0,0.0,0.0,0.0,0.0,0.0,0.0,0.0,0.0,0.0,0.0,0.0,0.0,0.0,0.0,0.0,0.0,0.0,0.0,0.0,0.0,0.0,0.0,0.0,0.0,0.0,0.0,0.0,0.0,0.0,0.0,0.0,0.0,0.0,0.0,0.0,0.0,0.0,0.0,0.0,0.0,0.0,0.0,0.0,0.0,0.0,0.0,-4.3155,-4.3452,-4.4282,-4.5884,-4.5671,-4.5361,-4.5,-4.4131,-4.292,0.0,0.0,0.0,0.0,0.0,0.0,0.0,0.0,0.0,0.0,0.0,0.0,0.0,0.0,0.0,0.0,0.0,0.0,0.0,0.0,0.0,0.0,0.0,0.0,0.0,0.0,0.0,0.0,0.0,0.0,0.0,0.0,0.0,0.0,0.0,0.0,0.0,0.0,0.0,0.0,-4.6718,-4.8507,-5.0004,0.0,0.0,0.0,0.0,0.0,0.0,-4.8237,-4.7525,0.0,0.0,0.0,0.0,0.0,0.0,0.0,0.0,0.0,0.0,0.0,0.0,0.0,0.0,0.0,0.0,0.0,0.0,0.0,0.0,0.0,0.0,0.0,0.0,0.0,0.0,0.0,0.0,0.0,0.0,0.0,0.0,0.0,0.0,0.0,0.0,0.0,0.0,0.0,0.0,0.0,0.0,0.0,0.0,0.0,0.0,0.0,0.0,0.0,0.0,0.0,0.0,0.0,0.0,0.0,-4.3033,-4.3398,-4.4181,-4.557,-4.5519,-4.5275,-4.4903,-4.3708,-4.247,0.0,0.0,0.0,0.0,0.0,0.0,0.0,0.0,0.0,0.0,0.0,0.0,0.0,0.0,0.0,0.0,0.0,0.0,0.0,0.0,0.0,0.0,0.0,0.0,0.0,0.0,0.0,0.0,0.0,0.0,0.0,0.0,0.0,0.0,0.0,0.0,0.0,0.0,0.0,0.0,0.0,-5.0211,-5.1717,-5.174,0.0,0.0,0.0,0.0,-5.0321,-4.9951,0.0,0.0,0.0,0.0,0.0,0.0,0.0,0.0,0.0,0.0,0.0,0.0,0.0,0.0,0.0,0.0,0.0,0.0,0.0,0.0,0.0,0.0,0.0,0.0,0.0,0.0,0.0,0.0,0.0,0.0,0.0,0.0,0.0,0.0,0.0,0.0,0.0,0.0,0.0,0.0,0.0,0.0,0.0,0.0,0.0,0.0,0.0,0.0,0.0,0.0,0.0,0.0,0.0,0.0,0.0,0.0,-4.2258,-4.3093,-4.3895,-4.4721,-4.5131,-4.5199,-4.4888,-4.3605,-4.237,0.0,0.0,0.0,0.0,0.0,0.0,0.0,0.0,0.0,0.0,0.0,0.0,0.0,0.0,0.0,0.0,0.0,0.0,0.0,0.0,0.0,0.0,0.0,0.0,0.0,0.0,0.0,0.0,0.0,0.0,0.0,0.0,0.0,0.0,0.0,0.0,0.0,0.0,0.0,0.0,0.0,-5.0132,-5.1548,-5.189,-5.1996,0.0,0.0,-5.0799,-5.0879,-5.0562,0.0,0.0,0.0,0.0,0.0,0.0,0.0,0.0,0.0,0.0,0.0,0.0,0.0,0.0,0.0,0.0,0.0,0.0,0.0,0.0,0.0,0.0,0.0,0.0,0.0,0.0,0.0,0.0,0.0,0.0,0.0,0.0,0.0,0.0,0.0,0.0,0.0,0.0,0.0,0.0,0.0,0.0,0.0,0.0,0.0,0.0,0.0,0.0,0.0,0.0,0.0,0.0,0.0,0.0,0.0,-3.9648,-4.2168,-4.3012,-4.3738,-4.4466,-4.4958,-4.4832,-4.4058,-4.2856,-4.1653,0.0,0.0,0.0,0.0,0.0,0.0,0.0,0.0,0.0,0.0,0.0,0.0,0.0,0.0,0.0,0.0,0.0,0.0,0.0,0.0,0.0,0.0,0.0,0.0,0.0,0.0,0.0,0.0,0.0,0.0,0.0,0.0,0.0,0.0,0.0,0.0,0.0,0.0,0.0,0.0,0.0,0.0,-5.195,-5.2463,0.0,0.0,0.0,-5.1602,-5.1611,0.0,0.0,0.0,0.0,0.0,0.0,0.0,0.0,0.0,0.0,0.0,0.0,0.0,0.0,0.0,0.0,0.0,0.0,0.0,0.0,0.0,0.0,0.0,0.0,0.0,0.0,0.0,0.0,0.0,0.0,0.0,0.0,0.0,0.0,0.0,0.0,0.0,0.0,0.0,0.0,0.0,0.0,0.0,0.0,0.0,0.0,0.0,0.0,0.0,0.0,0.0,0.0,0.0,0.0,0.0,0.0,0.0,-4.1896,-4.2606,-4.33,-4.3983,-4.4459,-4.4253,-4.3372,-4.2249,0.0,0.0,0.0,0.0,0.0,0.0,0.0,0.0,0.0,0.0,0.0,0.0,0.0,0.0,0.0,0.0,0.0,0.0,0.0,0.0,0.0,0.0,0.0,0.0,0.0,0.0,0.0,-3.0829,0.0,0.0,0.0,0.0,0.0,0.0,0.0,0.0,0.0,0.0,0.0,0.0,0.0,0.0,-5.1004,-5.218,-5.294,-5.3275,0.0,0.0,-5.2305,-5.2234,-5.1876,-5.1217,0.0,0.0,0.0,0.0,0.0,0.0,0.0,0.0,0.0,0.0,0.0,0.0,0.0,0.0,0.0,0.0,0.0,0.0,0.0,0.0,0.0,0.0,0.0,0.0,0.0,0.0,0.0,0.0,0.0,0.0,0.0,0.0,0.0,0.0,0.0,0.0,0.0,0.0,0.0,0.0,0.0,0.0,0.0,0.0,0.0,0.0,0.0,0.0,0.0,0.0,0.0,0.0,0.0,0.0,0.0,-4.0944,-4.166,-4.2304,-4.2893,-4.3368,-4.3473,-4.3214,-4.2098,-4.1018,0.0,0.0,0.0,0.0,0.0,0.0,0.0,0.0,0.0,0.0,0.0,0.0,0.0,0.0,0.0,0.0,0.0,0.0,0.0,0.0,0.0,0.0,0.0,0.0,0.0,0.0,0.0,0.0,0.0,0.0,0.0,0.0,0.0,0.0,0.0,0.0,0.0,0.0,0.0,0.0,0.0,-5.1263,-5.1876,-5.3036,-5.374,0.0,0.0,-5.2639,-5.2593,-5.2376,-5.1638,-4.981,0.0,0.0,0.0,0.0,0.0,0.0,0.0,0.0,0.0,0.0,0.0,0.0,0.0,0.0,0.0,0.0,0.0,0.0,0.0,0.0,0.0,0.0,0.0,0.0,0.0,0.0,0.0,0.0,0.0,0.0,0.0,0.0,0.0,0.0,0.0,0.0,0.0,0.0,0.0,0.0,0.0,0.0,0.0,0.0,0.0,0.0,0.0,0.0,0.0,0.0,0.0,0.0,0.0,-3.921,-4.076,-4.139,-4.1753,-4.1818,-4.2359,-4.2309,-4.1611,-4.1096,-4.0326,0.0,0.0,0.0,0.0,0.0,0.0,0.0,0.0,0.0,0.0,0.0,0.0,0.0,0.0,0.0,0.0,0.0,0.0,0.0,0.0,0.0,0.0,0.0,0.0,0.0,0.0,0.0,0.0,-3.4121,-3.4917,-3.6237,0.0,0.0,0.0,0.0,0.0,0.0,0.0,0.0,0.0,0.0,-5.0807,-5.1333,-5.249,0.0,0.0,-5.2714,-5.2431,-5.2426,-5.2204,-5.1473,-4.9763,-4.9389,0.0,0.0,0.0,0.0,0.0,0.0,0.0,0.0,0.0,0.0,0.0,0.0,0.0,0.0,0.0,0.0,0.0,0.0,0.0,0.0,0.0,0.0,0.0,0.0,0.0,0.0,0.0,0.0,0.0,0.0,0.0,0.0,0.0,0.0,0.0,0.0,0.0,0.0,0.0,0.0,0.0,0.0,0.0,0.0,0.0,0.0,0.0,0.0,0.0,0.0,0.0,0.0,-3.9072,-4.0609,-4.0974,-4.1141,-4.1116,-4.1468,-4.1308,-4.0606,-4.0421,-3.9878,0.0,0.0,0.0,0.0,0.0,0.0,0.0,0.0,0.0,0.0,0.0,0.0,0.0,0.0,0.0,0.0,0.0,0.0,0.0,0.0,0.0,0.0,0.0,0.0,0.0,0.0,0.0,0.0,-3.4708,-3.579,-3.7448,0.0,0.0,0.0,0.0,0.0,0.0,0.0,0.0,0.0,0.0,-5.0338,-5.0858,-5.1765,-5.2492,-5.2613,-5.2397,-5.2228,-5.2198,-5.2011,-5.1417,-5.0014,0.0,0.0,0.0,0.0,0.0,0.0,0.0,0.0,0.0,0.0,0.0,0.0,0.0,0.0,0.0,0.0,0.0,0.0,0.0,0.0,0.0,0.0,0.0,0.0,0.0,0.0,0.0,0.0,0.0,0.0,-3.8282,0.0,0.0,0.0,0.0,0.0,0.0,0.0,0.0,0.0,0.0,0.0,0.0,0.0,0.0,0.0,0.0,0.0,0.0,0.0,0.0,0.0,0.0,-3.8936,-4.0369,-4.0232,-4.0389,-4.0863,-4.0733,-4.0573,-4.0486,-4.0317,-3.9778,-3.8896,0.0,0.0,0.0,0.0,0.0,0.0,0.0,0.0,0.0,0.0,0.0,0.0,0.0,0.0,0.0,0.0,0.0,0.0,0.0,0.0,0.0,0.0,0.0,0.0,0.0,0.0,-3.5011,-3.5509,-3.655,0.0,0.0,0.0,0.0,0.0,0.0,0.0,0.0,0.0,0.0,-4.8501,-4.9987,-5.0421,-5.0962,-5.1534,-5.2196,-5.2162,-5.2036,-5.1932,-5.1907,-5.1589,0.0,0.0,0.0,0.0,0.0,0.0,0.0,0.0,0.0,0.0,0.0,0.0,0.0,0.0,0.0,0.0,0.0,0.0,0.0,0.0,0.0,0.0,0.0,0.0,0.0,0.0,0.0,-3.8391,-3.8399,0.0,0.0,0.0,0.0,0.0,0.0,0.0,0.0,0.0,0.0,0.0,-4.1029,-4.1777,0.0,0.0,0.0,0.0,0.0,0.0,0.0,0.0,0.0,0.0,0.0,0.0,-3.9199,-4.009,-3.9941,-3.9822,-3.9846,-3.9728,-3.962,-3.9565,-3.9496,-3.9011,-3.8062,0.0,0.0,0.0,0.0,0.0,0.0,0.0,0.0,0.0,0.0,0.0,0.0,0.0,0.0,0.0,0.0,0.0,0.0,0.0,0.0,0.0,0.0,0.0,0.0,0.0,-3.6139,0.0,0.0,0.0,0.0,0.0,0.0,0.0,0.0,0.0,0.0,0.0,-4.648,-4.6376,-4.82,-4.9526,-4.9434,-4.9878,-5.0487,0.0,0.0,0.0,0.0,0.0,0.0,0.0,0.0,0.0,0.0,0.0,0.0,0.0,0.0,-5.0209,-4.9005,-4.8549,-4.8209,-4.7801,0.0,0.0,0.0,0.0,0.0,0.0,0.0,0.0,0.0,0.0,0.0,0.0,0.0,0.0,-3.9966,0.0,-3.9694,0.0,0.0,0.0,0.0,0.0,0.0,0.0,0.0,-4.1591,-4.1897,-4.2134,-4.2622,-4.2824,0.0,-4.1857,-4.0616,0.0,0.0,0.0,0.0,0.0,0.0,0.0,0.0,-3.9195,-3.9851,-3.9717,-3.9489,-3.9272,-3.921,-3.9142,-3.9101,-3.9045,-3.8608,-3.7657,-3.6582,-3.5572,0.0,0.0,0.0,0.0,0.0,0.0,0.0,0.0,0.0,0.0,0.0,0.0,0.0,0.0,0.0,0.0,0.0,0.0,0.0,0.0,0.0,0.0,0.0,-3.6623,0.0,0.0,0.0,0.0,0.0,0.0,0.0,0.0,0.0,-4.4035,-4.5574,-4.658,-4.6519,-4.7882,-4.8839,-4.8775,0.0,0.0,0.0,0.0,0.0,0.0,0.0,-5.1101,-5.0584,-5.0744,-5.0744,-5.0245,-5.0566,-5.1083,-5.1619,0.0,0.0,-4.9953,-4.9437,-4.9148,-4.9002,-4.874,-4.8495,-4.8495,-4.8365,-4.8006,0.0,0.0,0.0,0.0,0.0,0.0,0.0,0.0,-4.334,-4.2836,0.0,-4.2022,0.0,0.0,0.0,0.0,0.0,-4.0662,0.0,0.0,-4.1686,-4.2029,-4.266,-4.2695,-4.2652,-4.2561,-4.1713,-4.1276,-4.121,-4.0501,0.0,0.0,0.0,0.0,0.0,0.0,-3.8964,-3.9656,-3.9502,-3.9343,-3.9215,-3.9142,-3.9101,-3.9101,-3.8979,-3.8541,-3.777,-3.6666,-3.5651,-3.4775,-3.3852,0.0,0.0,0.0,0.0,0.0,0.0,0.0,0.0,0.0,0.0,0.0,0.0,0.0,0.0,0.0,0.0,0.0,0.0,0.0,0.0,-3.573,0.0,0.0,0.0,0.0,0.0,0.0,0.0,0.0,0.0,0.0,-4.5251,-4.5902,-4.6409,-4.7003,0.0,0.0,0.0,0.0,-4.8649,-4.918,-4.9257,-4.9257,-4.9311,-4.9959,-5.0477,-5.0441,0.0,0.0,-5.1583,-5.1583,-5.1547,-5.1601,-5.1547,-5.1569,-5.1388,-5.0555,-4.9968,-4.9924,-4.9292,-4.8661,-4.8583,-4.8487,-4.7988,-4.3569,0.0,0.0,0.0,0.0,-4.303,-4.3166,-4.3393,-4.3393,-4.3245,-4.2917,-4.2342,0.0,0.0,0.0,0.0,0.0,0.0,-4.1535,-4.1694,-4.2211,-4.2526,-4.2705,-4.2601,-4.2547,-4.2487,-4.1646,-4.1203,-4.1132,-4.0312,-3.9853,-3.9716,0.0,0.0,0.0,0.0,-3.9306,-3.9408,-3.9311,-3.9224,-3.9129,-3.9115,-3.9101,-3.9101,-3.8946,-3.8799,-3.8559,-3.7551,-3.658,-3.5669,-3.4737,0.0,0.0,0.0,0.0,0.0,0.0,0.0,0.0,0.0,0.0,0.0,0.0,0.0,0.0,0.0,0.0,0.0,0.0,0.0,-3.7494,-3.7615,-3.8035,0.0,0.0,0.0,0.0,0.0,0.0,0.0,0.0,0.0,-4.5581,-4.5933,-4.6268,0.0,0.0,-4.7832,-4.7669,-4.7661,-4.786,-4.8436,-4.8514,0.0,0.0,-4.9471,-4.9632,-4.9632,-4.9852,-4.9995,-4.9971,-4.9995,-4.9995,-4.9989,-4.9995,-4.9971,-4.9993,-5.0599,-5.0943,-5.0918,-5.0585,-5.0356,-5.0321,-4.9625,-4.8709,-4.4776,-4.4292,-4.3627,-4.3556,-4.386,-4.386,-4.4053,-4.437,-4.4357,-4.4137,-4.375,-4.3239,-4.2793,-4.2418,-4.1849,0.0,0.0,0.0,-4.1862,-4.2077,-4.2144,-4.234,-4.2593,-4.2514,-4.2469,-4.242,-4.1567,-4.1143,-4.1082,-4.0132,-3.9717,-3.9804,0.0,0.0,-3.9587,-3.9452,-3.9337,-3.9277,-3.9197,-3.9142,-3.9101,-3.9101,-3.9101,-3.9101,-3.896,-3.891,-3.8892,-3.793,-3.6988,-3.6102,-3.5198,-3.4298,0.0,0.0,0.0,0.0,0.0,0.0,0.0,0.0,0.0,0.0,0.0,-3.4151,-3.4704,0.0,0.0,0.0,-3.6108,-3.7085,-3.8335,-3.83,0.0,0.0,0.0,0.0,0.0,0.0,0.0,-4.3053,-4.3385,-4.4026,-4.5132,-4.5315,-4.5809,-4.7057,-4.7575,-4.7717,-4.7407,0.0,-4.7415,-4.7755,-4.7757,-4.7854,-4.8336,-4.8675,-4.8978,-4.924,-4.9281,-4.9287,-4.9275,-4.9281,-4.9287,-4.9299,-4.9293,-4.9293,-4.9293,-5.0065,-5.0588,-5.0444,-5.0301,-5.0171,-5.0145,-4.9495,-4.8686,-4.5807,-4.5652,-4.4136,-4.3982,-4.469,-4.469,-4.5104,-4.578,-4.5725,-4.5259,-4.4484,-4.4291,-4.3712,-4.2887,-4.2832,0.0,-4.159,-4.1578,-4.1992,-4.266,-4.1719,-4.1702,-4.24,-4.2246,-4.2192,-4.2192,-4.1389,-4.0976,-4.0927,-3.9976,-3.9483,-3.9489,-3.9489,-3.9452,-3.9395,-3.9245,-3.9197,-3.9197,-3.9129,-3.9101,-3.9101,-3.9101,-3.9101,-3.9101,-3.8979,-3.8888,-3.8781,-3.7908,-3.7011,-3.6156,-3.529,-3.4451,-3.3688,0.0,0.0,0.0,0.0,0.0,0.0,0.0,0.0,0.0,0.0,0.0,0.0,0.0,0.0,0.0,-3.6739,0.0,-3.8234,-3.8227,0.0,0.0,0.0,-4.1246,-4.2645,-4.2838,-4.3048,-4.3457,0.0,0.0,-4.4233,-4.4305,-4.5122,-4.7391,-4.7635,-4.7548,-4.7403,-4.7331,-4.7276,-4.7214,-4.7066,-4.6998,-4.7158,-4.7681,-4.8306,-4.8871,-4.9139,-4.9031,-4.9014,-4.9026,-4.9085,-4.9014,-4.9097,-4.9061,-4.9097,-4.9061,-4.9091,-4.8952,-4.8891,-4.8778,-4.8806,-4.8495,-4.798,-4.5807,-4.578,-4.5381,-4.5316,-4.551,-4.551,-4.5631,-4.5745,-4.51,-4.465,-4.4338,-4.3011,-4.1915,-4.1025,-4.0973,-4.0821,-4.0659,-4.1236,-4.1629,-4.18,-4.151,-4.1487,-4.1609,-4.0865,-4.0487,-4.0487,-4.0223,-4.0072,-4.0026,-3.9669,-3.9483,-3.9438,-3.9317,-3.9245,-3.9232,-3.917,-3.9129,-3.9129,-3.9115,-3.9101,-3.9101,-3.9101,-3.9101,-3.9101,-3.9021,-3.8687,-3.8076,-3.7792,-3.6975,-3.5593,-3.5216,-3.466,-3.3852,-3.378,0.0,0.0,0.0,0.0,0.0,0.0,0.0,0.0,0.0,-3.5522,-3.5533,0.0,-3.6761,0.0,-3.7442,-3.8203,-3.9025,-3.9016,0.0,0.0,-4.1007,-4.1716,-4.2628,-4.3235,-4.3548,-4.3495,-4.3375,-4.3543,-4.4214,-4.421,-4.4587,-4.5747,-4.6434,-4.6657,-4.6356,-4.6906,-4.7232,-4.707,-4.7007,-4.6998,-4.6998,-4.714,-4.7354,-4.7515,-4.7556,-4.7538,-4.7551,-4.7538,-4.7538,-4.7533,-4.7551,-4.7533,-4.7586,-4.7551,-4.7568,-4.7576,-4.8198,-4.8859,-4.8841,-4.8123,-4.7378,-4.5807,-4.5807,-4.5807,-4.558,-4.5218,-4.5251,-4.5237,-4.515,-4.4279,-4.3886,-4.3742,-4.2697,-4.1747,-4.0948,-4.1255,-4.1189,-4.0883,-4.1304,-4.1466,-4.1437,-4.1044,-4.0822,-4.0771,-4.0203,-3.9914,-3.9889,-3.9792,-3.9735,-3.9689,-3.9552,-3.9426,-3.9405,-3.9229,-3.917,-3.9197,-3.911,-3.9101,-3.9101,-3.9101,-3.9101,-3.9101,-3.9101,-3.9101,-3.9101,-3.8683,-3.8252,-3.7808,-3.7387,-3.6583,-3.5409,-3.5232,-3.4832,-3.4041,-3.3939,-3.3921,0.0,0.0,0.0,0.0,0.0,0.0,0.0,0.0,0.0,0.0,0.0,-3.7623,-3.7935,-3.8344,-3.8784,-3.9237,-3.9183,-3.9491,-4.0365,-4.1126,-4.1834,-4.2538,-4.3238,-4.3601,-4.3393,-4.3233,-4.3269,-4.363,-4.359,-4.3733,-4.4145,-4.4887,-4.5441,-4.5588,-4.595,-4.6255,-4.6503,-4.6507,-4.6605,-4.6926,-4.6998,-4.6998,-4.6998,-4.6998,-4.6998,-4.6998,-4.6998,-4.6998,-4.6998,-4.6998,-4.6998,-4.6998,-4.6998,-4.6998,-4.7082,-4.7471,-4.7835,-4.7864,-4.7259,-4.672,-4.5807,-4.5787,-4.5664,-4.5179,-4.4494,-4.4322,-4.4295,-4.4267,-4.34,-4.2915,-4.2731,-4.2573,-4.2059,-4.1418,-4.2125,-4.2068,-4.1361,-4.1342,-4.1313,-4.1206,-4.052,-4.0147,-4.0036,-4.0007,-3.9984,-3.9911,-3.977,-3.9701,-3.9708,-3.9508,-3.9362,-3.9255,-3.9048,-3.8951,-3.8899,-3.8858,-3.8868,-3.898,-3.898,-3.891,-3.8817,-3.891,-3.8897,-3.8767,-3.816,-3.7711,-3.7507,-3.6767,-3.6033,-3.5303,-3.5201,-3.4831,-3.4148,-3.4061,-3.4049,0.0,-3.4124,0.0,0.0,0.0,0.0,0.0,0.0,0.0,0.0,-3.7312,-3.8505,-3.9141,-3.9183,-3.917,-3.9101,-3.9101,-3.9435,-4.0275,-4.0941,-4.1591,-4.2239,-4.2938,-4.3263,-4.3068,-4.3069,-4.3049,-4.2956,-4.29,-4.288,-4.2947,-4.3449,-4.4059,-4.4653,-4.4851,-4.5136,-4.5688,-4.5708,-4.5891,-4.6569,-4.6801,-4.6837,-4.6944,-4.6998,-4.6998,-4.6998,-4.6998,-4.6998,-4.6998,-4.6998,-4.6998,-4.6998,-4.6998,-4.6998,-4.6998,-4.689,-4.6761,-4.6714,-4.648,-4.6172,-4.5807,-4.5722,-4.5037,-4.4655,-4.4378,-4.2997,-4.2775,-4.3308,-4.2491,-4.167,-4.092,-4.0812,-4.0662,-4.0549,-4.0702,-4.0692,-4.0511,-4.054,-4.053,-4.0502,-4.0311,-4.0186,-4.0166,-4.0057,-3.9986,-3.9975,-3.9856,-3.9758,-3.9708,-3.9557,-3.9096,-3.8358,-3.832,-3.7945,-3.7292,0.0,0.0,0.0,-3.8223,-3.7899,-3.7298,-3.7809,-3.7819,-3.7188,-3.762,0.0,-3.6005,-3.5769,-3.5305,-3.4488,-3.4433,0.0,0.0,0.0,0.0,0.0,0.0,0.0,0.0,0.0,0.0,0.0,-3.5033,-3.5839,-3.6559,-3.8016,-3.8961,-3.9096,-3.9115,-3.9115,-3.9101,-3.9101,-3.9407,-4.0133,-4.0359,-4.0692,-4.1383,-4.2095,-4.2457,-4.2248,-4.2705,-4.3049,-4.2883,-4.2861,-4.2804,-4.2802,-4.2791,-4.2833,-4.3012,-4.4029,-4.4643,-4.4403,-4.4634,-4.5142,-4.5909,-4.6016,-4.6248,-4.6783,-4.6998,-4.6944,-4.6944,-4.6962,-4.6998,-4.6998,-4.6998,-4.6998,-4.6998,-4.6998,-4.6998,-4.6998,-4.6865,-4.6749,-4.6613,-4.6374,-4.6147,-4.5541,0.0,-4.4694,-4.4008,0.0,-4.2236,-4.1825,-4.1785,-4.1378,-4.0899,-4.0353,-4.0308,-4.031,-4.032,-4.032,-4.032,-4.032,-4.032,-4.032,-4.0301,-4.0263,-4.0015,-3.9548,-3.945,-3.9172,-3.8781,-3.8628,-3.855,-3.8494,-3.8378,-3.8064,-3.7573,-3.7517,-3.7306,-3.6926,-3.6968,-3.7155,-3.7511,-3.7429,-3.7199,-3.6845,-3.7115,-3.7113,-3.6718,0.0,0.0,0.0,0.0,0.0,0.0,0.0,0.0,0.0,0.0,0.0,-3.4216,-3.4216,-3.4216,-3.4216,-3.4216,-3.4216,-3.4216,-3.5008,-3.6024,-3.724,-3.8069,-3.8674,-3.9045,-3.9101,-3.9101,-3.9101,-3.9101,-3.9259,-3.9581,-3.9926,-4.0277,-4.0614,-4.1152,-4.1512,-4.1446,-4.1632,-4.1923,-4.2266,-4.2264,-4.2349,-4.2634,-4.2586,-4.2465,-4.2479,-4.3048,-4.3525,-4.3708,-4.4224,-4.4728,-4.5106,-4.5209,-4.532,-4.5731,-4.5838,-4.5998,-4.6355,-4.6391,-4.6516,-4.6873,-4.6998,-4.6998,-4.6998,-4.6998,-4.6998,-4.698,-4.687,-4.6778,-4.6684,-4.6475,-4.6267,-4.5167,-4.4474,-4.4158,-4.3226,-4.1879,-4.1678,-4.1149,-4.0458,0.0,0.0,0.0,-4.031,-4.032,-4.032,-4.032,-4.032,-4.032,-4.032,-4.0205,-4.0072,-4.0072,-3.9576,-3.8689,-3.8623,-3.8223,-3.7518,-3.7399,-3.7335,-3.7289,-3.7186,-3.7012,-3.681,-3.6762,-3.6676,-3.6585,-3.6644,-3.6602,-3.6483,-3.6559,-3.6522,-3.6391,-3.6459,-3.642,-3.6259,-3.577,-3.5436,-3.5268,-3.4569,-3.4123,-3.3993,-3.3993,-3.3918,-3.3788,-3.39,-3.3974,-3.3974,-3.4123,-3.4216,-3.4216,-3.4216,-3.4216,-3.4216,-3.486,-3.59,-3.7387,-3.7596,-3.8024,-3.8804,-3.8897,-3.8934,-3.9069,-3.9087,-3.9064,-3.8983,-3.9497,-3.9844,-3.981,-4.0264,-4.0607,-4.0573,-4.058,-4.0745,-4.1379,-4.1432,-4.1627,-4.2196,-4.2259,-4.232,-4.231,-4.2379,-4.2647,-4.3179,-4.3658,-4.4157,-4.4371,-4.4407,-4.4442,-4.4692,-4.4674,-4.4835,-4.537,-4.5588,-4.5856,-4.6337,-4.6569,-4.6516,-4.6551,-4.6462,-4.6569,-4.6569,-4.6501,-4.6392,-4.6363,-4.6218,-4.609,-4.4657,-4.4378,-4.2893,-4.2116,-4.184,-4.103,-4.0564,-4.0325,-4.0334,-4.0325,-4.0326,-4.031,-4.032,-4.032,-4.032,-4.032,-4.032,-4.032,-3.9909,0.0,-3.9174,-3.8725,-3.7875,-3.786,-3.7747,-3.7585,-3.7518,-3.7409,-3.7305,-3.726,-3.6832,-3.6073,-3.6025,-3.5668,-3.5004,-3.494,-3.4918,-3.4858,-3.5511,-3.5476,-3.4766,-3.5349,-3.5306,-3.4624,-3.5175,-3.5138,-3.4401,-3.4253,-3.3863,-3.3194,-3.3169,-3.2871,-3.2221,-3.2804,-3.3169,-3.3206,-3.3819,-3.4216,-3.4197,-3.4216,-3.4216,-3.4216,-3.4309,-3.4804,-3.5751,-3.6476,-3.7188,-3.7981,-3.8061,-3.8331,-3.891,-3.8952,-3.8872,-3.8811,-3.8895,-3.8958,-3.8903,-3.9408,-3.9768,-3.9768,-4.0199,-4.0474,-4.0619,-4.0637,-4.0816,-4.1369,-4.1595,-4.1694,-4.2167,-4.2308,-4.2343,-4.245,-4.2537,-4.2894,-4.3483,-4.3679,-4.3854,-4.4496,-4.4478,-4.4478,-4.471,-4.4785,-4.4856,-4.4942,-4.5106,-4.5049,-4.5053,-4.4963,-4.5066,-4.5102,-4.5098,-4.5022,-4.5023,-4.4936,-4.5193,-4.4039,-4.3095,-4.2249,-4.1627,-4.1158,-4.0644,-4.0389,-4.0319,-4.0319,-4.0319,-4.0319,-4.031,-4.032,-4.032,-4.032,-4.032,-4.0263,-3.9804,-3.9384,-3.8992,-3.8495,-3.7846,-3.7092,-3.7029,-3.6737,-3.6263,-3.6169,-3.6093,-3.6003,-3.5991,-3.5732,-3.5281,-3.5249,-3.5029,-3.4631,-3.4612,-3.4572,-3.4569,-3.4843,-3.4785,-3.4377,-3.4617,-3.4599,-3.4216,-3.4197,-3.3986,-3.3566,-3.3131,-3.2723,-3.237,-3.237,-3.2184,-3.1831,-3.2165,-3.2351,-3.237,-3.3101,-3.3547,-3.3547,-3.3956,-3.4216,-3.4216,-3.4216,-3.4364,-3.4748,-3.5566,-3.637,-3.7151,-3.7198,-3.732,-3.7674,-3.7664,-3.7613,-3.7518,-3.7886,-3.8118,-3.8135,-3.8617,-3.901,-3.9031,-3.919,-3.9489,-3.991,-3.9877,-4.0095,-4.0724,-4.108,-4.1594,-4.2264,-4.2333,-4.2313,-4.229,-4.2308,-4.2448,-4.2804,-4.284,-4.3001,-4.3322,-4.3358,-4.3536,-4.3857,-4.4007,-4.4153,-4.45,-4.4567,-4.4585,-4.4549,-4.4585,-4.4585,-4.4585,-4.4585,-4.4581,-4.4573,-4.4543,-4.4778,-4.322,-4.1988,-4.1735,-4.1222,-4.055,-4.0438,-4.0373,-4.031,-4.032,-4.0186,-4.0034,-4.0205,-4.032,-4.0301,-4.011,-4.0005,-3.9881,-3.9107,-3.861,-3.8362,-3.7731,-3.6997,-3.6254,-3.6143,-3.5765,-3.5132,-3.5039,-3.4964,-3.4917,-3.4916,-3.4868,-3.4798,-3.4758,-3.4687,-3.4604,-3.4435,-3.4331,-3.4298,-3.4012,-3.3933,-3.4037,-3.3966,-3.3856,-3.3615,-3.3076,-3.2741,-3.2704,-3.2128,-3.1719,-3.1552,-3.1533,-3.144,-3.1292,-3.144,-3.1533,-3.1608,-3.2277,-3.273,-3.2767,-3.3305,-3.3733,-3.393,-3.3949,-3.4011,-3.4216,-3.4822,-3.5566,-3.6259,-3.6374,-3.6396,-3.6591,-3.6574,-3.645,-3.6435,-3.6932,-3.7429,-3.7573,-3.7995,-3.8407,-3.8502,-3.8512,-3.8674,-3.9084,-3.9147,-3.9352,-4.0023,-4.0705,-4.1402,-4.206,-4.2275,-4.2342,-4.2331,-4.2308,-4.2325,-4.2308,-4.2343,-4.2361,-4.2308,-4.2361,-4.2662,-4.3093,-4.3248,-4.3394,-4.3843,-4.4,-4.3946,-4.4014,-4.4014,-4.3961,-4.3929,-4.3893,-4.3961,-4.3925,-4.3943,-4.4238,-4.2163,-4.1879,-4.1164,-4.0668,-4.0441,-4.0413,-4.0363,-4.031,-4.0301,-3.9823,-3.9279,-3.9938,-4.0244,-4.0205,-3.9451,-3.9126,-3.9049,-3.8228,-3.7464,-3.6825,-3.6653,-3.6139,-3.5399,-3.5333,-3.5214,-3.502,-3.5001,-3.4974,-3.4917,-3.4917,-3.4849,-3.4798,-3.4788,-3.472,-3.4593,-3.3972,-3.3552,-3.3409,-3.2625,-3.2574,-3.3265,-3.3171,-3.2778,-3.2035,-3.1961,-3.1924,-3.1905,-3.1831,-3.1459,-3.0772,-3.0716,-3.0381,-2.9805,-3.0307,-3.0716,-3.0734,-3.1459,-3.1924,-3.1924,-3.1961,-3.2388,-3.302,-3.3101,-3.3429,-3.4067,-3.4253,-3.468,-3.5386,-3.5558,-3.5771,-3.6412,-3.6362,-3.6242,-3.6177,-3.6412,-3.6799,-3.7427,-3.7661,-3.7967,-3.8685,-3.8527,-3.853,-3.8643,-3.8587,-3.8696,-3.9409,-3.9986,-4.0632,-4.1385,-4.2001,-4.2269,-4.2344,-4.2351,-4.2254,-4.2272,-4.2308,-4.2308,-4.2308,-4.2308,-4.2415,-4.2522,-4.2522,-4.2504,-4.2861,-4.2697,-4.2733,-4.27,-4.2519,-4.2608,-4.284,-4.2787,-4.259,-4.2519,-4.2644,-4.3105,-4.1749,-4.1266,-4.0862,-4.0614,-4.0473,-4.0468,-4.0386,-4.0261,-3.9802,-3.9363,-3.8992,-3.8858,-3.8763,-3.8725,-3.8381,-3.8228,-3.8171,-3.7368,-3.6797,-3.6408,-3.597,-3.5505,-3.5185,-3.5138,-3.5084,-3.5001,-3.5001,-3.4974,-3.4917,-3.4908,-3.4869,-3.4792,-3.4366,-3.4054,-3.3947,-3.3154,-3.269,-3.2649,-3.2258,-3.1952,-3.1779,-3.211,-3.2147,-3.1794,-3.1329,-3.1087,-3.1032,-3.0641,-3.0214,-2.9917,-2.988,-2.976,-2.9415,-2.9712,-2.988,-2.9935,-3.0641,-3.131,-3.1764,-3.1801,-3.1942,-3.2277,-3.2295,-3.2648,-3.338,-3.3473,-3.3826,-3.455,-3.4686,-3.4759,-3.5008,-3.5024,-3.4979,-3.4976,-3.5398,-3.5914,-3.6218,-3.673,-3.7336,-3.8099,-3.8157,-3.8276,-3.8539,-3.8496,-3.8667,-3.9222,-3.9642,-4.0041,-4.0726,-4.1376,-4.1538,-4.1205,-4.0856,-4.1189,-4.1953,-4.2308,-4.2272,-4.229,-4.2308,-4.2308,-4.2216,-4.2308,-4.2308,-4.2272,-4.22,-4.22,-4.2379,-4.2308,-4.2308,-4.2236,-4.229,-4.2308,-4.2308,-4.2308,-4.2662,-4.1388,-4.0821,-4.0724,-4.0655,-4.0561,-4.0504,-4.0298,-3.9949,-3.9357,-3.8833,-3.8254,-3.7634,-3.7233,-3.7063,-3.7254,-3.7368,-3.7254,-3.6511,-3.6122,-3.6001,-3.5439,-3.5138,-3.5075,-3.5075,-3.5029,-3.4992,-3.4983,-3.4945,-3.4908,-3.4908,-3.4813,-3.4519,-3.3942,-3.3479,-3.3129,-3.2335,-3.1883,-3.1844,-3.1587,-3.1085,-3.0567,-3.0884,-3.1136,-3.1087,-3.0586,-3.027,-3.0251,-2.9704,-2.9388,-2.9388,-2.9388,-2.9388,-2.9388,-2.9388,-2.9388,-2.9436,-2.9938,-3.0533,-3.1131,-3.1147,-3.1258,-3.1463,-3.147,-3.1812,-3.2518,-3.2871,-3.3243,-3.377,-3.4018,-3.4136,-3.4036,-3.4011,-3.3985,-3.4041,-3.4648,-3.5069,-3.5448,-3.6024,-3.6688,-3.7482,-3.7806,-3.8104,-3.863,-3.864,-3.867,-3.9062,-3.9176,-3.9435,-4.0022,-4.051,-4.0637,-4.0292,-3.9984,-4.0321,-4.1439,-4.1598,-4.1703,-4.1627,-4.152,-4.1484,-4.1645,-4.1627,-4.1609,-4.1181,-4.152,-4.1573,-4.1324,-4.1466,-4.1663,-4.1645,-4.1645,-4.1665,-4.1431,-4.1591,-4.1591,-4.0826,-4.0782,-4.0744,-4.0694,-4.0661,-4.053,-4.0004,-3.9295,-3.909,-3.8148,-3.6851,-3.6594,-3.611,-3.5477,-3.6241,-3.6538,-3.6443,-3.5683,-3.5342,-3.5306,-3.5176,-3.5075,-3.5011,-3.5001,-3.4974,-3.4927,-3.4908,-3.4889,-3.486,-3.487,-3.451,-3.379,-3.3591,-3.3213,-3.2439,-3.1581,-3.112,-3.0979,-3.0283,-2.9747,-2.9672,-2.9602,-2.9634,-2.9659,-2.95,-2.9508,-2.9489,-2.9444,-2.9388,-2.9388,-2.9388,-2.9388,-2.9388,-2.9388,-2.9399,-2.9411,-2.944,-2.9526,-2.9649,-2.9665,-2.9942,-3.0565,-3.0682,-3.0995,-3.1775,-3.2388,-3.2834,-3.3057,-3.364,-3.3975,-3.4019,-3.4024,-3.4074,-3.4161,-3.4234,-3.4728,-3.5535,-3.5642,-3.6128,-3.6907,-3.7529,-3.8061,-3.8722,-3.878,-3.8606,-3.8619,-3.854,-3.8751,-3.9325,-3.9581,-3.9766,-4.0095,-4.0185,-4.0292,-4.0248,-4.0566,-4.0402,-4.0399,-4.0556,-4.0199,-4.0037,-4.0002,-4.0075,-4.0146,-4.0342,-4.0342,-4.0091,-4.0073,-4.0235,-4.0307,-4.0415,-4.0397,-4.0665,-4.0217,-4.0308,-4.0888,-4.0859,-4.0837,-4.0781,-4.0655,-4.0114,-3.9641,-3.9185,-3.8028,-3.7214,-3.6546,-3.6002,-3.5557,-3.5288,-3.5594,-3.5712,-3.5649,-3.5318,-3.517,-3.5138,-3.5101,-3.5029,-3.4936,-3.4936,-3.4927,-3.4917,-3.4936,-3.4688,-3.4213,-3.4195,-3.3759,-3.2934,-3.2339,-3.1915,-3.1519,-3.0765,-3.0306,-3.0196,-2.9832,-2.9655,-2.9607,-2.954,-2.9501,-2.9461,-2.9419,-2.9388,-2.9388,-2.9388,-2.9388,-2.9388,-2.9388,-2.9388,-2.9388,-2.939,-2.9412,-2.9463,-2.9463,-2.9472,-2.9492,-2.9424,-2.9514,-2.9812,-2.9855,-3.0177,-3.0883,-3.131,-3.1663,-3.2165,-3.2462,-3.2834,-3.3452,-3.3893,-3.4197,-3.4203,-3.4351,-3.4566,-3.4907,-3.5082,-3.5434,-3.6167,-3.6851,-3.7482,-3.803,-3.8135,-3.8225,-3.8548,-3.8593,-3.8624,-3.8729,-3.8789,-3.8902,-3.9034,-3.9108,-3.904,-3.8867,-3.9677,-4.0101,-4.0043,-4.0042,-3.9951,-3.9826,-3.9722,-3.9775,-3.9685,-3.9648,-3.9646,-3.9611,-3.9611,-3.9611,-3.9683,-3.9719,-3.9669,-4.0045,-3.9706,-3.9816,-4.0975,-4.0921,-4.0908,-4.0668,-4.0277,-3.9745,-3.9103,-3.8464,-3.7273,-3.6563,-3.6166,-3.5599,-3.5327,-3.5316,-3.5308,-3.5266,-3.5245,-3.522,-3.517,-3.5138,-3.5084,-3.5039,-3.4945,-3.4917,-3.4917,-3.4879,-3.4679,-3.4305,-3.3828,-3.3536,-3.2968,-3.2093,-3.1501,-3.1078,-3.0766,-3.0194,-2.9878,-2.9825,-2.9771,-2.9709,-2.9683,-2.9645,-2.9608,-2.956,-2.9519,-2.9429,-2.9399,-2.938,-2.939,-2.938,-2.938,-2.9409,-2.9411,-2.9423,-2.9463,-2.9512,-2.954,-2.955,-2.9541,-2.9492,-2.9443,-2.9433,-2.9429,-2.9659,-3.0188,-3.0466,-3.0883,-3.131,-3.173,-3.2125,-3.2635,-3.322,-3.3773,-3.4202,-3.4476,-3.4634,-3.4687,-3.4758,-3.5172,-3.5794,-3.6241,-3.6796,-3.7389,-3.7409,-3.7581,-3.7985,-3.7985,-3.7934,-3.8073,-3.8063,-3.8177,-3.8344,-3.8476,-3.8465,-3.8405,-3.894,-3.9102,-3.9065,-3.9169,-3.9257,-3.9347,-3.9313,-3.9277,-3.9223,-3.9186,-3.9184,-3.9182,-3.9201,-3.9238,-3.9256,-3.9081,-3.8922,-3.9156,-3.9282,-3.9301,-4.0964,-4.0928,-4.0921,-4.033,-3.9611,-3.9354,-3.8456,-3.7183,-3.6813,-3.6279,-3.5673,-3.5427,-3.5379,-3.5342,-3.5335,-3.5293,-3.5285,-3.5231,-3.5217,-3.5172,-3.5075,-3.5011,-3.5001,-3.4945,-3.4974,-3.4954,-3.4219,-3.3845,-3.3674,-3.2942,-3.2154,-3.1434,-3.1238,-3.0804,-3.0045,-2.9981,-2.9912,-2.9895,-2.9834,-2.9789,-2.978,-2.9736,-2.9691,-2.9683,-2.9636,-2.954,-2.9404,-2.9394,-2.9402,-2.9402,-2.9412,-2.9433,-2.9501,-2.9492,-2.9531,-2.9579,-2.9598,-2.9626,-2.9664,-2.9636,-2.955,-2.9492,-2.9433,-2.9419,-2.9622,-3.0113,-3.0522,-3.0652,-3.1195,-3.1786,-3.1856,-3.2075,-3.2814,-3.4245,-3.4443,-3.4547,-3.479,-3.4838,-3.507,-3.5647,-3.5814,-3.611,-3.6646,-3.6762,-3.6761,-3.6828,-3.6785,-3.6879,-3.7319,-3.7366,-3.7619,-3.8029,-3.8029,-3.7812,-3.7994,-3.8171,-3.7984,-3.7864,-3.799,-3.8114,-3.8221,-3.8257,-3.831,-3.8274,-3.831,-3.829,-3.8345,-3.8345,-3.8258,-3.824,-3.8133,-3.8277,-3.8456,-3.86,-3.8402,-4.0645,-4.0128,-4.0096,-3.9557,-3.8733,-3.8113,-3.7427,-3.6845,-3.6269,-3.5828,-3.5605,-3.5534,-3.5515,-3.546,-3.5446,-3.5391,-3.5304,-3.5269,-3.5259,-3.52,-3.5147,-3.5101,-3.5075,-3.5057,-3.5056,-3.4985,-3.4279,-3.356,-3.2958,-3.2179,-3.1325,-3.0632,-3.0495,-3.0346,-3.0099,-3.0049,-2.9999,-2.9918,-2.9883,-2.9849,-2.9789,-2.979,-2.9763,-2.9764,-2.9746,-2.971,-2.9626,-2.9513,-2.9472,-2.9472,-2.9472,-2.9492,-2.955,-2.9578,-2.9607,-2.9655,-2.9664,-2.9683,-2.9692,-2.9626,-2.9588,-2.954,-2.9463,-2.9384,-2.9382,-2.964,-2.9808,-2.9791,-3.0044,-3.0402,-3.1038,-3.1248,-3.2011,-3.3588,-3.386,-3.4176,-3.4707,-3.4877,-3.4961,-3.507,-3.5042,-3.5319,-3.5857,-3.5975,-3.6099,-3.648,-3.6476,-3.6546,-3.6665,-3.6695,-3.6703,-3.6941,-3.6945,-3.7119,-3.7158,-3.7319,-3.7354,-3.7408,-3.7523,-3.7667,-3.7667,-3.7631,-3.7595,-3.7595,-3.7595,-3.7613,-3.7613,-3.7667,-3.7703,-3.7774,-3.7989,-3.8041,-3.8021,-3.8021,-3.8056,-3.9754,-3.9273,-3.9248,-3.8739,-3.7914,-3.7305,-3.6857,-3.6459,-3.5905,-3.5615,-3.5614,-3.5596,-3.5579,-3.5534,-3.5547,-3.5468,-3.5372,-3.5369,-3.5339,-3.525,-3.5208,-3.5164,-3.5138,-3.5138,-3.4946,-3.459,-3.3835,-3.3039,-3.2241,-3.1386,-3.0691,-3.0226,-3.0113,-3.0091,-3.0091,-3.0083,-3.0046,-2.998,-2.9964,-2.9967,-2.9926,-2.991,-2.9893,-2.9841,-2.9851,-2.9787,-2.9745,-2.9654,-2.9608,-2.957,-2.9598,-2.9617,-2.9664,-2.9673,-2.9673,-2.9692,-2.9701,-2.9692,-2.9683,-2.9655,-2.9617,-2.9598,-2.9521,-2.9453,-2.9443,-2.9431,-2.9441,-2.9433,-2.9538,-2.9765,-3.0321,-3.0509,-3.1167,-3.24,-3.2911,-3.3516,-3.4283,-3.4746,-3.4878,-3.4875,-3.4785,-3.4916,-3.5147,-3.5224,-3.5304,-3.5721,-3.5731,-3.5861,-3.5878,-3.5975,-3.6025,-3.6166,-3.6454,-3.6465,-3.6241,-3.6422,-3.6674,-3.6979,-3.7285,-3.7523,-3.7685,-3.7631,-3.7595,-3.7595,-3.7595,-3.7631,-3.7649,-3.7739,-3.781,-3.7863,-3.7932,-3.8037,-3.8106,-3.8141,-3.8158,-3.8486,-3.8423,-3.8439,-3.7881,-3.7078,-3.6965,-3.6537,-3.5899,-3.5747,-3.5664,-3.5632,-3.561,-3.5601,-3.561,-3.5604,-3.5547,-3.552,-3.5467,-3.5417,-3.5327,-3.5248,-3.5198,-3.5189,-3.5189,-3.4789,-3.3996,-3.3199,-3.2355,-3.1618,-3.0758,-3.0211,-3.0204,-3.013,-3.0116,-3.0123,-3.0106,-3.0106,-3.0091,-3.011,-3.0083,-3.0068,-3.0087,-3.003,-2.9913,-2.9905,-2.9891,-2.9851,-2.9815,-2.978,-2.9726,-2.9763,-2.9799,-2.9799,-2.9789,-2.9771,-2.9717,-2.9708,-2.9709,-2.971,-2.9692,-2.9673,-2.9617,-2.9598,-2.9588,-2.9521,-2.9482,-2.9492,-2.9531,-2.9598,-2.9701,-2.9804,-2.9903,-3.037,-3.0982,-3.1975,-3.2835,-3.3534,-3.4235,-3.4453,-3.466,-3.4753,-3.4739,-3.4669,-3.46,-3.4528,-3.4491,-3.4463,-3.474,-3.5027,-3.5274,-3.5487,-3.5611,-3.5656,-3.5559,-3.5296,-3.5696,-3.5951,-3.6139,-3.6517,-3.6891,-3.7273,-3.7274,-3.7523,-3.7541,-3.7613,-3.7649,-3.7703,-3.7793,-3.7881,-3.795,-3.8036,-3.8175,-3.8209,-3.8209,-3.8209,-3.8124,-3.7553,-3.7533,-3.7034,-3.6265,-3.6206,-3.6067,-3.5815,-3.5767,-3.5756,-3.5732,-3.5689,-3.5664,-3.5676,-3.5635,-3.5601,-3.5553,-3.5521,-3.5493,-3.5432,-3.5339,-3.525,-3.5201,-3.5174,-3.4754,-3.3895,-3.3043,-3.226,-3.14,-3.0586,-3.0218,-3.0219,-3.0187,-3.0194,-3.024,-3.0233,-3.0219,-3.018,-3.0192,-3.0145,-3.0121,-3.0094,-3.0091,-3.0053,-3.0046,-3.003,-3.0014,-3.0014,-2.9959,-2.9841,-2.9857,-2.9866,-2.9895,-2.9887,-2.9851,-2.9789,-2.9771,-2.9763,-2.9764,-2.9718,-2.97,-2.9682,-2.9636,-2.9616,-2.9588,-2.9522,-2.9541,-2.9626,-2.9701,-2.9738,-2.9818,-2.9878,-3.0063,-3.0335,-3.1414,-3.237,-3.2701,-3.2909,-3.3251,-3.3791,-3.3875,-3.406,-3.4346,-3.4434,-3.4334,-3.4295,-3.4257,-3.421,-3.4505,-3.4528,-3.4739,-3.4457,-3.4398,-3.4394,-3.4481,-3.4916,-3.5206,-3.5294,-3.5587,-3.591,-3.6264,-3.6486,-3.697,-3.7398,-3.7595,-3.7685,-3.7739,-3.781,-3.7898,-3.8019,-3.8105,-3.8209,-3.8209,-3.8209,-3.8225,-3.7145,-3.6648,-3.6651,-3.6351,-3.5914,-3.5879,-3.5885,-3.5852,-3.5834,-3.5834,-3.5795,-3.5758,-3.5732,-3.5737,-3.5703,-3.5648,-3.5599,-3.5565,-3.5522,-3.5467,-3.5357,-3.5297,-3.5165,-3.4939,-3.4254,-3.3433,-3.2611,-3.1732,-3.0949,-3.0409,-3.0232,-3.0207,-3.0227,-3.0266,-3.0305,-3.0305,-3.0299,-3.0266,-3.0247,-3.0215,-3.018,-3.0192,-3.0159,-3.0157,-3.0142,-3.0142,-3.0128,-3.0135,-3.0091,-2.9999,-2.9983,-2.9991,-2.9986,-2.9951,-2.9918,-2.9849,-2.9851,-2.9834,-2.9808,-2.9763,-2.9754,-2.9745,-2.9701,-2.9682,-2.9692,-2.9655,-2.9673,-2.9719,-2.9765,-2.9818,-2.9878,-2.9912,-2.991,-3.004,-3.0768,-3.1507,-3.1848,-3.2246,-3.2578,-3.2939,-3.3072,-3.3128,-3.3682,-3.3808,-3.3908,-3.3964,-3.41,-3.4104,-3.4167,-3.4061,-3.4011,-3.3934,-3.3887,-3.4026,-3.4059,-3.4371,-3.4517,-3.4621,-3.4692,-3.4992,-3.5465,-3.582,-3.6521,-3.7113,-3.7471,-3.7739,-3.7828,-3.788,-3.7985,-3.8088,-3.8174,-3.8224,-3.8224,-3.8257,-3.8274,-3.5951,-3.5912,-3.5931,-3.5904,-3.5914,-3.5919,-3.5917,-3.5911,-3.5898,-3.5862,-3.5829,-3.5799,-3.5795,-3.5797,-3.5788,-3.5728,-3.5648,-3.5602,-3.543,-3.5303,-3.5144,-3.5028,-3.4711,-3.4351,-3.3563,-3.2649,-3.1809,-3.1109,-3.0524,-3.0239,-3.0214,-3.0241,-3.0286,-3.0305,-3.033,-3.0329,-3.0323,-3.0317,-3.0336,-3.0329,-3.0292,-3.028,-3.0267,-3.0227,-3.0226,-3.0219,-3.0206,-3.0194,-3.0192,-3.0125,-3.0125,-3.0136,-3.011,-3.0046,-2.9999,-2.994,-2.9918,-2.9885,-2.9842,-2.9825,-2.9816,-2.9798,-2.9789,-2.9798,-2.9799,-2.9799,-2.9808,-2.9834,-2.9868,-2.9912,-2.992,-2.9926,-2.9907,-2.9934,-3.001,-3.0332,-3.0958,-3.1715,-3.217,-3.2284,-3.2222,-3.2194,-3.2439,-3.2745,-3.3144,-3.3153,-3.3459,-3.375,-3.3852,-3.3969,-3.3944,-3.3917,-3.3902,-3.39,-3.3892,-3.3889,-3.3913,-3.3936,-3.3919,-3.4195,-3.4873,-3.5411,-3.6137,-3.6714,-3.7093,-3.754,-3.7932,-3.8019,-3.8088,-3.8156,-3.8241,-3.8272,-3.8305,-3.832,-3.8336,-3.5983,-3.5972,-3.5986,-3.5962,-3.5977,-3.5977,-3.5975,-3.5973,-3.5941,-3.5894,-3.5889,-3.5869,-3.5872,-3.5859,-3.5776,-3.5778,-3.5654,-3.5494,-3.5253,-3.4564,-3.4475,-3.4019,-3.3703,-3.3671,-3.3142,-3.2056,-3.1568,-3.0983,-3.0392,-3.0221,-3.0221,-3.0279,-3.0349,-3.0359,-3.0383,-3.0431,-3.0472,-3.0466,-3.0453,-3.0417,-3.0389,-3.0377,-3.0334,-3.0292,-3.028,-3.0279,-3.0292,-3.0273,-3.0266,-3.0272,-3.0246,-3.0245,-3.0178,-3.0169,-3.0132,-3.0053,-2.9988,-2.9975,-2.9959,-2.991,-2.9887,-2.9895,-2.9876,-2.9868,-2.9887,-2.9893,-2.9907,-2.994,-2.9956,-2.9975,-2.9975,-2.9924,-2.9924,-2.9924,-2.9924,-3.0,-3.02,-3.0389,-3.0844,-3.1271,-3.1417,-3.1571,-3.2138,-3.2173,-3.2362,-3.2379,-3.2743,-3.3215,-3.3547,-3.3852,-3.3883,-3.3876,-3.3961,-3.3959,-3.3921,-3.3881,-3.3829,-3.3762,-3.3657,-3.3632,-3.4301,-3.4744,-3.5403,-3.6097,-3.6767,-3.7266,-3.7907,-3.8052,-3.8104,-3.8188,-3.8289,-3.8354,-3.8419,-3.8417,-3.8446,-3.6018,-3.6012,-3.6009,-3.6004,-3.6019,-3.6019,-3.6019,-3.5997,-3.5974,-3.5949,-3.5964,-3.5951,-3.5936,-3.5839,-3.5438,-3.5219,-3.5057,-3.4657,-3.422,-3.379,-3.3655,-3.3176,-3.2555,-3.266,-3.2352,-3.1511,-3.1051,-3.061,-3.0336,-3.0273,-3.0311,-3.0348,-3.0408,-3.0436,-3.0439,-3.0485,-3.049,-3.0485,-3.0495,-3.0465,-3.0463,-3.0458,-3.0428,-3.04,-3.0377,-3.0385,-3.039,-3.0404,-3.0385,-3.0404,-3.0385,-3.0336,-3.0246,-3.0213,-3.019,-3.0135,-3.0076,-3.0046,-3.0022,-3.0007,-2.9983,-2.9994,-2.9994,-2.9994,-2.9983,-2.998,-3.0007,-3.003,-3.0057,-3.0057,-3.0038,-3.0022,-2.9988,-3.0007,-3.0007,-2.998,-2.9972,-2.994,-3.0029,-3.0476,-3.0564,-3.0719,-3.1005,-3.1403,-3.1561,-3.1575,-3.22,-3.2716,-3.3615,-3.3855,-3.3827,-3.3858,-3.4,-3.4036,-3.3998,-3.3959,-3.3921,-3.3855,-3.3775,-3.3726,-3.3986,-3.4284,-3.4555,-3.5503,-3.6557,-3.7347,-3.7899,-3.8026,-3.8114,-3.8249,-3.8348,-3.8465,-3.851,-3.8499,-3.8548,-3.601,-3.6006,-3.6006,-3.6003,-3.6017,-3.6017,-3.6017,-3.6017,-3.6017,-3.5994,-3.5949,-3.5887,-3.5637,-3.5517,-3.4767,-3.4386,-3.4155,-3.3716,-3.3339,-3.2962,-3.2885,-3.2357,-3.1795,-3.1598,-3.1561,-3.1348,-3.0772,-3.0369,-3.0349,-3.038,-3.039,-3.0408,-3.0458,-3.0479,-3.049,-3.051,-3.0515,-3.0525,-3.0515,-3.0515,-3.0519,-3.0514,-3.0509,-3.0479,-3.0469,-3.0469,-3.0463,-3.0469,-3.0479,-3.0485,-3.0485,-3.045,-3.0362,-3.0279,-3.0225,-3.0199,-3.0135,-3.0098,-3.0083,-3.0076,-3.0087,-3.0083,-3.011,-3.0117,-3.0098,-3.0113,-3.014,-3.0132,-3.0132,-3.011,-3.0091,-3.0068,-3.0068,-3.0095,-3.0095,-3.0095,-3.0068,-2.9988,-3.0013,-2.9997,-3.0167,-3.0322,-3.0364,-3.0605,-3.0686,-3.0894,-3.1561,-3.2214,-3.3055,-3.3724,-3.3655,-3.3812,-3.3956,-3.4136,-3.4136,-3.4111,-3.4061,-3.3985,-3.3921,-3.3868,-3.3834,-3.4,-3.4444,-3.5505,-3.6474,-3.7144,-3.7649,-3.781,-3.7949,-3.8211,-3.8016,-3.7726,-3.7985,-3.8449,-3.8482,-3.6016,-3.6013,-3.6013,-3.6013,-3.6012,-3.6012,-3.6012,-3.6012,-3.6012,-3.5991,-3.587,-3.5241,-3.4981,-3.4677,-3.3977,-3.3573,-3.3349,-3.3043,-3.273,-3.2241,-3.2077,-3.1652,-3.1084,-3.095,-3.084,-3.0674,-3.0461,-3.0408,-3.0389,-3.0406,-3.0453,-3.0488,-3.05,-3.0496,-3.0525,-3.0554,-3.0569,-3.0579,-3.0564,-3.0564,-3.0559,-3.0579,-3.055,-3.0515,-3.0519,-3.0509,-3.0509,-3.0504,-3.0485,-3.0485,-3.0485,-3.0493,-3.0461,-3.0404,-3.0318,-3.0246,-3.0199,-3.0164,-3.0116,-3.0106,-3.0098,-3.0113,-3.015,-3.0185,-3.0199,-3.0226,-3.0245,-3.0245,-3.0192,-3.0157,-3.0094,-3.0113,-3.011,-3.0102,-3.0098,-3.0098,-3.011,-3.0076,-3.0068,-3.0068,-3.0053,-3.0049,-3.014,-3.0184,-3.0269,-3.0466,-3.0874,-3.128,-3.1781,-3.2676,-3.3269,-3.3571,-3.3941,-3.413,-3.4269,-3.4257,-3.4221,-3.4136,-3.4074,-3.4011,-3.3972,-3.3902,-3.4453,-3.5454,-3.6042,-3.6468,-3.6936,-3.7384,-3.7357,-3.7286,-3.7048,-3.6844,-3.7256,-3.7686,-3.7804,-3.601,-3.6014,-3.6014,-3.6014,-3.6015,-3.6015,-3.6015,-3.6015,-3.5996,-3.5742,-3.5312,-3.4881,-3.4428,-3.3894,-3.3103,-3.2494,-3.2133,-3.1994,-3.1743,-3.1391,-3.1274,-3.1118,-3.0672,-3.0657,-3.0645,-3.0625,-3.0586,-3.0511,-3.0467,-3.0501,-3.0511,-3.0545,-3.0564,-3.0554,-3.0554,-3.0577,-3.0601,-3.0616,-3.0607,-3.0617,-3.0617,-3.0617,-3.0569,-3.0559,-3.0569,-3.0545,-3.054,-3.0559,-3.0545,-3.0545,-3.0545,-3.0515,-3.05,-3.0469,-3.0394,-3.0305,-3.0266,-3.0259,-3.02,-3.0199,-3.0199,-3.0194,-3.0233,-3.0266,-3.026,-3.0273,-3.0318,-3.0286,-3.0273,-3.0233,-3.0219,-3.0199,-3.0192,-3.0192,-3.0192,-3.0192,-3.0192,-3.0185,-3.0185,-3.0178,-3.0116,-3.0101,-3.0132,-3.0114,-3.003,-3.0135,-3.0324,-3.0542,-3.08,-3.1626,-3.2639,-3.3508,-3.3955,-3.4319,-3.4454,-3.4431,-3.4409,-3.4316,-3.4221,-3.4173,-3.4124,-3.4055,-3.4521,-3.5326,-3.5734,-3.5852,-3.6351,-3.6831,-3.6581,-3.6421,-3.6473,-3.6528,-3.6634,-3.6833,-3.7004,-3.5971,-3.5979,-3.598,-3.6003,-3.5987,-3.5812,-3.5714,-3.5714,-3.548,-3.5034,-3.4471,-3.4179,-3.373,-3.3063,-3.2257,-3.1466,-3.0806,-3.0872,-3.0895,-3.0901,-3.0839,-3.0745,-3.073,-3.0717,-3.0723,-3.0678,-3.0671,-3.0649,-3.057,-3.0589,-3.0613,-3.0613,-3.0625,-3.0606,-3.0602,-3.0589,-3.0604,-3.0615,-3.0621,-3.0607,-3.0617,-3.0617,-3.0617,-3.0617,-3.0602,-3.0583,-3.0602,-3.0588,-3.0612,-3.0592,-3.0592,-3.0583,-3.0535,-3.0525,-3.049,-3.0419,-3.0349,-3.0331,-3.0286,-3.0286,-3.0273,-3.0273,-3.0305,-3.0311,-3.033,-3.0343,-3.0362,-3.0324,-3.0324,-3.0318,-3.0331,-3.0331,-3.0305,-3.0305,-3.0324,-3.0324,-3.0305,-3.0299,-3.0286,-3.026,-3.0188,-3.0187,-3.0206,-3.0185,-3.013,-3.0087,-3.027,-3.0303,-3.0574,-3.1071,-3.2034,-3.3258,-3.4009,-3.449,-3.4658,-3.4607,-3.4575,-3.455,-3.445,-3.437,-3.4281,-3.4203,-3.4729,-3.5097,-3.5042,-3.5206,-3.5752,-3.6104,-3.5855,-3.5789,-3.6022,-3.5988,-3.5729,-3.5951,-3.6303,-3.5903,-3.5894,-3.5962,-3.6004,-3.583,-3.5147,-3.4835,-3.4758,-3.4135,-3.3673,-3.3507,-3.2825,-3.2477,-3.2109,-3.1423,-3.095,-3.0825,-3.0816,-3.0809,-3.0801,-3.0784,-3.0769,-3.0794,-3.0784,-3.0753,-3.0725,-3.0719,-3.0698,-3.0671,-3.0667,-3.0672,-3.068,-3.0657,-3.0669,-3.0618,-3.0633,-3.0617,-3.0604,-3.0615,-3.0601,-3.0602,-3.0602,-3.0602,-3.0607,-3.0621,-3.061,-3.0615,-3.0604,-3.0608,-3.0613,-3.0613,-3.0608,-3.0591,-3.0607,-3.0559,-3.049,-3.0425,-3.0368,-3.0337,-3.0337,-3.0324,-3.0329,-3.0342,-3.039,-3.0408,-3.0431,-3.0436,-3.04,-3.0375,-3.0383,-3.0385,-3.0379,-3.0373,-3.0373,-3.0392,-3.0392,-3.0373,-3.0398,-3.0385,-3.0371,-3.0329,-3.0299,-3.0305,-3.0286,-3.026,-3.0219,-3.0197,-3.0235,-3.0422,-3.094,-3.1857,-3.3185,-3.397,-3.4453,-3.485,-3.4802,-3.4771,-3.4759,-3.4636,-3.4539,-3.4473,-3.4397,-3.4363,-3.4603,-3.4572,-3.4674,-3.5199,-3.5351,-3.5105,-3.5075,-3.5168,-3.4878,-3.4463,-3.4928,-3.5596,-3.4402,-3.4435,-3.4462,-3.4469,-3.4437,-3.4068,-3.3912,-3.3834,-3.3567,-3.3105,-3.2685,-3.2325,-3.1866,-3.1423,-3.0976,-3.0878,-3.0857,-3.0871,-3.0846,-3.0803,-3.0792,-3.0801,-3.0794,-3.0784,-3.0774,-3.0769,-3.0769,-3.0769,-3.0747,-3.0719,-3.0695,-3.0711,-3.0707,-3.0701,-3.0653,-3.0665,-3.0673,-3.0657,-3.064,-3.0604,-3.061,-3.061,-3.0615,-3.0606,-3.0604,-3.0613,-3.0617,-3.0617,-3.0602,-3.0602,-3.0602,-3.0602,-3.0613,-3.06,-3.0586,-3.0564,-3.054,-3.0488,-3.0439,-3.0402,-3.0408,-3.04,-3.0436,-3.0466,-3.0463,-3.0485,-3.05,-3.0465,-3.046,-3.0455,-3.0439,-3.0453,-3.0447,-3.0442,-3.0466,-3.0447,-3.0447,-3.0461,-3.0466,-3.0458,-3.0463,-3.0431,-3.0402,-3.0385,-3.0355,-3.0318,-3.026,-3.0245,-3.0484,-3.0929,-3.2014,-3.3361,-3.3951,-3.4378,-3.4808,-3.5029,-3.4983,-3.4936,-3.4792,-3.4701,-3.4666,-3.4612,-3.4539,-3.4454,-3.4498,-3.464,-3.4816,-3.4773,-3.4699,-3.4481,-3.4252,-3.4257,-3.4269,-3.4398,-3.4907,-3.2574,-3.2665,-3.3102,-3.327,-3.3245,-3.3073,-3.2975,-3.2961,-3.273,-3.235,-3.1919,-3.1728,-3.1392,-3.1009,-3.0916,-3.0917,-3.0918,-3.0917,-3.0877,-3.0854,-3.083,-3.0824,-3.0799,-3.0792,-3.0788,-3.0786,-3.0781,-3.0799,-3.0771,-3.0754,-3.073,-3.0714,-3.0751,-3.0719,-3.0701,-3.0701,-3.0683,-3.0696,-3.0633,-3.0617,-3.0608,-3.0617,-3.0613,-3.0613,-3.0602,-3.0618,-3.0622,-3.063,-3.063,-3.0642,-3.0645,-3.0645,-3.0634,-3.0653,-3.0637,-3.0617,-3.061,-3.0588,-3.052,-3.0495,-3.049,-3.049,-3.0519,-3.0525,-3.054,-3.053,-3.0525,-3.0525,-3.053,-3.0525,-3.0521,-3.053,-3.053,-3.053,-3.0525,-3.0525,-3.052,-3.052,-3.052,-3.0525,-3.0525,-3.0515,-3.0495,-3.0479,-3.0466,-3.0433,-3.0373,-3.0305,-3.0548,-3.0922,-3.1716,-3.2936,-3.3804,-3.4186,-3.456,-3.4879,-3.4971,-3.511,-3.4973,-3.4889,-3.4849,-3.4749,-3.4647,-3.4583,-3.4528,-3.4589,-3.4761,-3.4524,-3.4335,-3.4316,-3.4316,-3.434,-3.4363,-3.4386,-3.4404,-3.0772,-3.0932,-3.2493,-3.3114,-3.304,-3.2395,-3.2078,-3.2033,-3.1291,-3.1045,-3.1042,-3.0916,-3.0951,-3.0823,-3.0868,-3.0892,-3.0895,-3.0916,-3.0897,-3.0879,-3.0879,-3.0857,-3.0816,-3.0792,-3.0787,-3.0801,-3.0803,-3.0799,-3.0794,-3.0812,-3.079,-3.0784,-3.0782,-3.0745,-3.0722,-3.0704,-3.0701,-3.0695,-3.0649,-3.0618,-3.061,-3.061,-3.061,-3.0633,-3.0669,-3.0688,-3.071,-3.0701,-3.0691,-3.0685,-3.0707,-3.0701,-3.0688,-3.0688,-3.0694,-3.0695,-3.0661,-3.0641,-3.0597,-3.0554,-3.0519,-3.0519,-3.0545,-3.0602,-3.0601,-3.0604,-3.0597,-3.0593,-3.0597,-3.0574,-3.0597,-3.0613,-3.0591,-3.0586,-3.0582,-3.0582,-3.0582,-3.0572,-3.0591,-3.0572,-3.0582,-3.0564,-3.0569,-3.0545,-3.05,-3.0483,-3.0444,-3.0379,-3.0522,-3.0849,-3.1296,-3.2222,-3.3353,-3.3935,-3.4215,-3.4557,-3.5109,-3.5253,-3.5132,-3.5082,-3.5058,-3.4927,-3.4791,-3.4769,-3.4728,-3.4718,-3.4658,-3.4564,-3.4476,-3.4409,-3.4397,-3.4409,-3.442,-3.4443,-3.4431,-3.0554,-3.0622,-3.1289,-3.1562,-3.1588,-3.1259,-3.1154,-3.1153,-3.0853,-3.0733,-3.0801,-3.0784,-3.0799,-3.0809,-3.0816,-3.0841,-3.0844,-3.0827,-3.0849,-3.0832,-3.0836,-3.0819,-3.0801,-3.0801,-3.08,-3.0798,-3.0798,-3.0816,-3.0852,-3.0851,-3.0825,-3.0813,-3.0796,-3.0791,-3.075,-3.0725,-3.0704,-3.0691,-3.0694,-3.066,-3.0668,-3.0668,-3.0668,-3.0668,-3.0683,-3.0704,-3.0704,-3.0758,-3.0767,-3.0756,-3.0764,-3.0762,-3.0739,-3.0739,-3.0753,-3.0739,-3.0727,-3.0691,-3.0651,-3.061,-3.0577,-3.0554,-3.0591,-3.0613,-3.0657,-3.0657,-3.0653,-3.0656,-3.0653,-3.0649,-3.0665,-3.0641,-3.0597,-3.0602,-3.0606,-3.0614,-3.0614,-3.0618,-3.0614,-3.0606,-3.0608,-3.0591,-3.0597,-3.0607,-3.0554,-3.0505,-3.0488,-3.0475,-3.06,-3.0698,-3.109,-3.168,-3.2814,-3.3673,-3.3974,-3.4634,-3.535,-3.5357,-3.5297,-3.5269,-3.5204,-3.5103,-3.4974,-3.4955,-3.4917,-3.4859,-3.4772,-3.4701,-3.4628,-3.4561,-3.4506,-3.4484,-3.4495,-3.4498,-3.4487,-3.0485,-3.0485,-3.0485,-3.052,-3.0563,-3.0572,-3.0608,-3.0672,-3.068,-3.0711,-3.0764,-3.0784,-3.08,-3.079,-3.0785,-3.0789,-3.081,-3.0791,-3.0791,-3.0794,-3.0798,-3.0784,-3.0789,-3.0793,-3.0797,-3.0798,-3.0799,-3.082,-3.0859,-3.0879,-3.0857,-3.0832,-3.0823,-3.0827,-3.078,-3.0752,-3.0714,-3.0725,-3.0694,-3.0701,-3.0707,-3.0707,-3.0733,-3.0737,-3.0727,-3.0745,-3.0739,-3.0772,-3.0779,-3.0786,-3.0793,-3.08,-3.08,-3.0802,-3.0802,-3.0774,-3.0762,-3.0747,-3.0709,-3.0662,-3.063,-3.0622,-3.063,-3.0642,-3.0676,-3.0697,-3.0688,-3.0695,-3.0691,-3.0707,-3.0707,-3.0667,-3.0637,-3.0644,-3.0644,-3.0644,-3.0656,-3.0656,-3.0645,-3.0634,-3.0637,-3.064,-3.0604,-3.061,-3.0559,-3.053,-3.05,-3.0474,-3.0516,-3.0621,-3.0761,-3.1436,-3.2341,-3.3105,-3.3786,-3.4642,-3.5406,-3.5469,-3.5422,-3.5393,-3.5335,-3.5187,-3.5122,-3.5141,-3.5089,-3.4973,-3.4917,-3.4879,-3.4791,-3.4687,-3.4645,-3.4591,-3.4591,-3.4583,-3.4572,-3.0479,-3.0485,-3.0479,-3.0504,-3.0514,-3.0491,-3.054,-3.0616,-3.0602,-3.0653,-3.0704,-3.0762,-3.0799,-3.0786,-3.0784,-3.0771,-3.0771,-3.0784,-3.0782,-3.0782,-3.0784,-3.079,-3.0801,-3.0789,-3.0795,-3.08,-3.0783,-3.0809,-3.0816,-3.0816,-3.0839,-3.0859,-3.0856,-3.0849,-3.0791,-3.08,-3.0796,-3.0786,-3.0712,-3.0706,-3.0706,-3.0722,-3.0748,-3.0778,-3.0767,-3.0779,-3.0774,-3.0784,-3.079,-3.0798,-3.0807,-3.081,-3.0812,-3.0815,-3.0815,-3.081,-3.0803,-3.0792,-3.0778,-3.0719,-3.0707,-3.0697,-3.0704,-3.0711,-3.0698,-3.071,-3.0722,-3.0728,-3.0725,-3.0703,-3.07,-3.0697,-3.0694,-3.0691,-3.0691,-3.0704,-3.0701,-3.0695,-3.0704,-3.0664,-3.0684,-3.0688,-3.0633,-3.0593,-3.0563,-3.0535,-3.0506,-3.0491,-3.051,-3.0593,-3.0714,-3.1453,-3.2303,-3.307,-3.3901,-3.4805,-3.5405,-3.5489,-3.5316,-3.5027,-3.5064,-3.5026,-3.5054,-3.5208,-3.5232,-3.5136,-3.5105,-3.5072,-3.4964,-3.485,-3.4749,-3.4697,-3.4687,-3.4666,-3.4655,-3.0402,-3.0439,-3.0439,-3.0439,-3.0444,-3.0493,-3.054,-3.0588,-3.0657,-3.0683,-3.0704,-3.0739,-3.0737,-3.0742,-3.0745,-3.0733,-3.073,-3.073,-3.0725,-3.0725,-3.0745,-3.0755,-3.0784,-3.0793,-3.08,-3.0786,-3.0792,-3.0783,-3.0795,-3.08,-3.081,-3.0836,-3.0879,-3.0856,-3.0801,-3.0799,-3.0784,-3.0802,-3.0772,-3.0762,-3.0762,-3.0757,-3.0777,-3.0791,-3.08,-3.079,-3.0803,-3.081,-3.0796,-3.0821,-3.0826,-3.0869,-3.0869,-3.0871,-3.0871,-3.0849,-3.0825,-3.0798,-3.0791,-3.0769,-3.0762,-3.0764,-3.0767,-3.0751,-3.0753,-3.0762,-3.0772,-3.076,-3.0762,-3.0743,-3.0765,-3.0772,-3.075,-3.0767,-3.0764,-3.0759,-3.0776,-3.077,-3.0761,-3.0711,-3.071,-3.068,-3.0641,-3.0626,-3.0602,-3.0597,-3.058,-3.0567,-3.0563,-3.0683,-3.0823,-3.166,-3.2488,-3.3234,-3.3993,-3.4649,-3.482,-3.4712,-3.4419,-3.4048,-3.4205,-3.4623,-3.4969,-3.5129,-3.5215,-3.5299,-3.5251,-3.5198,-3.5124,-3.5019,-3.4917,-3.48,-3.4758,-3.4747,-3.4747,-3.0317,-3.0368,-3.0368,-3.0374,-3.0367,-3.0436,-3.05,-3.0607,-3.0653,-3.0668,-3.0676,-3.0681,-3.0695,-3.0698,-3.0704,-3.0704,-3.0704,-3.0698,-3.0704,-3.0704,-3.0698,-3.0713,-3.0742,-3.077,-3.0759,-3.0767,-3.0777,-3.0769,-3.0784,-3.0794,-3.0792,-3.0828,-3.0857,-3.0859,-3.0832,-3.082,-3.0786,-3.0783,-3.0778,-3.0794,-3.0794,-3.0794,-3.0794,-3.0803,-3.0809,-3.0816,-3.0822,-3.0828,-3.0832,-3.0853,-3.0875,-3.0916,-3.0917,-3.0917,-3.0917,-3.0878,-3.0857,-3.0834,-3.0829,-3.0845,-3.083,-3.0792,-3.0795,-3.0786,-3.0786,-3.0793,-3.0782,-3.0788,-3.0792,-3.0796,-3.0796,-3.0806,-3.0788,-3.0786,-3.0806,-3.0802,-3.0795,-3.0793,-3.0791,-3.0745,-3.0688,-3.066,-3.0661,-3.0665,-3.0645,-3.0668,-3.0672,-3.0642,-3.0692,-3.0944,-3.1235,-3.2046,-3.2775,-3.3494,-3.3945,-3.4241,-3.426,-3.3968,-3.3599,-3.3191,-3.3705,-3.4191,-3.4612,-3.5051,-3.5245,-3.538,-3.5369,-3.5315,-3.5254,-3.5182,-3.5098,-3.4992,-3.4849,-3.4819,-3.4829,-3.0305,-3.0305,-3.0305,-3.0305,-3.0305,-3.0371,-3.0474,-3.0593,-3.0606,-3.0608,-3.0586,-3.0665,-3.0657,-3.0665,-3.068,-3.0687,-3.0687,-3.0688,-3.0676,-3.0703,-3.0699,-3.0694,-3.0707,-3.0717,-3.0707,-3.0716,-3.0706,-3.0737,-3.0784,-3.0786,-3.0794,-3.0798,-3.0813,-3.0839,-3.0839,-3.0853,-3.0805,-3.0821,-3.0819,-3.0817,-3.082,-3.0821,-3.0823,-3.0808,-3.0811,-3.0833,-3.0855,-3.0896,-3.0897,-3.0897,-3.0918,-3.0918,-3.0917,-3.0915,-3.0914,-3.0915,-3.0898,-3.0898,-3.0897,-3.0896,-3.0874,-3.0827,-3.0795,-3.0786,-3.0799,-3.0799,-3.0786,-3.081,-3.0815,-3.0819,-3.082,-3.08,-3.0801,-3.0801,-3.0821,-3.0816,-3.0791,-3.0799,-3.08,-3.0755,-3.0716,-3.0691,-3.0681,-3.0681,-3.0711,-3.072,-3.0727,-3.0716,-3.0882,-3.1508,-3.1893,-3.2594,-3.3262,-3.3824,-3.4102,-3.4093,-3.3586,-3.3234,-3.2871,-3.2609,-3.3166,-3.3635,-3.4037,-3.4513,-3.5193,-3.5461,-3.5457,-3.5437,-3.5374,-3.5315,-3.5262,-3.5124,-3.5001,-3.4908,-3.487,-3.0192,-3.0219,-3.0239,-3.0239,-3.0252,-3.0286,-3.0371,-3.0455,-3.0501,-3.0545,-3.053,-3.0558,-3.0567,-3.0572,-3.0557,-3.0593,-3.0621,-3.0645,-3.0629,-3.0637,-3.0669,-3.0704,-3.0695,-3.071,-3.0701,-3.0707,-3.0698,-3.0704,-3.0736,-3.0759,-3.0786,-3.0796,-3.08,-3.0813,-3.0839,-3.0859,-3.0857,-3.0872,-3.0871,-3.0871,-3.0874,-3.0874,-3.0856,-3.0819,-3.0859,-3.0879,-3.0898,-3.0918,-3.0917,-3.0917,-3.0916,-3.0915,-3.0915,-3.0914,-3.0914,-3.0914,-3.0915,-3.0916,-3.0917,-3.0898,-3.0879,-3.084,-3.0818,-3.0791,-3.0784,-3.0801,-3.0785,-3.0827,-3.0831,-3.0853,-3.0836,-3.0837,-3.0798,-3.0798,-3.0817,-3.0834,-3.0829,-3.0801,-3.0806,-3.0776,-3.0742,-3.0722,-3.0713,-3.0742,-3.0751,-3.0781,-3.0811,-3.0821,-3.1057,-3.1668,-3.2174,-3.2843,-3.3437,-3.389,-3.386,-3.3849,-3.3125,-3.2518,-3.2141,-3.1915,-3.224,-3.2729,-3.3315,-3.4037,-3.4821,-3.5298,-3.556,-3.5526,-3.549,-3.5463,-3.539,-3.5258,-3.513,-3.5043,-3.4972,-3.0023,-3.0091,-3.0072,-3.0113,-3.0169,-3.0192,-3.0266,-3.0329,-3.0411,-3.0463,-3.0469,-3.0465,-3.0456,-3.0476,-3.0476,-3.0486,-3.0496,-3.0521,-3.0535,-3.0619,-3.0636,-3.0649,-3.0665,-3.068,-3.0665,-3.0672,-3.0683,-3.0694,-3.0727,-3.0755,-3.0767,-3.0795,-3.0803,-3.0801,-3.0813,-3.0857,-3.0898,-3.0918,-3.0917,-3.0917,-3.0917,-3.0918,-3.0859,-3.0839,-3.0877,-3.0896,-3.0915,-3.0914,-3.0913,-3.0912,-3.0911,-3.089,-3.0889,-3.0866,-3.0864,-3.0863,-3.0866,-3.0848,-3.0849,-3.0871,-3.0853,-3.0834,-3.0816,-3.08,-3.0801,-3.08,-3.0818,-3.0857,-3.0878,-3.0879,-3.0859,-3.0839,-3.0819,-3.0799,-3.084,-3.0879,-3.0857,-3.0834,-3.082,-3.0794,-3.0772,-3.0772,-3.0767,-3.0777,-3.0786,-3.0795,-3.0925,-3.1113,-3.1349,-3.1829,-3.2186,-3.2618,-3.3253,-3.3791,-3.3647,-3.3268,-3.255,-3.1848,-3.1383,-3.1274,-3.1437,-3.1984,-3.2753,-3.3647,-3.4555,-3.4899,-3.515,-3.5535,-3.5618,-3.5589,-3.5534,-3.5424,-3.5319,-3.5235,-3.5144,-2.988,-2.9872,-2.9872,-2.9967,-3.0053,-3.0053,-3.0106,-3.0185,-3.0273,-3.0374,-3.0361,-3.0367,-3.0373,-3.0373,-3.0373,-3.0396,-3.0406,-3.0417,-3.0479,-3.0588,-3.0578,-3.0597,-3.0608,-3.0621,-3.0614,-3.0637,-3.0645,-3.068,-3.0688,-3.072,-3.0742,-3.0777,-3.0784,-3.0785,-3.0798,-3.0849,-3.0874,-3.0877,-3.0879,-3.0898,-3.0917,-3.0897,-3.0876,-3.0874,-3.0893,-3.0893,-3.0893,-3.0892,-3.0892,-3.0889,-3.0886,-3.0843,-3.0836,-3.0809,-3.0824,-3.0822,-3.0809,-3.0809,-3.081,-3.0812,-3.0816,-3.0798,-3.0798,-3.0801,-3.0789,-3.0798,-3.0819,-3.0839,-3.0856,-3.0855,-3.0833,-3.0832,-3.0811,-3.081,-3.0832,-3.0856,-3.0839,-3.082,-3.0811,-3.0795,-3.0799,-3.0786,-3.0782,-3.079,-3.0801,-3.0786,-3.0894,-3.1178,-3.1395,-3.1783,-3.2183,-3.2464,-3.308,-3.3423,-3.2788,-3.2397,-3.1834,-3.1236,-3.0863,-3.0764,-3.1041,-3.1612,-3.2264,-3.3041,-3.3788,-3.4302,-3.4652,-3.5045,-3.5417,-3.5667,-3.564,-3.5581,-3.5476,-3.5243,-3.5246,-2.9745,-2.9756,-2.9756,-2.979,-2.9868,-2.9868,-2.9918,-2.998,-3.0011,-3.0109,-3.0219,-3.0252,-3.0259,-3.0233,-3.0233,-3.0266,-3.0318,-3.033,-3.039,-3.0453,-3.0485,-3.0515,-3.0568,-3.0582,-3.06,-3.0602,-3.0633,-3.0633,-3.0645,-3.0676,-3.0704,-3.0724,-3.0747,-3.0778,-3.0792,-3.0831,-3.0822,-3.0828,-3.0832,-3.0874,-3.0891,-3.089,-3.0889,-3.0847,-3.0825,-3.0826,-3.0825,-3.0825,-3.0822,-3.0819,-3.0837,-3.0812,-3.0803,-3.0799,-3.0794,-3.0788,-3.0786,-3.0784,-3.078,-3.0782,-3.0786,-3.0788,-3.0788,-3.0788,-3.0799,-3.08,-3.0807,-3.0806,-3.0823,-3.082,-3.0817,-3.0813,-3.0831,-3.0813,-3.0816,-3.0823,-3.0829,-3.08,-3.0798,-3.0792,-3.0801,-3.0796,-3.0794,-3.0796,-3.0785,-3.0811,-3.0856,-3.0976,-3.0996,-3.1289,-3.1969,-3.2335,-3.2952,-3.306,-3.228,-3.1789,-3.1386,-3.1109,-3.0814,-3.0737,-3.0701,-3.1264,-3.1889,-3.2322,-3.2909,-3.3444,-3.4003,-3.4495,-3.4889,-3.519,-3.5277,-3.5067,-3.5002,-3.4818,-3.5033,-2.9608,-2.9617,-2.9598,-2.9645,-2.9719,-2.9729,-2.9765,-2.9808,-2.9816,-2.9857,-2.9983,-3.0026,-3.0057,-3.0076,-3.0083,-3.0128,-3.0204,-3.0218,-3.0279,-3.0355,-3.0396,-3.0436,-3.0479,-3.0501,-3.0506,-3.053,-3.0586,-3.0619,-3.0593,-3.0622,-3.0668,-3.0703,-3.0733,-3.0762,-3.0779,-3.0782,-3.0781,-3.0792,-3.0794,-3.0815,-3.0859,-3.0882,-3.0864,-3.0822,-3.08,-3.0799,-3.0796,-3.0796,-3.0794,-3.0785,-3.0798,-3.0808,-3.0776,-3.0769,-3.0765,-3.0757,-3.0755,-3.0755,-3.0747,-3.0745,-3.0747,-3.0769,-3.0752,-3.0752,-3.0781,-3.0793,-3.0767,-3.0786,-3.0794,-3.0812,-3.0808,-3.0804,-3.0802,-3.0804,-3.0796,-3.0807,-3.0804,-3.0797,-3.082,-3.0839,-3.0837,-3.0796,-3.0794,-3.0791,-3.0797,-3.0839,-3.0879,-3.0857,-3.0855,-3.0872,-3.1522,-3.1992,-3.244,-3.2357,-3.1586,-3.1297,-3.1202,-3.0947,-3.0764,-3.0748,-3.0755,-3.107,-3.1488,-3.1757,-3.2126,-3.2635,-3.3191,-3.3701,-3.3988,-3.4194,-3.4324,-3.439,-3.4367,-3.4298,-3.4276,-2.9472,-2.9453,-2.9453,-2.9501,-2.954,-2.9569,-2.9607,-2.9655,-2.9664,-2.9683,-2.9692,-2.9789,-2.983,-2.9874,-2.9883,-2.9975,-3.0041,-3.0057,-3.0135,-3.0233,-3.0266,-3.0299,-3.0348,-3.0383,-3.0411,-3.0444,-3.051,-3.0545,-3.0568,-3.0576,-3.0621,-3.0673,-3.0703,-3.0695,-3.0716,-3.0739,-3.076,-3.0774,-3.078,-3.0784,-3.082,-3.0855,-3.0838,-3.0819,-3.0798,-3.0796,-3.0792,-3.0788,-3.0785,-3.079,-3.0772,-3.0777,-3.0764,-3.0753,-3.0722,-3.0716,-3.071,-3.071,-3.0685,-3.0682,-3.0707,-3.071,-3.071,-3.072,-3.075,-3.0753,-3.0736,-3.0722,-3.0737,-3.0769,-3.0764,-3.0784,-3.0781,-3.0789,-3.0789,-3.0786,-3.0791,-3.0787,-3.0832,-3.0876,-3.0838,-3.08,-3.0801,-3.0801,-3.082,-3.0857,-3.0854,-3.0831,-3.0807,-3.0823,-3.1119,-3.1301,-3.1481,-3.1211,-3.0896,-3.0946,-3.101,-3.0913,-3.0776,-3.076,-3.0781,-3.0956,-3.1041,-3.0986,-3.1394,-3.1939,-3.2364,-3.282,-3.305,-3.3322,-3.3654,-3.3841,-3.3617,-3.3509,-3.3282,-2.9301,-2.9265,-2.9254,-2.9304,-2.9357,-2.9361,-2.9394,-2.9453,-2.9521,-2.9521,-2.9472,-2.9492,-2.957,-2.9757,-2.9738,-2.98,-2.9851,-2.9876,-2.9983,-3.0098,-3.0128,-3.0173,-3.0234,-3.0273,-3.0349,-3.039,-3.0431,-3.0439,-3.0471,-3.0501,-3.0535,-3.0621,-3.0602,-3.0634,-3.0695,-3.0723,-3.0707,-3.0722,-3.0737,-3.0764,-3.0789,-3.0808,-3.0803,-3.0783,-3.0783,-3.0803,-3.0799,-3.0792,-3.0802,-3.0786,-3.0745,-3.0722,-3.0707,-3.0714,-3.0704,-3.0671,-3.0687,-3.0676,-3.0653,-3.0649,-3.0649,-3.0672,-3.0649,-3.0614,-3.0641,-3.0649,-3.0622,-3.0567,-3.0595,-3.0678,-3.0685,-3.0707,-3.0707,-3.073,-3.0751,-3.0772,-3.0798,-3.0798,-3.081,-3.0819,-3.0806,-3.0788,-3.079,-3.0792,-3.079,-3.0822,-3.0819,-3.0792,-3.0786,-3.0785,-3.0783,-3.0812,-3.0821,-3.0855,-3.0898,-3.0857,-3.0887,-3.0815,-3.0796,-3.0774,-3.075,-3.0731,-3.0764,-3.0792,-3.0887,-3.129,-3.1676,-3.2057,-3.2415,-3.2762,-3.3164,-3.3342,-3.3005,-3.2683,-3.2404]},{"header":{"parameterUnit":"m.s-1","parameterCategory":1,"la1":31.0,"la2":29.5877,"lo1":-88.7671,"lo2":-86.6584,"dy":0.0162,"dx":0.0185,"nx":115,"ny":88,"refTime":"2024-04-20T12:00:00:Z","depth":0,"parameterNumber":3,"parameterNumberName":"V-component_of_WINDS"},"data":[0.0,0.0,0.0,0.0,0.0,0.0,0.0,0.0,0.0,0.0,0.0,0.0,0.0,0.0,0.0,0.0,0.0,0.0,0.0,0.0,0.0,0.0,0.0,0.0,0.0,0.0,0.0,0.0,0.0,0.0,0.0,0.0,0.0,0.0,0.0,0.0,0.0,0.0,0.0,0.0,0.0,0.0,0.0,0.0,0.0,0.0,0.0,0.0,0.0,0.0,0.0,0.0,0.0,0.0,0.0,0.0,0.0,0.0,0.0,0.0,0.0,0.0,0.0,0.0,0.0,0.0,0.0,0.0,0.0,0.0,0.0,0.0,0.0,0.0,0.0,0.0,0.0,0.0,0.0,0.0,0.0,0.0,0.0,0.0,0.0,0.0,0.0,0.0,0.0,0.0,0.0,0.0,0.0,0.0,0.0,0.0,0.0,0.0,0.0,0.0,0.0,0.0,0.0,0.0,0.0,0.0,0.0,0.0,0.0,0.0,0.0,0.0,0.0,0.0,0.0,0.0,0.0,0.0,0.0,0.0,0.0,0.0,0.0,0.0,0.0,0.0,0.0,0.0,0.0,0.0,0.0,0.0,0.0,0.0,0.0,0.0,0.0,0.0,0.0,0.0,0.0,0.0,0.0,0.0,0.0,0.0,0.0,0.0,0.0,0.0,0.0,0.0,0.0,0.0,0.0,0.0,0.0,0.0,0.0,0.0,0.0,0.0,0.0,0.0,0.0,0.0,0.0,0.0,0.0,0.0,0.0,0.0,0.0,0.0,0.0,0.0,0.0,0.0,0.0,0.0,0.0,0.0,0.0,0.0,0.0,0.0,0.0,0.0,0.0,0.0,0.0,0.0,0.0,0.0,0.0,0.0,0.0,0.0,0.0,0.0,0.0,0.0,0.0,0.0,0.0,0.0,0.0,0.0,0.0,0.0,0.0,0.0,0.0,0.0,0.0,0.0,0.0,0.0,0.0,0.0,0.0,0.0,0.0,0.0,0.0,0.0,0.0,0.0,0.0,0.0,0.0,0.0,0.0,0.0,0.0,0.0,0.0,0.0,0.0,0.0,0.0,0.0,0.0,0.0,0.0,0.0,0.0,0.0,0.0,0.0,0.0,0.0,0.0,0.0,0.0,0.0,0.0,0.0,0.0,0.0,0.0,0.0,0.0,0.0,0.0,0.0,0.0,0.0,0.0,0.0,0.0,0.0,0.0,0.0,0.0,0.0,0.0,0.0,0.0,0.0,0.0,0.0,0.0,0.0,0.0,0.0,0.0,0.0,0.0,0.0,0.0,0.0,0.0,0.0,0.0,0.0,0.0,0.0,0.0,0.0,0.0,0.0,0.0,0.0,0.0,0.0,0.0,0.0,0.0,0.0,0.0,0.0,0.0,0.0,0.0,0.0,0.0,0.0,0.0,0.0,0.0,0.0,0.0,0.0,0.0,0.0,0.0,0.0,0.0,0.0,0.0,0.0,0.0,0.0,0.0,0.0,0.0,0.0,0.0,0.0,0.0,0.0,0.0,0.0,0.0,0.0,0.0,0.0,0.0,0.0,0.0,0.0,0.0,0.0,0.0,0.0,0.0,0.0,0.0,0.0,0.0,0.0,0.0,0.0,0.0,0.0,0.0,0.0,0.0,0.0,0.0,0.0,0.0,0.0,0.0,0.0,0.0,0.0,0.0,0.0,0.0,0.0,0.0,0.0,0.0,0.0,0.0,0.0,0.0,0.0,0.0,0.0,0.0,0.0,0.0,0.0,0.0,0.0,0.0,0.0,0.0,0.0,0.0,0.0,0.0,0.0,0.0,0.0,0.0,0.0,0.0,0.0,0.0,0.0,0.0,0.0,0.0,0.0,0.0,0.0,0.0,0.0,0.0,0.0,0.0,0.0,0.0,0.0,0.0,0.0,0.0,0.0,0.0,0.0,0.0,0.0,0.0,0.0,0.0,0.0,0.0,0.0,0.0,0.0,0.0,0.0,0.0,0.0,0.0,0.0,0.0,0.0,0.0,0.0,0.0,0.0,0.0,0.0,0.0,0.0,0.0,0.0,0.0,0.0,0.0,0.0,0.0,0.0,0.0,0.0,0.0,0.0,0.0,0.0,0.0,0.0,0.0,0.0,0.0,0.0,0.0,0.0,0.0,0.0,0.0,0.0,0.0,0.0,0.0,0.0,0.0,0.0,0.0,0.0,0.0,0.0,0.0,0.0,0.0,0.0,0.0,0.0,0.0,0.0,0.0,0.0,0.0,0.0,0.0,0.0,0.0,0.0,0.0,0.0,0.0,0.0,0.0,0.0,0.0,0.0,0.0,0.0,0.0,0.0,0.0,0.0,0.0,0.0,0.0,0.0,0.0,0.0,0.0,0.0,0.0,0.0,0.0,0.0,0.0,0.0,0.0,0.0,0.0,0.0,0.0,0.0,0.0,0.0,0.0,0.0,0.0,0.0,0.0,0.0,0.0,0.0,0.0,0.0,0.0,0.0,0.0,0.0,0.0,0.0,0.0,0.0,0.0,0.0,0.0,0.0,0.0,0.0,0.0,0.0,0.0,0.0,0.0,0.0,0.0,0.0,0.0,0.0,0.0,0.0,0.0,0.0,0.0,0.0,0.0,0.0,0.0,0.0,0.0,0.0,0.0,0.0,0.0,0.0,0.0,0.0,0.0,0.0,0.0,0.0,0.0,0.0,0.0,0.0,0.0,0.0,0.0,0.0,0.0,0.0,0.0,0.0,0.0,0.0,0.0,0.0,0.0,0.0,0.0,0.0,0.0,0.0,0.0,0.0,0.0,0.0,0.0,0.0,0.0,0.0,0.0,0.0,0.0,0.0,0.0,0.0,0.0,0.0,0.0,0.0,0.0,0.0,0.0,0.0,0.0,0.0,0.0,0.0,0.0,0.0,0.0,0.0,0.0,0.0,0.0,0.0,0.0,0.0,0.0,0.0,0.0,0.0,0.0,0.0,0.0,0.0,0.0,0.0,0.0,0.0,0.0,0.0,0.0,0.0,0.0,0.0,0.0,0.0,0.0,0.0,0.0,0.0,0.0,0.0,0.0,0.0,0.0,0.0,0.0,0.0,0.0,0.0,0.0,0.0,0.0,0.0,0.0,0.0,0.0,0.0,0.0,0.0,0.0,0.0,0.0,0.0,0.0,0.0,0.0,0.0,0.0,0.0,0.0,0.0,0.0,0.0,0.0,0.0,0.0,0.0,0.0,0.0,0.0,0.0,0.0,0.0,0.0,0.0,0.0,0.0,0.0,0.0,0.0,0.0,0.0,0.0,0.0,0.0,0.0,0.0,0.0,0.0,0.0,0.0,0.0,0.0,0.0,0.0,0.0,0.0,0.0,0.0,0.0,0.0,0.0,0.0,0.0,0.0,0.0,0.0,0.0,0.0,0.0,0.0,0.0,0.0,0.0,0.0,0.0,0.0,0.0,0.0,0.0,0.0,0.0,0.0,0.0,0.0,0.0,0.0,0.0,0.0,0.0,0.0,0.0,0.0,0.0,0.0,0.0,0.0,0.0,0.0,0.0,0.0,0.0,0.0,0.0,0.0,0.0,0.0,0.0,0.0,0.0,0.0,0.0,0.0,0.0,0.0,0.0,0.0,0.0,0.0,0.0,0.0,0.0,0.0,0.0,0.0,0.0,0.0,0.0,0.0,0.0,0.0,0.0,0.0,0.0,0.0,0.0,0.0,0.0,0.0,0.0,0.0,0.0,0.0,0.0,0.0,0.0,0.0,0.0,0.0,0.0,0.0,0.0,0.0,0.0,0.0,0.0,0.0,0.0,0.0,0.0,0.0,0.0,0.0,0.0,0.0,0.0,0.0,0.0,0.0,0.0,0.0,0.0,0.0,0.0,0.0,0.0,0.0,0.0,0.0,0.0,0.0,0.0,0.0,0.0,0.0,0.0,0.0,0.0,0.0,0.0,0.0,0.0,0.0,0.0,0.0,0.0,0.0,0.0,0.0,0.0,0.0,0.0,0.0,0.0,0.0,0.0,0.0,0.0,0.0,0.0,0.0,0.0,0.0,0.0,0.0,0.0,0.0,0.0,0.0,0.0,0.0,0.0,0.0,0.0,0.0,0.0,0.0,0.0,0.0,0.0,0.0,0.0,0.0,0.0,0.0,0.0,0.0,0.0,0.0,0.0,0.0,0.0,0.0,0.0,0.0,0.0,0.0,0.0,0.0,0.0,0.0,0.0,0.0,0.0,0.0,0.0,0.0,0.0,0.0,0.0,0.0,0.0,0.0,0.0,0.0,0.0,0.0,0.0,0.0,-0.9224,0.0,0.0,0.0,0.0,0.0,0.0,0.0,0.0,0.0,0.0,0.0,0.0,0.0,0.0,0.0,0.0,0.0,0.0,0.0,0.0,0.0,0.0,0.0,0.0,0.0,0.0,0.0,0.0,0.0,0.0,0.0,0.0,0.0,0.0,0.0,0.0,0.0,0.0,0.0,0.0,0.0,0.0,0.0,0.0,0.0,0.0,0.0,0.0,0.0,0.0,0.0,0.0,0.0,0.0,0.0,0.0,0.0,0.0,0.0,0.0,0.0,0.0,0.0,0.0,0.0,0.0,0.0,0.0,0.0,0.0,0.0,0.0,0.0,0.0,0.0,0.0,0.0,0.0,0.0,0.0,0.0,0.0,0.0,0.0,0.0,0.0,0.0,0.0,0.0,0.0,0.0,0.0,0.0,0.0,0.0,0.0,0.0,0.0,0.0,0.0,0.0,0.0,0.0,0.0,0.0,0.0,0.0,0.0,0.0,0.0,0.1125,0.1214,-0.0154,-0.1345,-0.234,0.0,0.0,0.0,0.0,0.0,0.0,0.0,0.0,0.0,0.0,0.0,0.0,0.0,0.0,0.0,0.0,0.0,0.0,0.0,0.0,0.0,0.0,0.0,0.0,0.0,0.0,0.0,0.0,0.0,0.0,0.0,0.0,0.0,0.0,0.0,0.0,0.0,0.0,0.0,0.0,0.0,0.0,0.0,0.0,0.0,0.0,0.0,0.0,0.0,0.0,0.0,0.0,0.0,0.0,0.0,0.0,0.0,0.0,0.0,0.0,0.0,0.0,0.0,0.0,0.0,0.0,0.0,0.0,0.0,0.0,0.0,0.0,0.0,0.0,0.0,0.0,0.0,0.0,0.0,0.0,0.0,0.0,0.0,0.0,0.0,0.0,0.0,0.0,0.0,0.0,0.0,0.0,0.0,0.0,0.0,0.0,0.0,0.0,0.0,0.0,0.0,0.0,0.0,0.0,0.0,0.0,0.0,0.0,0.0,0.0,0.0,0.0,0.7153,0.5163,0.2908,0.0,0.0,0.0,0.0,0.0,0.0,0.0,0.0,0.0,0.0,0.0,0.0,0.0,0.0,0.0,0.0,0.0,0.0,0.0,0.0,0.0,0.0,0.0,0.0,0.0,0.0,0.0,0.0,0.0,0.0,0.0,0.0,0.0,0.0,0.0,0.0,0.0,0.0,0.0,0.0,0.0,0.0,0.0,0.0,0.0,0.0,0.0,0.0,0.0,0.0,0.0,0.0,0.0,0.0,0.0,0.0,0.0,0.0,0.0,0.0,0.0,0.0,0.0,0.0,0.0,0.0,0.0,0.0,0.0,0.0,0.0,0.0,0.0,0.0,0.0,0.0,0.0,0.0,0.0,0.0,0.0,0.0,0.0,0.0,0.0,0.0,0.0,0.0,0.0,0.0,0.0,0.0,0.0,0.0,0.0,0.0,0.0,0.0,0.0,0.0,0.0,0.0,0.0,0.0,0.0,0.0,0.0,0.0,0.0,0.0,1.4864,1.369,1.1633,0.0,0.4278,0.0,0.0,0.0,0.0,0.0,0.0,0.0,0.0,0.0,0.0,0.0,0.0,0.0,0.0,0.0,0.0,0.0,0.0,0.0,0.0,0.0,0.0,0.0,0.0,0.0,0.0,0.0,0.0,0.0,0.0,0.0,0.0,0.0,0.0,0.0,0.0,0.0,0.0,0.0,0.0,0.0,0.0,0.0,0.0,0.0,0.0,0.0,0.0,0.0,0.0,0.0,0.0,0.0,0.0,0.0,0.0,0.0,0.0,0.0,0.0,0.0,0.0,0.0,0.0,0.0,0.0,0.0,0.0,0.0,0.0,0.0,0.0,0.0,0.0,0.0,0.0,0.0,0.0,0.0,0.0,0.0,0.0,0.0,0.0,0.0,0.0,0.0,0.0,0.0,0.0,0.0,0.0,0.0,0.0,0.0,0.0,0.0,0.0,0.0,0.0,0.0,0.0,0.0,0.0,0.0,0.0,0.0,0.0,0.0,0.0,1.5438,1.3946,1.0024,0.6397,0.0,0.0,0.0,0.0,0.0,0.0,0.0,0.0,0.0,0.0,0.0,0.0,0.0,0.0,0.0,0.0,0.0,0.0,0.0,0.0,0.0,0.0,0.0,0.0,0.0,0.0,0.0,0.0,0.0,0.0,0.0,0.0,0.0,0.0,0.0,0.0,0.0,0.0,0.0,0.0,0.0,0.0,0.0,0.0,0.0,0.0,0.0,0.0,0.0,0.0,0.0,0.0,0.0,0.0,0.0,0.0,0.0,0.0,0.0,0.0,0.0,0.0,0.0,0.0,0.0,0.0,0.0,0.0,0.0,0.0,0.0,0.0,0.0,0.0,0.0,0.0,0.0,0.0,0.0,0.0,0.0,0.0,0.0,0.0,0.0,0.0,0.0,0.0,0.0,0.0,0.0,0.0,0.0,0.0,0.0,0.0,0.0,0.0,0.0,0.0,0.0,0.0,0.0,0.0,0.0,0.0,0.0,0.0,0.0,0.0,1.6571,1.4349,1.1441,0.7041,0.3639,0.1522,0.0,0.0,0.0,0.0,0.0,0.0,0.0,0.0,0.0,0.0,0.0,0.0,0.0,0.0,0.0,0.0,0.0,0.0,0.0,0.0,0.0,0.0,0.0,0.0,0.0,0.0,0.0,0.0,0.0,0.0,0.0,0.0,0.0,0.0,0.0,0.0,0.0,0.0,0.0,0.0,0.0,0.0,0.0,0.0,0.0,0.0,0.0,0.0,0.0,0.0,0.0,0.0,0.0,0.0,0.0,0.0,0.0,0.0,0.0,0.0,0.0,0.0,0.0,0.0,0.0,0.0,0.0,0.0,0.0,0.0,0.0,0.0,0.0,0.0,0.0,0.0,0.0,0.0,0.0,0.0,0.0,0.0,0.0,0.0,0.0,0.0,0.0,0.0,0.0,0.0,0.0,0.0,0.0,0.0,0.0,0.0,0.0,0.0,0.0,0.0,0.0,0.0,0.0,0.0,0.0,0.0,0.0,0.0,1.6965,1.5327,1.1822,0.6376,0.3409,0.1072,0.0,0.0,0.0,0.0,0.0,0.0,0.0,0.0,0.0,0.0,0.0,0.0,0.0,0.0,0.0,0.0,0.0,0.0,0.0,0.0,0.0,0.0,0.0,0.0,0.0,0.0,0.0,0.0,0.0,0.0,0.0,0.0,0.0,0.0,0.0,0.0,0.0,0.0,0.0,0.0,0.0,0.0,0.0,0.0,0.0,0.0,0.0,0.0,0.0,0.0,0.0,0.0,0.0,0.0,0.0,0.0,0.0,0.0,0.0,0.0,0.0,0.0,0.0,0.0,0.0,0.0,0.0,0.0,0.0,0.0,0.0,0.0,0.0,0.0,0.0,0.0,0.0,0.0,0.0,0.0,0.0,0.0,0.0,0.0,0.0,0.0,0.0,0.0,0.0,0.0,0.0,0.0,0.0,0.0,0.0,0.0,0.0,0.0,0.0,0.0,0.0,0.0,0.0,0.0,0.0,0.0,0.0,0.0,0.0,1.5199,1.1498,0.7462,0.3193,0.0592,-0.1609,0.0,0.0,0.0,0.0,0.0,0.0,0.0,0.0,0.0,0.0,0.0,0.0,0.0,0.0,0.0,0.0,0.0,0.0,0.0,0.0,0.0,0.0,0.0,0.0,0.0,0.0,0.0,0.0,0.0,0.0,0.0,0.0,0.0,0.0,0.0,0.0,0.0,0.0,0.0,0.0,0.0,0.0,0.0,0.0,0.0,0.0,0.0,0.0,0.0,0.0,0.0,0.0,0.0,0.0,0.0,0.0,0.0,0.0,0.0,0.0,0.0,0.0,0.0,0.0,0.0,0.0,0.0,0.0,0.0,0.0,0.0,0.0,0.0,0.0,0.0,0.0,0.0,0.0,0.0,0.0,0.0,0.0,0.0,0.0,0.0,0.0,0.0,0.0,0.0,0.0,0.0,0.0,0.0,0.0,0.0,0.0,0.0,0.0,0.0,0.0,0.0,0.0,0.0,0.0,0.0,0.0,0.0,0.0,0.0,1.2569,0.0,0.4125,0.0808,-0.1705,-0.3855,0.0,0.0,0.0,0.0,0.0,0.0,0.0,0.0,0.0,0.0,0.0,0.0,0.0,0.0,0.0,0.0,0.0,0.0,0.0,0.0,0.0,0.0,0.0,0.0,0.0,0.0,0.0,0.0,0.0,0.0,0.0,0.0,0.0,0.0,0.0,0.0,0.0,0.0,0.0,0.0,0.0,0.0,0.0,0.0,0.0,0.0,0.0,0.0,0.0,0.0,0.0,0.0,0.0,0.0,0.0,0.0,0.0,0.0,0.0,0.0,0.0,0.0,0.0,0.0,0.0,0.0,0.0,0.0,0.0,0.0,0.0,0.0,0.0,0.0,0.0,0.0,0.0,0.0,0.0,0.0,0.0,0.0,0.0,0.0,0.0,0.0,0.0,0.0,0.0,0.0,0.0,0.0,0.0,0.0,0.0,0.0,0.0,0.0,0.0,0.0,0.0,0.0,0.0,0.0,0.0,0.0,0.0,0.0,1.2688,0.9002,0.5562,0.2248,-0.0918,-0.353,-0.5598,0.0,0.0,0.0,0.0,0.0,0.0,0.0,0.0,0.0,0.0,0.0,0.0,0.0,0.0,0.0,0.0,0.0,0.0,0.0,0.0,0.0,0.0,0.0,0.0,0.0,0.0,0.0,0.0,0.0,0.0,0.0,0.0,0.0,0.0,0.0,0.0,0.0,0.0,0.0,0.0,0.0,0.0,0.0,0.0,0.0,0.0,0.0,0.0,0.0,0.0,0.0,0.0,0.0,0.0,0.0,0.0,0.0,0.0,0.0,0.0,0.0,0.0,0.0,0.0,0.0,0.0,0.0,0.0,0.0,0.0,0.0,0.0,0.0,0.0,0.0,0.0,0.0,0.0,0.0,0.0,0.0,0.0,0.0,0.0,0.0,0.0,0.0,0.0,0.0,0.0,0.0,0.0,0.0,0.0,0.0,0.0,0.0,0.0,0.0,0.0,0.0,0.0,0.0,0.0,0.0,0.0,0.0,0.0,0.0,0.7198,0.3828,0.0477,-0.2821,-0.5153,-0.707,0.0,0.0,0.0,0.0,0.0,0.0,0.0,0.0,0.0,0.0,0.0,0.0,0.0,0.0,0.0,0.0,0.0,0.0,0.0,0.0,0.0,0.0,0.0,0.0,0.0,0.0,0.0,0.0,0.0,0.0,0.0,0.0,0.0,0.0,0.0,0.0,0.0,0.0,0.0,0.0,0.0,0.0,0.0,0.0,0.0,0.0,0.0,0.0,0.0,0.0,0.0,0.0,0.0,0.0,0.0,0.0,0.0,0.0,0.0,0.0,0.0,0.0,0.0,0.0,0.0,0.0,0.0,0.0,0.0,0.0,0.0,0.0,0.0,0.0,0.0,0.0,0.0,0.0,0.0,0.0,0.0,0.0,0.0,0.0,0.0,0.0,0.0,0.0,0.0,0.0,0.0,0.0,0.0,0.0,0.0,0.0,0.0,0.0,0.0,0.0,0.0,0.0,0.0,0.0,0.0,0.0,0.0,0.0,0.0,0.4703,0.202,-0.0973,-0.4287,-0.6418,-0.8313,-0.9933,0.0,0.0,0.0,0.0,0.0,0.0,0.0,0.0,0.0,0.0,0.0,0.0,0.0,0.0,0.0,0.0,0.0,0.0,0.0,0.0,0.0,0.0,0.0,0.0,0.0,0.0,0.0,0.0,0.0,0.0,0.0,0.0,0.0,0.0,0.0,0.0,0.0,0.0,0.0,0.0,0.0,0.0,0.0,0.0,0.0,0.0,0.0,0.0,0.0,0.0,0.0,0.0,0.0,0.0,0.0,0.0,0.0,0.0,0.0,0.0,0.0,0.0,0.0,0.0,0.0,0.0,0.0,0.0,0.0,0.0,0.0,0.0,0.0,0.0,0.0,0.0,0.0,0.0,0.0,0.0,0.0,0.0,0.0,0.0,0.0,0.0,0.0,0.0,0.0,0.0,0.0,0.0,0.0,0.0,0.0,0.0,0.0,0.0,0.0,0.0,0.0,0.0,0.0,0.0,0.0,0.0,0.0,0.0,0.1846,0.0097,-0.2244,-0.5312,-0.7452,-0.9345,0.0,0.0,0.0,0.0,0.0,0.0,0.0,0.0,0.0,0.0,0.0,0.0,0.0,0.0,0.0,0.0,0.0,0.0,0.0,0.0,0.0,0.0,0.0,0.0,0.0,0.0,0.0,0.0,0.0,0.0,0.0,0.0,0.0,0.0,0.0,0.0,0.0,0.0,0.0,0.0,0.0,0.0,0.0,0.0,0.0,0.0,0.0,0.0,0.0,0.0,0.0,0.0,0.0,0.0,0.0,0.0,0.0,0.0,0.0,0.0,0.0,0.0,0.0,0.0,0.0,0.0,0.0,0.0,0.0,0.0,0.0,0.0,0.0,0.0,0.0,0.0,0.0,0.0,0.0,0.0,0.0,0.0,0.0,0.0,0.0,0.0,0.0,0.0,0.0,0.0,0.0,0.0,0.0,0.0,0.0,0.0,0.0,0.0,0.0,0.0,0.0,0.0,0.0,0.0,0.0,0.0,0.0,0.0,0.0,0.0725,-0.1628,-0.3985,-0.6361,-0.8317,-1.0015,0.0,0.0,0.0,0.0,0.0,0.0,0.0,0.0,0.0,0.0,0.0,0.0,0.0,0.0,0.0,0.0,0.0,0.0,0.0,0.0,0.0,0.0,0.0,0.0,0.0,0.0,0.0,0.0,0.0,0.0,0.0,0.0,0.0,0.0,0.0,0.0,0.0,0.0,0.0,0.0,0.0,0.0,0.0,0.0,0.0,0.0,0.0,0.0,0.0,0.0,0.0,0.0,0.0,0.0,0.0,0.0,0.0,0.0,0.0,0.0,0.0,0.0,0.0,0.0,0.0,0.0,0.0,0.0,0.0,0.0,0.0,0.0,0.0,0.0,0.0,0.0,0.0,0.0,0.0,0.0,0.0,0.0,0.0,0.0,0.0,0.0,0.0,0.0,0.0,0.0,0.0,0.0,0.0,0.0,0.0,0.0,0.0,0.0,0.0,0.0,0.0,0.0,0.0,0.0,0.0,0.0,0.0,0.0,0.2815,-0.039,-0.2933,-0.5368,-0.7608,-0.9124,-1.0618,0.0,0.0,0.0,0.0,0.0,0.0,0.0,0.0,0.0,0.0,0.0,0.0,0.0,0.0,0.0,0.0,0.0,0.0,0.0,0.0,0.0,0.0,0.0,0.0,0.0,0.0,0.0,0.0,0.0,0.0,0.0,0.0,0.0,0.0,0.0,0.0,0.0,0.0,0.0,0.0,0.0,0.0,0.0,0.0,0.0,0.0,0.0,0.0,0.0,0.0,0.0,0.0,0.0,0.0,0.0,0.0,0.0,0.0,0.0,0.0,0.0,0.0,0.0,0.0,0.0,0.0,0.0,0.0,0.0,0.0,0.0,0.0,0.0,0.0,0.0,0.0,0.0,0.0,0.0,0.0,0.0,0.0,0.0,0.0,0.0,0.0,0.0,0.0,0.0,0.0,0.0,0.0,0.0,0.0,0.0,0.0,0.0,0.0,0.0,0.0,0.0,0.0,0.0,0.0,0.0,0.0,0.0,0.0,0.1863,-0.1323,-0.3881,-0.6363,-0.8753,-0.9961,-1.1265,0.0,0.0,0.0,0.0,0.0,0.0,0.0,0.0,0.0,0.0,0.0,0.0,0.0,0.0,0.0,0.0,0.0,0.0,0.0,0.0,0.0,0.0,0.0,0.0,0.0,0.0,0.0,0.0,0.0,0.0,0.0,0.0,0.0,0.0,0.0,0.0,0.0,0.0,0.0,0.0,0.0,0.0,0.0,0.0,0.0,0.0,0.0,0.0,0.0,0.0,0.0,0.0,0.0,0.0,0.0,0.0,0.0,0.0,0.0,0.0,0.0,0.0,0.0,0.0,0.0,0.0,0.0,0.0,0.0,0.0,0.0,0.0,0.0,0.0,0.0,0.0,0.0,0.0,0.0,0.0,0.0,0.0,0.0,0.0,0.0,0.0,0.0,0.0,0.0,0.0,0.0,0.0,0.0,0.0,0.0,0.0,0.0,0.0,0.0,0.0,0.0,0.0,0.0,0.0,0.0,0.0,0.0,0.0,0.1204,-0.1795,-0.4257,-0.667,-0.9061,-1.0539,-1.1919,0.0,0.0,0.0,0.0,0.0,0.0,0.0,0.0,0.0,0.0,0.0,0.0,0.0,0.0,0.0,0.0,0.0,0.0,0.0,0.0,0.0,0.0,0.0,0.0,0.0,0.0,0.0,0.0,0.0,0.0,0.0,0.0,0.0,0.0,0.0,0.0,0.0,0.0,0.0,0.0,0.0,0.0,0.0,0.0,0.0,0.0,0.0,0.0,-1.4291,0.0,0.0,0.0,0.0,0.0,0.0,0.0,0.0,0.0,0.0,0.0,0.0,0.0,0.0,0.0,0.0,0.0,0.0,0.0,0.0,0.0,0.0,0.0,0.0,0.0,0.0,0.0,0.0,0.0,0.0,0.0,0.0,0.0,0.0,0.0,0.0,0.0,0.0,0.0,0.0,0.0,0.0,0.0,0.0,0.0,0.0,0.0,0.0,0.0,0.0,0.0,0.0,0.0,0.0,0.0,0.0,0.0,0.0,0.0,0.029,-0.2507,-0.492,-0.727,-0.9501,-1.1206,-1.2552,0.0,0.0,0.0,0.0,0.0,0.0,0.0,0.0,0.0,0.0,0.0,0.0,0.0,0.0,0.0,0.0,0.0,0.0,0.0,0.0,0.0,0.0,0.0,0.0,0.0,0.0,0.0,0.0,0.0,0.0,0.0,0.0,0.0,0.0,0.0,0.0,0.0,0.0,0.0,0.0,0.0,0.0,0.0,0.0,0.0,0.0,0.0,0.0,0.0,0.0,0.0,0.0,0.0,0.0,0.0,0.0,0.0,0.0,0.0,0.0,0.0,0.0,0.0,0.0,0.0,0.0,0.0,0.0,0.0,0.0,0.0,0.0,0.0,0.0,0.0,0.0,0.0,0.0,0.0,0.0,0.0,0.0,0.0,0.0,0.0,0.0,0.0,0.0,0.0,0.0,0.0,0.0,0.0,0.0,0.0,0.0,0.0,0.0,0.0,0.0,0.0,0.0,0.0,0.0,0.0,0.0,0.0,0.2082,-0.0579,-0.321,-0.5622,-0.7865,-0.9948,-1.1804,-1.3076,-1.3722,0.0,0.0,0.0,0.0,0.0,0.0,0.0,0.0,0.0,0.0,0.0,0.0,0.0,0.0,0.0,0.0,0.0,0.0,0.0,0.0,0.0,0.0,0.0,0.0,0.0,0.0,0.0,0.0,0.0,0.0,0.0,0.0,0.0,0.0,0.0,0.0,0.0,0.0,-0.1451,-0.2701,0.0,0.0,0.0,0.0,0.0,0.0,0.0,0.0,-1.6419,0.0,0.0,0.0,0.0,0.0,0.0,0.0,0.0,0.0,0.0,0.0,0.0,0.0,0.0,0.0,0.0,0.0,0.0,0.0,0.0,0.0,0.0,0.0,0.0,0.0,0.0,0.0,0.0,0.0,0.0,0.0,0.0,0.0,0.0,0.0,0.0,0.0,0.0,0.0,0.0,0.0,0.0,0.0,0.0,0.0,0.0,0.0,0.0,0.0,0.0,0.0,0.0,0.0,0.0,0.0,0.0,0.4067,0.1516,-0.0967,-0.3515,-0.5872,-0.8064,-0.9948,-1.195,-1.336,-1.3999,0.0,0.0,0.0,0.0,0.0,0.0,0.0,0.0,0.0,0.0,0.0,0.0,0.0,0.0,0.0,0.0,0.0,0.0,0.0,0.0,0.0,0.0,0.0,0.0,0.0,0.0,0.0,0.0,0.0,0.0,0.0,0.0,0.0,0.0,0.0,0.0,0.0,0.0,0.0,-0.2973,-0.442,0.0,0.0,0.0,0.0,0.0,0.0,0.0,0.0,-1.7526,0.0,0.0,0.0,0.0,0.0,0.0,0.0,0.0,0.0,0.0,0.0,0.0,0.0,0.0,0.0,0.0,0.0,0.0,0.0,0.0,0.0,0.0,0.0,0.0,0.0,0.0,0.0,0.0,0.0,0.0,0.0,0.0,0.0,0.0,0.0,0.0,0.0,0.0,0.0,0.0,0.0,0.0,0.0,0.0,0.0,0.0,0.0,0.0,0.0,0.0,0.0,0.0,0.0,0.0,0.0,0.3302,0.0664,-0.174,-0.3964,-0.6368,-0.851,-1.0337,-1.2032,-1.3327,0.0,0.0,0.0,0.0,0.0,0.0,0.0,0.0,0.0,0.0,0.0,0.0,0.0,0.0,0.0,0.0,0.0,0.0,0.0,0.0,0.0,0.0,0.0,0.0,0.0,0.0,0.0,0.0,0.0,0.0,0.0,0.0,0.0,0.0,0.0,0.0,0.0,0.0,0.0,0.0,-0.3831,-0.5419,-0.6972,0.0,0.0,0.0,0.0,0.0,0.0,-1.6845,-1.7946,0.0,0.0,0.0,0.0,0.0,0.0,0.0,0.0,0.0,0.0,0.0,0.0,0.0,0.0,0.0,0.0,0.0,0.0,0.0,0.0,0.0,0.0,0.0,0.0,0.0,0.0,0.0,0.0,0.0,0.0,0.0,0.0,0.0,0.0,0.0,0.0,0.0,0.0,0.0,0.0,0.0,0.0,0.0,0.0,0.0,0.0,0.0,0.0,0.0,0.0,0.0,0.0,0.0,0.0,0.0,0.2491,-0.0237,-0.2605,-0.4589,-0.7006,-0.9057,-1.0832,-1.2173,-1.3391,0.0,0.0,0.0,0.0,0.0,0.0,0.0,0.0,0.0,0.0,0.0,0.0,0.0,0.0,0.0,0.0,0.0,0.0,0.0,0.0,0.0,0.0,0.0,0.0,0.0,0.0,0.0,0.0,0.0,0.0,0.0,0.0,0.0,0.0,0.0,0.0,0.0,0.0,0.0,0.0,0.0,-0.661,-0.8076,-0.9882,0.0,0.0,0.0,0.0,-1.6411,-1.7505,0.0,0.0,0.0,0.0,0.0,0.0,0.0,0.0,0.0,0.0,0.0,0.0,0.0,0.0,0.0,0.0,0.0,0.0,0.0,0.0,0.0,0.0,0.0,0.0,0.0,0.0,0.0,0.0,0.0,0.0,0.0,0.0,0.0,0.0,0.0,0.0,0.0,0.0,0.0,0.0,0.0,0.0,0.0,0.0,0.0,0.0,0.0,0.0,0.0,0.0,0.0,0.0,0.0,0.0,0.0,0.0,0.1522,-0.1034,-0.3358,-0.5343,-0.7806,-0.971,-1.114,-1.2606,-1.3767,0.0,0.0,0.0,0.0,0.0,0.0,0.0,0.0,0.0,0.0,0.0,0.0,0.0,0.0,0.0,0.0,0.0,0.0,0.0,0.0,0.0,0.0,0.0,0.0,0.0,0.0,0.0,0.0,0.0,0.0,0.0,0.0,0.0,0.0,0.0,0.0,0.0,0.0,0.0,0.0,0.0,-0.7325,-0.9205,-1.0734,-1.2243,0.0,0.0,-1.6139,-1.7271,-1.8465,0.0,0.0,0.0,0.0,0.0,0.0,0.0,0.0,0.0,0.0,0.0,0.0,0.0,0.0,0.0,0.0,0.0,0.0,0.0,0.0,0.0,0.0,0.0,0.0,0.0,0.0,0.0,0.0,0.0,0.0,0.0,0.0,0.0,0.0,0.0,0.0,0.0,0.0,0.0,0.0,0.0,0.0,0.0,0.0,0.0,0.0,0.0,0.0,0.0,0.0,0.0,0.0,0.0,0.0,0.0,0.1774,0.0138,-0.216,-0.426,-0.6101,-0.8434,-1.0196,-1.1394,-1.2593,-1.3635,0.0,0.0,0.0,0.0,0.0,0.0,0.0,0.0,0.0,0.0,0.0,0.0,0.0,0.0,0.0,0.0,0.0,0.0,0.0,0.0,0.0,0.0,0.0,0.0,0.0,0.0,0.0,0.0,0.0,0.0,0.0,0.0,0.0,0.0,0.0,0.0,0.0,0.0,0.0,0.0,0.0,0.0,-1.0924,-1.2474,0.0,0.0,0.0,-1.7328,-1.8023,0.0,0.0,0.0,0.0,0.0,0.0,0.0,0.0,0.0,0.0,0.0,0.0,0.0,0.0,0.0,0.0,0.0,0.0,0.0,0.0,0.0,0.0,0.0,0.0,0.0,0.0,0.0,0.0,0.0,0.0,0.0,0.0,0.0,0.0,0.0,0.0,0.0,0.0,0.0,0.0,0.0,0.0,0.0,0.0,0.0,0.0,0.0,0.0,0.0,0.0,0.0,0.0,0.0,0.0,0.0,0.0,0.0,-0.1234,-0.3306,-0.5221,-0.6966,-0.9146,-1.0778,-1.1774,-1.2716,0.0,0.0,0.0,0.0,0.0,0.0,0.0,0.0,0.0,0.0,0.0,0.0,0.0,0.0,0.0,0.0,0.0,0.0,0.0,0.0,0.0,0.0,0.0,0.0,0.0,0.0,0.0,-0.6764,0.0,0.0,0.0,0.0,0.0,0.0,0.0,0.0,0.0,0.0,0.0,0.0,0.0,0.0,-1.0958,-1.2648,-1.4247,-1.5654,0.0,0.0,-1.8522,-1.9011,-1.9913,-2.0628,0.0,0.0,0.0,0.0,0.0,0.0,0.0,0.0,0.0,0.0,0.0,0.0,0.0,0.0,0.0,0.0,0.0,0.0,0.0,0.0,0.0,0.0,0.0,0.0,0.0,0.0,0.0,0.0,0.0,0.0,0.0,0.0,0.0,0.0,0.0,0.0,0.0,0.0,0.0,0.0,0.0,0.0,0.0,0.0,0.0,0.0,0.0,0.0,0.0,0.0,0.0,0.0,0.0,0.0,0.0,-0.2415,-0.4425,-0.6322,-0.7998,-1.0112,-1.1547,-1.234,-1.3273,-1.3874,0.0,0.0,0.0,0.0,0.0,0.0,0.0,0.0,0.0,0.0,0.0,0.0,0.0,0.0,0.0,0.0,0.0,0.0,0.0,0.0,0.0,0.0,0.0,0.0,0.0,0.0,0.0,0.0,0.0,0.0,0.0,0.0,0.0,0.0,0.0,0.0,0.0,0.0,0.0,0.0,0.0,-1.2781,-1.4143,-1.5773,-1.7202,0.0,0.0,-1.955,-2.0386,-2.1095,-2.1455,-2.1465,0.0,0.0,0.0,0.0,0.0,0.0,0.0,0.0,0.0,0.0,0.0,0.0,0.0,0.0,0.0,0.0,0.0,0.0,0.0,0.0,0.0,0.0,0.0,0.0,0.0,0.0,0.0,0.0,0.0,0.0,0.0,0.0,0.0,0.0,0.0,0.0,0.0,0.0,0.0,0.0,0.0,0.0,0.0,0.0,0.0,0.0,0.0,0.0,0.0,0.0,0.0,0.0,0.0,-0.2613,-0.4014,-0.5817,-0.7503,-0.9175,-1.0709,-1.1733,-1.2326,-1.3007,-1.3542,0.0,0.0,0.0,0.0,0.0,0.0,0.0,0.0,0.0,0.0,0.0,0.0,0.0,0.0,0.0,0.0,0.0,0.0,0.0,0.0,0.0,0.0,0.0,0.0,0.0,0.0,0.0,0.0,-0.8389,-0.8908,-0.9498,0.0,0.0,0.0,0.0,0.0,0.0,0.0,0.0,0.0,0.0,-1.4629,-1.6001,-1.7627,0.0,0.0,-2.0235,-2.0852,-2.1181,-2.1824,-2.2048,-2.1573,-2.1796,0.0,0.0,0.0,0.0,0.0,0.0,0.0,0.0,0.0,0.0,0.0,0.0,0.0,0.0,0.0,0.0,0.0,0.0,0.0,0.0,0.0,0.0,0.0,0.0,0.0,0.0,0.0,0.0,0.0,0.0,0.0,0.0,0.0,0.0,0.0,0.0,0.0,0.0,0.0,0.0,0.0,0.0,0.0,0.0,0.0,0.0,0.0,0.0,0.0,0.0,0.0,0.0,-0.4193,-0.5617,-0.7087,-0.8604,-1.0204,-1.1257,-1.204,-1.2414,-1.2939,-1.3343,0.0,0.0,0.0,0.0,0.0,0.0,0.0,0.0,0.0,0.0,0.0,0.0,0.0,0.0,0.0,0.0,0.0,0.0,0.0,0.0,0.0,0.0,0.0,0.0,0.0,0.0,0.0,0.0,-0.8855,-0.9506,-1.0034,0.0,0.0,0.0,0.0,0.0,0.0,0.0,0.0,0.0,0.0,-1.6295,-1.7574,-1.9097,-2.0215,-2.0658,-2.1303,-2.1767,-2.1888,-2.2279,-2.2423,-2.1877,0.0,0.0,0.0,0.0,0.0,0.0,0.0,0.0,0.0,0.0,0.0,0.0,0.0,0.0,0.0,0.0,0.0,0.0,0.0,0.0,0.0,0.0,0.0,0.0,0.0,0.0,0.0,0.0,0.0,0.0,-0.2719,0.0,0.0,0.0,0.0,0.0,0.0,0.0,0.0,0.0,0.0,0.0,0.0,0.0,0.0,0.0,0.0,0.0,0.0,0.0,0.0,0.0,0.0,-0.5732,-0.7027,-0.8277,-0.9557,-1.0949,-1.1921,-1.2453,-1.2668,-1.3197,-1.3455,-1.344,0.0,0.0,0.0,0.0,0.0,0.0,0.0,0.0,0.0,0.0,0.0,0.0,0.0,0.0,0.0,0.0,0.0,0.0,0.0,0.0,0.0,0.0,0.0,0.0,0.0,0.0,-0.8365,-0.9349,-1.0136,0.0,0.0,0.0,0.0,0.0,0.0,0.0,0.0,0.0,0.0,-1.5818,-1.7579,-1.8789,-1.9946,-2.0886,-2.1487,-2.1873,-2.2222,-2.2513,-2.257,-2.2566,0.0,0.0,0.0,0.0,0.0,0.0,0.0,0.0,0.0,0.0,0.0,0.0,0.0,0.0,0.0,0.0,0.0,0.0,0.0,0.0,0.0,0.0,0.0,0.0,0.0,0.0,0.0,-0.395,-0.3867,0.0,0.0,0.0,0.0,0.0,0.0,0.0,0.0,0.0,0.0,0.0,-0.6636,-0.7366,0.0,0.0,0.0,0.0,0.0,0.0,0.0,0.0,0.0,0.0,0.0,0.0,-0.7354,-0.8476,-0.9497,-1.0531,-1.1614,-1.2146,-1.2492,-1.2665,-1.2881,-1.31,-1.3339,0.0,0.0,0.0,0.0,0.0,0.0,0.0,0.0,0.0,0.0,0.0,0.0,0.0,0.0,0.0,0.0,0.0,0.0,0.0,0.0,0.0,0.0,0.0,0.0,0.0,-0.8343,0.0,0.0,0.0,0.0,0.0,0.0,0.0,0.0,0.0,0.0,0.0,-1.3768,-1.4901,-1.6773,-1.8394,-1.9348,-2.0342,-2.1171,0.0,0.0,0.0,0.0,0.0,0.0,0.0,0.0,0.0,0.0,0.0,0.0,0.0,0.0,-2.3346,-2.3243,-2.3157,-2.3188,-2.3314,0.0,0.0,0.0,0.0,0.0,0.0,0.0,0.0,0.0,0.0,0.0,0.0,0.0,0.0,-0.4465,0.0,-0.426,0.0,0.0,0.0,0.0,0.0,0.0,0.0,0.0,-0.6587,-0.7246,-0.7809,-0.8478,-0.8859,0.0,-0.9088,-0.8819,0.0,0.0,0.0,0.0,0.0,0.0,0.0,0.0,-0.8824,-0.9705,-1.0549,-1.137,-1.21,-1.2363,-1.2577,-1.2705,-1.2875,-1.3012,-1.3196,-1.3586,-1.3878,0.0,0.0,0.0,0.0,0.0,0.0,0.0,0.0,0.0,0.0,0.0,0.0,0.0,0.0,0.0,0.0,0.0,0.0,0.0,0.0,0.0,0.0,0.0,-0.9089,0.0,0.0,0.0,0.0,0.0,0.0,0.0,0.0,0.0,-1.2523,-1.3662,-1.4967,-1.6018,-1.7605,-1.8993,-1.9892,0.0,0.0,0.0,0.0,0.0,0.0,0.0,-2.2752,-2.2521,-2.2593,-2.2593,-2.237,-2.2513,-2.2744,-2.2982,0.0,0.0,-2.3293,-2.3382,-2.3443,-2.3702,-2.3706,-2.3718,-2.3718,-2.3982,-2.4132,0.0,0.0,0.0,0.0,0.0,0.0,0.0,0.0,-0.537,-0.5307,0.0,-0.5206,0.0,0.0,0.0,0.0,0.0,-0.5805,0.0,0.0,-0.7867,-0.8551,-0.9068,-0.9368,-0.9651,-0.9875,-0.9726,-0.9624,-0.9561,-0.8979,0.0,0.0,0.0,0.0,0.0,0.0,-1.0031,-1.0626,-1.1327,-1.1935,-1.2412,-1.2577,-1.2705,-1.2705,-1.3137,-1.3271,-1.3051,-1.3527,-1.373,-1.3611,-1.3763,0.0,0.0,0.0,0.0,0.0,0.0,0.0,0.0,0.0,0.0,0.0,0.0,0.0,0.0,0.0,0.0,0.0,0.0,0.0,0.0,-0.9116,0.0,0.0,0.0,0.0,0.0,0.0,0.0,0.0,0.0,0.0,-1.4051,-1.497,-1.6037,-1.7108,0.0,0.0,0.0,0.0,-2.0901,-2.1832,-2.1995,-2.1995,-2.2019,-2.2243,-2.2474,-2.2458,0.0,0.0,-2.2966,-2.2966,-2.295,-2.2974,-2.295,-2.3095,-2.3351,-2.3574,-2.3767,-2.3813,-2.3776,-2.3734,-2.3761,-2.4175,-2.4385,-0.5736,0.0,0.0,0.0,0.0,-0.5331,-0.5348,-0.5424,-0.5424,-0.5501,-0.5603,-0.548,0.0,0.0,0.0,0.0,0.0,0.0,-0.7277,-0.7822,-0.854,-0.9039,-0.9321,-0.9786,-1.0019,-1.0102,-1.0094,-1.0178,-1.0303,-0.9957,-0.9614,-0.926,0.0,0.0,0.0,0.0,-1.1086,-1.158,-1.1972,-1.232,-1.2619,-1.2662,-1.2705,-1.2705,-1.3173,-1.336,-1.3277,-1.3667,-1.3813,-1.3737,-1.3815,0.0,0.0,0.0,0.0,0.0,0.0,0.0,0.0,0.0,0.0,0.0,0.0,0.0,0.0,0.0,0.0,0.0,0.0,0.0,-0.9392,-1.0167,-1.0772,0.0,0.0,0.0,0.0,0.0,0.0,0.0,0.0,0.0,-1.5862,-1.6097,-1.6555,0.0,0.0,-1.9204,-2.0112,-2.0231,-2.0562,-2.1439,-2.16,0.0,0.0,-2.2091,-2.2162,-2.2162,-2.2196,-2.2259,-2.2314,-2.2259,-2.2259,-2.2322,-2.2259,-2.2314,-2.2455,-2.3059,-2.362,-2.3811,-2.406,-2.4221,-2.4204,-2.4607,-2.4819,-0.6143,-0.5782,-0.5744,-0.5686,-0.5774,-0.5774,-0.58,-0.5792,-0.5889,-0.6056,-0.6149,-0.6269,-0.6348,-0.6481,-0.6581,0.0,0.0,0.0,-0.809,-0.8513,-0.9054,-0.9435,-0.9736,-1.0158,-1.0343,-1.038,-1.0412,-1.0497,-1.0577,-1.066,-1.0549,-1.0294,0.0,0.0,-1.1025,-1.1499,-1.1886,-1.2149,-1.2406,-1.2577,-1.2705,-1.2705,-1.2705,-1.2705,-1.313,-1.3398,-1.3392,-1.3712,-1.3783,-1.3588,-1.36,-1.3597,0.0,0.0,0.0,0.0,0.0,0.0,0.0,0.0,0.0,0.0,0.0,-0.9431,-0.9258,0.0,0.0,0.0,-0.9296,-0.9807,-1.0496,-1.0982,0.0,0.0,0.0,0.0,0.0,0.0,0.0,-1.4562,-1.5098,-1.5807,-1.6874,-1.6886,-1.7184,-1.824,-1.874,-1.9279,-1.9879,0.0,-2.031,-2.095,-2.1138,-2.1306,-2.152,-2.1671,-2.1806,-2.1987,-2.1941,-2.188,-2.2003,-2.1941,-2.188,-2.1949,-2.2011,-2.2011,-2.2011,-2.2487,-2.2988,-2.3255,-2.3656,-2.393,-2.3985,-2.4341,-2.4606,-0.6387,-0.6365,-0.6203,-0.6181,-0.6331,-0.6331,-0.6339,-0.6434,-0.6681,-0.6764,-0.6797,-0.7263,-0.7413,-0.7369,-0.7794,0.0,-0.7849,-0.8318,-0.8734,-0.9068,-0.944,-0.9772,-1.013,-1.0435,-1.0569,-1.0569,-1.056,-1.0597,-1.0632,-1.1086,-1.1322,-1.137,-1.137,-1.1499,-1.1763,-1.2186,-1.2406,-1.2406,-1.2619,-1.2705,-1.2705,-1.2705,-1.2705,-1.2705,-1.3137,-1.3343,-1.3353,-1.3657,-1.3608,-1.316,-1.3194,-1.3095,-1.2847,0.0,0.0,0.0,0.0,0.0,0.0,0.0,0.0,0.0,0.0,0.0,0.0,0.0,0.0,0.0,-1.0405,0.0,-1.1416,-1.1642,0.0,0.0,0.0,-1.2856,-1.3805,-1.3971,-1.4456,-1.5656,0.0,0.0,-1.7257,-1.7396,-1.7774,-1.8727,-1.9065,-1.9332,-1.9635,-1.9908,-2.0189,-2.0529,-2.0771,-2.0925,-2.0996,-2.1167,-2.1444,-2.1759,-2.1685,-2.1638,-2.1822,-2.17,-2.1662,-2.1822,-2.1924,-2.1908,-2.1924,-2.1908,-2.1985,-2.2244,-2.2798,-2.3266,-2.3345,-2.3718,-2.4053,-0.6387,-0.6434,-0.6327,-0.6369,-0.6396,-0.6396,-0.6515,-0.6684,-0.664,-0.6872,-0.7221,-0.7342,-0.7485,-0.7789,-0.8057,-0.812,-0.8134,-0.853,-0.8754,-0.8885,-0.9298,-0.9578,-0.9654,-0.9999,-1.0142,-1.0142,-1.0309,-1.0503,-1.0678,-1.1094,-1.1462,-1.1823,-1.202,-1.2186,-1.2229,-1.2491,-1.2619,-1.2619,-1.2662,-1.2705,-1.2705,-1.2705,-1.2705,-1.2705,-1.3009,-1.3085,-1.2879,-1.3105,-1.2957,-1.2473,-1.26,-1.253,-1.2238,-1.2378,0.0,0.0,0.0,0.0,0.0,0.0,0.0,0.0,0.0,-1.0186,-1.0147,0.0,-1.0541,0.0,-1.1135,-1.1589,-1.1838,-1.2068,0.0,0.0,-1.3028,-1.3504,-1.4108,-1.4571,-1.5048,-1.5724,-1.6163,-1.666,-1.7305,-1.7582,-1.7901,-1.8367,-1.8702,-1.9088,-1.9558,-1.991,-2.0292,-2.0712,-2.0806,-2.0925,-2.0925,-2.0988,-2.1084,-2.1155,-2.1111,-2.1103,-2.1171,-2.1103,-2.1103,-2.1163,-2.1171,-2.1163,-2.1187,-2.1171,-2.1179,-2.1307,-2.2156,-2.2913,-2.2905,-2.3277,-2.3686,-0.6387,-0.6387,-0.6387,-0.6457,-0.6506,-0.641,-0.6509,-0.6697,-0.6716,-0.6951,-0.7467,-0.7769,-0.8068,-0.8284,-0.8534,-0.8567,-0.8504,-0.8685,-0.8861,-0.8997,-0.9146,-0.9331,-0.9553,-0.9745,-0.9859,-1.0038,-1.0337,-1.0554,-1.0727,-1.1295,-1.1725,-1.2,-1.2369,-1.2491,-1.2406,-1.2613,-1.2705,-1.2705,-1.2705,-1.2705,-1.2705,-1.2705,-1.2705,-1.2705,-1.2849,-1.2845,-1.2696,-1.2782,-1.2597,-1.2106,-1.2261,-1.2164,-1.1763,-1.1935,-1.1929,0.0,0.0,0.0,0.0,0.0,0.0,0.0,0.0,0.0,0.0,0.0,-1.1279,-1.1598,-1.186,-1.2089,-1.2277,-1.2448,-1.2641,-1.2921,-1.3363,-1.3896,-1.444,-1.5046,-1.5601,-1.6116,-1.6541,-1.6935,-1.7296,-1.7501,-1.7669,-1.8004,-1.8307,-1.8706,-1.9116,-1.9564,-1.9992,-2.0401,-2.0585,-2.075,-2.0893,-2.0925,-2.0925,-2.0925,-2.0925,-2.0925,-2.0925,-2.0925,-2.0925,-2.0925,-2.0925,-2.0925,-2.0925,-2.0925,-2.0925,-2.1024,-2.1634,-2.2243,-2.2319,-2.2731,-2.3167,-0.6387,-0.6384,-0.6418,-0.65,-0.66,-0.6426,-0.6472,-0.6665,-0.6777,-0.7085,-0.7583,-0.8324,-0.87,-0.8804,-0.8954,-0.8942,-0.8792,-0.8787,-0.8923,-0.9135,-0.8983,-0.913,-0.9519,-0.9559,-0.9738,-0.9951,-1.0424,-1.0684,-1.0733,-1.1516,-1.194,-1.1955,-1.2359,-1.2468,-1.2311,-1.2439,-1.2535,-1.2571,-1.2571,-1.2596,-1.2566,-1.2596,-1.2638,-1.2596,-1.2629,-1.2618,-1.255,-1.2481,-1.2275,-1.1812,-1.1992,-1.1866,-1.1384,-1.1521,-1.1558,0.0,-1.1335,0.0,0.0,0.0,0.0,0.0,0.0,0.0,0.0,-1.1496,-1.2002,-1.2388,-1.2448,-1.2491,-1.2705,-1.2705,-1.2813,-1.3135,-1.355,-1.4068,-1.4647,-1.5311,-1.5961,-1.6479,-1.6803,-1.7066,-1.7246,-1.7333,-1.7434,-1.7734,-1.8053,-1.8419,-1.8667,-1.9154,-1.9626,-1.9925,-2.0171,-2.0432,-2.0734,-2.0837,-2.0853,-2.0901,-2.0925,-2.0925,-2.0925,-2.0925,-2.0925,-2.0925,-2.0925,-2.0925,-2.0925,-2.0925,-2.0925,-2.0925,-2.1307,-2.1681,-2.1783,-2.2232,-2.2644,-0.6387,-0.6426,-0.653,-0.6574,-0.6583,-0.657,-0.6727,-0.7102,-0.7015,-0.7301,-0.7815,-0.8164,-0.8412,-0.8665,-0.8698,-0.8649,-0.8657,-0.8617,-0.8661,-0.8701,-0.8844,-0.8955,-0.9043,-0.9432,-0.9646,-0.9689,-1.0168,-1.0467,-1.0733,-1.1203,-1.1534,-1.1682,-1.1807,-1.1828,-1.1758,0.0,0.0,0.0,-1.2052,-1.204,-1.1805,-1.2194,-1.2288,-1.2083,-1.2269,0.0,-1.1742,-1.1708,-1.1557,-1.1289,-1.1271,0.0,0.0,0.0,0.0,0.0,0.0,0.0,0.0,0.0,0.0,0.0,-1.1256,-1.1429,-1.1483,-1.2123,-1.2565,-1.2656,-1.2662,-1.2662,-1.2705,-1.2705,-1.2899,-1.338,-1.3504,-1.3862,-1.4553,-1.5114,-1.5663,-1.6218,-1.6714,-1.7066,-1.7271,-1.7481,-1.7621,-1.7729,-1.8109,-1.8458,-1.8535,-1.9087,-1.9585,-1.9886,-1.9989,-2.0098,-2.044,-2.0488,-2.0591,-2.0829,-2.0925,-2.0901,-2.0901,-2.0909,-2.0925,-2.0925,-2.0925,-2.0925,-2.0925,-2.0925,-2.0925,-2.0925,-2.1173,-2.1428,-2.1674,-2.2182,-2.2695,-0.6451,0.0,-0.658,-0.6675,0.0,-0.6879,-0.7093,-0.7321,-0.7156,-0.7396,-0.8072,-0.8292,-0.8476,-0.8616,-0.8616,-0.8616,-0.8616,-0.8616,-0.8616,-0.8612,-0.8696,-0.8734,-0.8767,-0.9108,-0.9269,-0.931,-0.9766,-1.0149,-1.0359,-1.0779,-1.1095,-1.1308,-1.1426,-1.145,-1.1289,-1.1082,-1.1138,-1.1513,-1.1712,-1.1729,-1.1617,-1.1925,-1.2059,-1.1886,0.0,0.0,0.0,0.0,0.0,0.0,0.0,0.0,0.0,0.0,0.0,-1.1117,-1.1117,-1.1117,-1.1117,-1.1117,-1.1117,-1.1117,-1.1333,-1.1618,-1.1921,-1.2278,-1.2566,-1.2687,-1.2705,-1.2705,-1.2705,-1.2705,-1.2851,-1.3244,-1.3505,-1.3868,-1.4382,-1.508,-1.5624,-1.591,-1.6399,-1.6779,-1.7077,-1.7291,-1.7596,-1.7878,-1.8241,-1.852,-1.8636,-1.8942,-1.9265,-1.9574,-1.9806,-1.9972,-2.0083,-2.0188,-2.0178,-2.0361,-2.0408,-2.048,-2.0639,-2.0655,-2.071,-2.0869,-2.0925,-2.0925,-2.0925,-2.0925,-2.0925,-2.0917,-2.1113,-2.1318,-2.1522,-2.2105,-2.2628,-0.6448,-0.6597,-0.6599,-0.675,-0.7008,-0.7255,-0.7441,-0.7635,0.0,0.0,0.0,-0.8476,-0.8616,-0.8616,-0.8616,-0.8616,-0.8616,-0.8616,-0.8592,-0.8563,-0.8563,-0.8548,-0.8489,-0.8695,-0.8868,-0.8964,-0.9368,-0.9699,-0.9948,-1.04,-1.0657,-1.086,-1.1021,-1.1038,-1.0794,-1.0594,-1.0668,-1.1067,-1.1352,-1.1472,-1.1431,-1.1671,-1.179,-1.1781,-1.1579,-1.1471,-1.1417,-1.1232,-1.1087,-1.1045,-1.1045,-1.1021,-1.0979,-1.1015,-1.1039,-1.1039,-1.1087,-1.1117,-1.1117,-1.1117,-1.1117,-1.1117,-1.1285,-1.1621,-1.2103,-1.2216,-1.2355,-1.2608,-1.2638,-1.265,-1.2741,-1.2747,-1.2881,-1.3185,-1.3552,-1.3865,-1.4195,-1.5004,-1.5588,-1.5676,-1.6087,-1.6514,-1.6771,-1.7003,-1.7349,-1.7911,-1.821,-1.8511,-1.8727,-1.8813,-1.8932,-1.9225,-1.9495,-1.9718,-1.9813,-1.9829,-1.9845,-1.9957,-1.9949,-2.002,-2.0259,-2.0297,-2.0416,-2.0631,-2.0734,-2.071,-2.0726,-2.0686,-2.0734,-2.0734,-2.0886,-2.1081,-2.119,-2.1736,-2.2231,-0.6425,-0.6583,-0.6602,-0.6765,-0.7002,-0.7327,-0.7701,-0.8113,-0.8069,-0.8113,-0.8204,-0.8476,-0.8616,-0.8616,-0.8616,-0.8616,-0.8616,-0.8616,-0.8483,0.0,-0.8371,-0.8231,-0.8094,-0.835,-0.8585,-0.8764,-0.8964,-0.9327,-0.9735,-0.9984,-1.0215,-1.0387,-1.0415,-1.0312,-1.0078,-1.0019,-1.0095,-1.0367,-1.0772,-1.0888,-1.0671,-1.123,-1.1429,-1.125,-1.1387,-1.1375,-1.1178,-1.1129,-1.1003,-1.0785,-1.0737,-1.0641,-1.043,-1.0659,-1.0737,-1.0749,-1.0948,-1.1117,-1.1111,-1.1117,-1.1117,-1.1117,-1.1148,-1.1266,-1.1573,-1.1808,-1.2083,-1.2295,-1.2367,-1.2547,-1.2972,-1.3033,-1.3148,-1.3506,-1.3678,-1.3796,-1.4064,-1.4783,-1.5266,-1.5266,-1.5936,-1.6352,-1.6463,-1.6677,-1.7011,-1.756,-1.7924,-1.8237,-1.8664,-1.8781,-1.8797,-1.8845,-1.8939,-1.9098,-1.936,-1.9447,-1.9582,-1.9869,-1.9861,-1.9861,-1.9965,-1.994,-1.9971,-2.0068,-2.0083,-2.0116,-2.0059,-2.0019,-2.0124,-2.014,-2.0197,-2.0222,-2.0459,-2.0835,-2.1254,-0.6336,-0.6441,-0.655,-0.6733,-0.6934,-0.7487,-0.7988,-0.8432,-0.8432,-0.8432,-0.8432,-0.8568,-0.8616,-0.8616,-0.8616,-0.8616,-0.8604,-0.8506,-0.8416,-0.8288,-0.8182,-0.8044,-0.7926,-0.8124,-0.8271,-0.8414,-0.8558,-0.8874,-0.9311,-0.9434,-0.9574,-0.9743,-0.9858,-0.992,-0.9889,-0.9884,-0.9954,-1.0035,-1.0486,-1.0676,-1.0674,-1.1081,-1.12,-1.1117,-1.1111,-1.1002,-1.0906,-1.0725,-1.0593,-1.0478,-1.0478,-1.0418,-1.0304,-1.0412,-1.0472,-1.0478,-1.0755,-1.09,-1.09,-1.1033,-1.1117,-1.1117,-1.1117,-1.1166,-1.1248,-1.1513,-1.1817,-1.2071,-1.2176,-1.2306,-1.2605,-1.2694,-1.2905,-1.324,-1.337,-1.3592,-1.3833,-1.439,-1.4731,-1.4787,-1.5191,-1.5605,-1.5922,-1.6162,-1.6505,-1.7077,-1.749,-1.7978,-1.8542,-1.8627,-1.8673,-1.8773,-1.8781,-1.8899,-1.9058,-1.9074,-1.9145,-1.9288,-1.9304,-1.9383,-1.9526,-1.9478,-1.9485,-1.9812,-1.9901,-1.9909,-1.9893,-1.9909,-1.9909,-1.9909,-1.9909,-1.9965,-2.0079,-2.0241,-2.0525,-0.6267,-0.6322,-0.6424,-0.6667,-0.7013,-0.7632,-0.8168,-0.8568,-0.8616,-0.8588,-0.8555,-0.8592,-0.8616,-0.8612,-0.8571,-0.8503,-0.8522,-0.8312,-0.8207,-0.8154,-0.802,-0.7906,-0.783,-0.7971,-0.8052,-0.8192,-0.8331,-0.8556,-0.8908,-0.8989,-0.9099,-0.9284,-0.9435,-0.962,-0.9841,-0.9793,-0.9804,-0.9916,-1.0196,-1.0456,-1.065,-1.0873,-1.096,-1.0882,-1.0707,-1.0599,-1.0587,-1.04,-1.0268,-1.0214,-1.0208,-1.0178,-1.013,-1.0178,-1.0208,-1.0232,-1.0448,-1.0635,-1.0647,-1.0822,-1.096,-1.0984,-1.099,-1.1051,-1.1117,-1.1273,-1.1513,-1.1781,-1.1994,-1.2178,-1.2332,-1.2504,-1.2684,-1.2902,-1.3078,-1.3254,-1.349,-1.3876,-1.4169,-1.4252,-1.4447,-1.4846,-1.5248,-1.5568,-1.5999,-1.6629,-1.7174,-1.7681,-1.8179,-1.8272,-1.8411,-1.8681,-1.8781,-1.8789,-1.8781,-1.8797,-1.8805,-1.8781,-1.8805,-1.8994,-1.913,-1.8973,-1.8981,-1.9463,-1.959,-1.9566,-1.9654,-1.9654,-1.963,-1.9558,-1.9542,-1.963,-1.9614,-1.9622,-1.987,-0.6066,-0.6259,-0.6152,-0.6669,-0.7404,-0.7764,-0.812,-0.8568,-0.8612,-0.851,-0.8349,-0.8535,-0.86,-0.8592,-0.8385,-0.8316,-0.83,-0.8126,-0.7963,-0.7869,-0.7833,-0.7805,-0.7807,-0.7833,-0.8009,-0.8327,-0.8403,-0.8518,-0.8746,-0.8908,-0.9094,-0.9284,-0.9322,-0.9425,-0.9593,-0.9421,-0.9542,-0.9896,-0.9858,-0.9959,-1.017,-1.0538,-1.0611,-1.037,-1.0346,-1.0334,-1.0328,-1.0304,-1.0184,-0.9961,-0.9943,-0.9835,-0.9648,-0.9811,-0.9943,-0.9949,-1.0184,-1.0334,-1.0334,-1.0346,-1.0485,-1.0689,-1.0755,-1.0821,-1.1069,-1.1129,-1.1268,-1.1498,-1.1725,-1.2012,-1.2493,-1.2698,-1.2745,-1.2811,-1.285,-1.2986,-1.3024,-1.3244,-1.3491,-1.3747,-1.407,-1.4454,-1.4544,-1.4909,-1.5487,-1.6223,-1.6716,-1.7195,-1.762,-1.772,-1.7888,-1.8357,-1.8635,-1.8758,-1.8765,-1.8781,-1.8781,-1.8781,-1.8781,-1.8829,-1.8876,-1.8876,-1.8868,-1.9027,-1.901,-1.9026,-1.8956,-1.8931,-1.897,-1.9074,-1.905,-1.8962,-1.8931,-1.8986,-1.9248,-0.5496,-0.557,-0.5788,-0.6387,-0.7228,-0.7363,-0.7804,-0.8328,-0.8233,-0.8232,-0.8288,-0.826,-0.8239,-0.8231,-0.8158,-0.8126,-0.8113,-0.7943,-0.7905,-0.7947,-0.7851,-0.7871,-0.7961,-0.7991,-0.814,-0.8403,-0.8403,-0.8518,-0.8665,-0.8784,-0.8937,-0.9079,-0.9008,-0.9045,-0.9215,-0.9155,-0.9219,-0.9362,-0.9517,-0.9655,-0.9754,-1.0201,-1.0406,-1.0292,-1.0142,-1.0063,-1.0045,-0.9919,-0.9781,-0.9684,-0.9672,-0.9598,-0.9522,-0.9618,-0.9672,-0.969,-0.9919,-1.0136,-1.0321,-1.0333,-1.034,-1.0448,-1.0454,-1.0569,-1.0846,-1.0876,-1.0991,-1.1226,-1.1438,-1.1714,-1.2012,-1.2145,-1.2215,-1.2343,-1.2318,-1.2322,-1.2338,-1.2468,-1.2628,-1.2933,-1.3185,-1.3554,-1.3979,-1.4489,-1.5134,-1.5747,-1.6117,-1.6432,-1.6973,-1.7138,-1.7259,-1.7596,-1.7765,-1.8124,-1.8569,-1.8781,-1.8765,-1.8773,-1.8781,-1.8781,-1.8796,-1.8781,-1.8781,-1.8765,-1.8734,-1.8734,-1.8813,-1.8781,-1.8781,-1.875,-1.8773,-1.8781,-1.8781,-1.8781,-1.8994,-0.5082,-0.5057,-0.5497,-0.6121,-0.6833,-0.7051,-0.7423,-0.7901,-0.7873,-0.7901,-0.8,-0.7914,-0.7829,-0.7878,-0.7918,-0.7943,-0.7918,-0.7844,-0.7884,-0.7981,-0.7897,-0.7991,-0.8178,-0.8178,-0.8289,-0.8441,-0.8479,-0.8551,-0.8703,-0.8703,-0.8761,-0.8807,-0.8699,-0.8697,-0.8799,-0.8816,-0.8842,-0.8906,-0.9169,-0.9282,-0.9309,-0.9738,-1.0042,-1.0063,-0.9901,-0.9799,-0.9793,-0.958,-0.9478,-0.9478,-0.9478,-0.9478,-0.9478,-0.9478,-0.9478,-0.9458,-0.9619,-0.981,-0.9928,-1.0008,-1.0043,-1.0109,-1.0149,-1.0298,-1.0527,-1.0641,-1.0761,-1.0972,-1.1218,-1.1422,-1.1595,-1.1669,-1.1744,-1.1763,-1.1677,-1.1649,-1.156,-1.1618,-1.1788,-1.1998,-1.2329,-1.2796,-1.349,-1.4159,-1.4747,-1.5142,-1.5333,-1.5584,-1.6271,-1.647,-1.6573,-1.6947,-1.7024,-1.7427,-1.8234,-1.8358,-1.8458,-1.8533,-1.8486,-1.847,-1.8541,-1.8533,-1.8526,-1.8335,-1.8486,-1.851,-1.8398,-1.8462,-1.8549,-1.8541,-1.8541,-1.8496,-1.8446,-1.8518,-1.8518,-0.5013,-0.5053,-0.55,-0.5855,-0.6213,-0.6782,-0.7189,-0.7372,-0.751,-0.7545,-0.7456,-0.7445,-0.747,-0.7541,-0.7703,-0.7808,-0.7788,-0.7788,-0.7795,-0.7868,-0.8,-0.8178,-0.8365,-0.8403,-0.8518,-0.8627,-0.8623,-0.8618,-0.8651,-0.8694,-0.8604,-0.8425,-0.8414,-0.8396,-0.8427,-0.8388,-0.8448,-0.8591,-0.8755,-0.8847,-0.8895,-0.9192,-0.9415,-0.953,-0.9514,-0.9552,-0.9546,-0.9496,-0.9478,-0.9478,-0.9478,-0.9478,-0.9478,-0.9478,-0.9446,-0.9344,-0.9318,-0.9239,-0.9171,-0.9318,-0.9477,-0.971,-0.9858,-1.0033,-1.0286,-1.0485,-1.0629,-1.0701,-1.093,-1.1162,-1.1341,-1.1508,-1.1484,-1.1223,-1.1123,-1.0991,-1.0695,-1.0812,-1.0959,-1.1152,-1.1653,-1.2367,-1.3286,-1.3828,-1.4195,-1.4439,-1.465,-1.4972,-1.549,-1.5691,-1.5966,-1.6454,-1.6697,-1.6947,-1.7448,-1.7744,-1.7777,-1.7881,-1.8057,-1.7898,-1.7878,-1.7862,-1.7842,-1.7874,-1.7962,-1.7962,-1.7902,-1.7894,-1.7914,-1.7946,-1.7941,-1.7933,-1.8052,-1.7906,-1.7894,-0.4297,-0.4565,-0.4924,-0.5369,-0.5849,-0.604,-0.6412,-0.6997,-0.6919,-0.7023,-0.7187,-0.712,-0.7153,-0.73,-0.7363,-0.7469,-0.7577,-0.7628,-0.7757,-0.7991,-0.8063,-0.8289,-0.8589,-0.8589,-0.8627,-0.8665,-0.8589,-0.8368,-0.8174,-0.8249,-0.8222,-0.8059,-0.8026,-0.8031,-0.8005,-0.7956,-0.8014,-0.8197,-0.8343,-0.8538,-0.877,-0.8926,-0.9055,-0.9183,-0.9382,-0.9478,-0.9478,-0.9478,-0.9478,-0.9478,-0.9478,-0.9478,-0.9478,-0.9408,-0.9274,-0.9113,-0.9113,-0.9081,-0.9017,-0.9172,-0.9341,-0.9435,-0.9557,-0.9769,-0.9997,-1.0136,-1.025,-1.0412,-1.0509,-1.0629,-1.0748,-1.0972,-1.1111,-1.1031,-1.0625,-1.0321,-1.0133,-1.0018,-0.9993,-1.0414,-1.1135,-1.1998,-1.2586,-1.3131,-1.3583,-1.4126,-1.4286,-1.4537,-1.4867,-1.5036,-1.5177,-1.5376,-1.5454,-1.5625,-1.605,-1.7046,-1.7541,-1.7672,-1.7723,-1.7735,-1.768,-1.753,-1.7553,-1.7565,-1.7601,-1.7652,-1.7636,-1.7636,-1.7636,-1.7616,-1.7632,-1.7455,-1.762,-1.742,-1.7364,-0.381,-0.4166,-0.448,-0.4858,-0.5303,-0.5453,-0.58,-0.635,-0.6363,-0.657,-0.6785,-0.6839,-0.6907,-0.7065,-0.7103,-0.7215,-0.7411,-0.7526,-0.7757,-0.7991,-0.814,-0.8331,-0.8551,-0.8665,-0.8665,-0.8575,-0.8326,-0.8038,-0.7849,-0.7897,-0.7839,-0.7631,-0.7672,-0.7677,-0.7635,-0.7668,-0.7797,-0.7922,-0.8047,-0.8274,-0.8511,-0.8571,-0.87,-0.8861,-0.913,-0.935,-0.9446,-0.944,-0.9408,-0.944,-0.944,-0.9414,-0.9344,-0.9242,-0.9113,-0.8952,-0.8926,-0.8894,-0.8856,-0.9017,-0.9177,-0.921,-0.935,-0.953,-0.9736,-0.9826,-0.9997,-1.0136,-1.0233,-1.0283,-1.029,-1.0315,-1.0446,-1.0579,-1.0212,-0.9809,-0.962,-0.9435,-0.9548,-1.0011,-1.0649,-1.1381,-1.1968,-1.2472,-1.294,-1.3498,-1.3732,-1.4042,-1.4282,-1.4421,-1.4559,-1.4671,-1.4818,-1.5007,-1.5371,-1.6179,-1.68,-1.6986,-1.7235,-1.7325,-1.7364,-1.7247,-1.7231,-1.7208,-1.7293,-1.7394,-1.7445,-1.7402,-1.7368,-1.7375,-1.7094,-1.6823,-1.6873,-1.6877,-1.6783,-0.3719,-0.3896,-0.4166,-0.4372,-0.4645,-0.5137,-0.5362,-0.5433,-0.5913,-0.6152,-0.633,-0.6486,-0.6637,-0.683,-0.6868,-0.698,-0.7219,-0.7569,-0.7727,-0.7838,-0.8178,-0.8365,-0.8403,-0.8551,-0.8518,-0.8351,-0.7979,-0.7775,-0.7735,-0.7605,-0.746,-0.7365,-0.7428,-0.7395,-0.7213,-0.7475,-0.7666,-0.7731,-0.7889,-0.7982,-0.8014,-0.8177,-0.8339,-0.8511,-0.8673,-0.8926,-0.9236,-0.9268,-0.9306,-0.9306,-0.9274,-0.921,-0.9055,-0.9017,-0.8958,-0.8797,-0.8802,-0.8705,-0.8576,-0.8743,-0.8894,-0.9017,-0.921,-0.9382,-0.9518,-0.9712,-0.9844,-0.9886,-0.9985,-1.006,-0.9968,-0.9653,-0.9564,-0.982,-0.9836,-0.954,-0.9241,-0.9213,-0.9479,-0.9886,-1.0227,-1.0611,-1.1204,-1.1812,-1.2255,-1.2546,-1.3026,-1.3514,-1.3675,-1.3831,-1.4159,-1.4455,-1.4455,-1.442,-1.4871,-1.5325,-1.5782,-1.6219,-1.6518,-1.6721,-1.6867,-1.6834,-1.6907,-1.6941,-1.6907,-1.7048,-1.7022,-1.6972,-1.6784,-1.6677,-1.6433,-1.6297,-1.6274,-1.6285,-1.6202,-0.3333,-0.3423,-0.3773,-0.407,-0.4242,-0.4511,-0.4803,-0.5178,-0.534,-0.5514,-0.5799,-0.5867,-0.6103,-0.6412,-0.649,-0.6679,-0.7022,-0.7296,-0.7535,-0.7804,-0.7953,-0.8063,-0.8178,-0.8255,-0.8174,-0.7957,-0.7717,-0.744,-0.7269,-0.7171,-0.7052,-0.6931,-0.7005,-0.7041,-0.6983,-0.711,-0.7237,-0.7563,-0.7624,-0.7754,-0.7982,-0.8052,-0.8079,-0.8149,-0.8214,-0.8344,-0.8565,-0.8882,-0.9081,-0.9081,-0.9081,-0.9017,-0.8894,-0.8867,-0.877,-0.8608,-0.8576,-0.8582,-0.8549,-0.8705,-0.8835,-0.8926,-0.9113,-0.93,-0.937,-0.9524,-0.9577,-0.95,-0.9545,-0.9513,-0.9304,-0.9145,-0.9179,-0.9631,-0.9311,-0.9117,-0.9016,-0.9061,-0.9204,-0.9479,-0.98,-1.0253,-1.0707,-1.1257,-1.1642,-1.1985,-1.2426,-1.2763,-1.3074,-1.322,-1.3313,-1.3628,-1.3675,-1.3878,-1.4217,-1.4559,-1.495,-1.5591,-1.6073,-1.6427,-1.6525,-1.6607,-1.6689,-1.6689,-1.6689,-1.6648,-1.6648,-1.6525,-1.6394,-1.6229,-1.6125,-1.6001,-1.5846,-1.5797,-1.5763,-0.2954,-0.3091,-0.3391,-0.3602,-0.3818,-0.4003,-0.4322,-0.4679,-0.4847,-0.5085,-0.5362,-0.5479,-0.5715,-0.5986,-0.6028,-0.6254,-0.6676,-0.6795,-0.715,-0.7573,-0.7765,-0.7876,-0.7991,-0.7991,-0.7867,-0.7668,-0.7462,-0.7173,-0.689,-0.6779,-0.6664,-0.6597,-0.6745,-0.6843,-0.6843,-0.6876,-0.704,-0.7232,-0.7297,-0.7368,-0.7531,-0.7596,-0.7661,-0.7787,-0.7824,-0.7912,-0.8144,-0.8468,-0.863,-0.8689,-0.8662,-0.8598,-0.8506,-0.8474,-0.8474,-0.8409,-0.8376,-0.8409,-0.8511,-0.8608,-0.8738,-0.8802,-0.899,-0.9145,-0.9177,-0.928,-0.9247,-0.921,-0.9066,-0.8923,-0.8766,-0.8533,-0.8643,-0.8947,-0.878,-0.8629,-0.8786,-0.8865,-0.898,-0.9223,-0.9483,-0.9888,-1.0286,-1.0643,-1.1047,-1.1477,-1.1825,-1.2173,-1.2485,-1.2739,-1.289,-1.3074,-1.3313,-1.3453,-1.355,-1.3845,-1.417,-1.494,-1.5683,-1.6121,-1.6435,-1.6607,-1.6689,-1.6689,-1.6689,-1.6607,-1.6566,-1.6409,-1.6245,-1.6072,-1.5858,-1.5707,-1.559,-1.5555,-1.5514,-0.2607,-0.294,-0.2983,-0.3106,-0.3325,-0.3682,-0.384,-0.3932,-0.4389,-0.4735,-0.4968,-0.5124,-0.5321,-0.5521,-0.5559,-0.5789,-0.6183,-0.6374,-0.6644,-0.7107,-0.7492,-0.7723,-0.7761,-0.7761,-0.7673,-0.7459,-0.717,-0.6914,-0.6721,-0.6538,-0.6387,-0.642,-0.6576,-0.6642,-0.6609,-0.6778,-0.6778,-0.6843,-0.6848,-0.6876,-0.6942,-0.6946,-0.7106,-0.7423,-0.7456,-0.7591,-0.7824,-0.7884,-0.8014,-0.8139,-0.8079,-0.8019,-0.8019,-0.7982,-0.8047,-0.8172,-0.8204,-0.8274,-0.8414,-0.8479,-0.8544,-0.8668,-0.8802,-0.8835,-0.899,-0.9049,-0.9017,-0.8958,-0.8732,-0.8517,-0.837,-0.8083,-0.7925,-0.7976,-0.8269,-0.8377,-0.84,-0.8575,-0.875,-0.8964,-0.915,-0.943,-0.99,-1.0208,-1.0515,-1.0834,-1.1239,-1.1708,-1.2018,-1.2318,-1.2654,-1.2829,-1.2934,-1.303,-1.3065,-1.3391,-1.371,-1.4145,-1.4986,-1.5612,-1.611,-1.6352,-1.6657,-1.6665,-1.6648,-1.6566,-1.6443,-1.6286,-1.6079,-1.5865,-1.5658,-1.5472,-1.5389,-1.5389,-1.5389,-0.2457,-0.2503,-0.2789,-0.2915,-0.2974,-0.3207,-0.3433,-0.3606,-0.3878,-0.4153,-0.4348,-0.454,-0.4735,-0.4935,-0.5087,-0.5321,-0.5631,-0.6064,-0.6338,-0.6567,-0.6949,-0.7292,-0.7522,-0.7557,-0.7466,-0.7282,-0.7061,-0.6894,-0.671,-0.6501,-0.6354,-0.6251,-0.6313,-0.628,-0.6152,-0.6185,-0.6251,-0.6346,-0.6383,-0.6511,-0.6712,-0.6741,-0.6843,-0.7007,-0.704,-0.7106,-0.7171,-0.7171,-0.74,-0.7787,-0.7722,-0.7689,-0.7731,-0.7764,-0.7824,-0.7982,-0.8047,-0.8079,-0.8149,-0.8242,-0.8306,-0.8371,-0.8603,-0.8808,-0.8835,-0.892,-0.8856,-0.8705,-0.8517,-0.8317,-0.8025,-0.7797,-0.7705,-0.7669,-0.7942,-0.8146,-0.8191,-0.8243,-0.8406,-0.8739,-0.8958,-0.9246,-0.9606,-1.0078,-1.0415,-1.0608,-1.0925,-1.1322,-1.1671,-1.1847,-1.2132,-1.2287,-1.2393,-1.2518,-1.2678,-1.2968,-1.3251,-1.346,-1.4108,-1.492,-1.544,-1.5912,-1.6315,-1.6602,-1.6591,-1.6533,-1.6409,-1.6245,-1.5989,-1.5699,-1.5541,-1.5389,-1.5389,-1.5389,-1.5347,-0.215,-0.2282,-0.2523,-0.2622,-0.2708,-0.2902,-0.3061,-0.3215,-0.3411,-0.3608,-0.3802,-0.3956,-0.419,-0.4467,-0.4582,-0.4851,-0.5201,-0.5553,-0.5944,-0.6374,-0.6753,-0.7061,-0.7314,-0.7347,-0.7281,-0.7106,-0.6932,-0.6745,-0.6578,-0.6394,-0.6288,-0.6214,-0.6115,-0.602,-0.5925,-0.5822,-0.5855,-0.602,-0.6017,-0.6079,-0.6346,-0.6383,-0.6445,-0.6548,-0.6613,-0.6613,-0.6679,-0.6646,-0.6843,-0.7237,-0.7302,-0.7269,-0.7372,-0.7433,-0.7563,-0.7754,-0.7824,-0.7889,-0.7987,-0.8079,-0.8112,-0.8144,-0.8376,-0.8441,-0.8479,-0.8538,-0.8474,-0.8312,-0.822,-0.8025,-0.7797,-0.7666,-0.7596,-0.7559,-0.7707,-0.7892,-0.7978,-0.8077,-0.8198,-0.8442,-0.8707,-0.8954,-0.9222,-0.9854,-1.0205,-1.0424,-1.0711,-1.1081,-1.1391,-1.1521,-1.1669,-1.1892,-1.2083,-1.2216,-1.2354,-1.2638,-1.2863,-1.303,-1.3447,-1.4227,-1.4872,-1.5436,-1.588,-1.6233,-1.6341,-1.6409,-1.6203,-1.6031,-1.5831,-1.5582,-1.5423,-1.5298,-1.5298,-1.5215,-1.5173,-0.1805,-0.2157,-0.2158,-0.2275,-0.2433,-0.263,-0.2669,-0.2747,-0.2904,-0.3098,-0.3253,-0.3368,-0.3604,-0.396,-0.4038,-0.4387,-0.4851,-0.5043,-0.5532,-0.6066,-0.6513,-0.6809,-0.6904,-0.7106,-0.7057,-0.694,-0.6761,-0.6577,-0.6418,-0.6255,-0.6181,-0.605,-0.5921,-0.5822,-0.569,-0.5587,-0.562,-0.5653,-0.5554,-0.5587,-0.5785,-0.5851,-0.5918,-0.6115,-0.6218,-0.6251,-0.6317,-0.628,-0.6383,-0.6782,-0.6782,-0.6819,-0.6848,-0.704,-0.7237,-0.7396,-0.7563,-0.7694,-0.7857,-0.7922,-0.7954,-0.7949,-0.7982,-0.7949,-0.8019,-0.8019,-0.7987,-0.7889,-0.7759,-0.7666,-0.7634,-0.7531,-0.7526,-0.7498,-0.7517,-0.7598,-0.7754,-0.7944,-0.8058,-0.8087,-0.8408,-0.8589,-0.8882,-0.9312,-0.9896,-1.0136,-1.0469,-1.0844,-1.1163,-1.1366,-1.1564,-1.1761,-1.1922,-1.2046,-1.2127,-1.2251,-1.2469,-1.2688,-1.3063,-1.3643,-1.4311,-1.4849,-1.5339,-1.5679,-1.5984,-1.6032,-1.5858,-1.5699,-1.5582,-1.5416,-1.5257,-1.5124,-1.5041,-1.495,-1.4908,-0.1532,-0.1767,-0.1886,-0.1963,-0.2043,-0.2043,-0.2082,-0.2121,-0.2316,-0.2431,-0.251,-0.2784,-0.2981,-0.3137,-0.3602,-0.3958,-0.4181,-0.4673,-0.5269,-0.5629,-0.5924,-0.6037,-0.6247,-0.6621,-0.678,-0.6631,-0.6674,-0.6515,-0.6287,-0.6148,-0.6046,-0.5749,-0.5591,-0.5422,-0.5289,-0.5126,-0.4997,-0.503,-0.4994,-0.509,-0.5256,-0.5322,-0.5451,-0.5683,-0.5851,-0.5954,-0.5991,-0.5987,-0.602,-0.609,-0.6119,-0.6222,-0.6449,-0.6585,-0.6749,-0.7007,-0.7199,-0.7335,-0.74,-0.7596,-0.7764,-0.7731,-0.7727,-0.7759,-0.7764,-0.7661,-0.7526,-0.7396,-0.733,-0.7335,-0.7335,-0.7461,-0.7461,-0.7461,-0.7461,-0.748,-0.7565,-0.7612,-0.7726,-0.7869,-0.8088,-0.8349,-0.8649,-0.9036,-0.9509,-0.9861,-1.0206,-1.0592,-1.09,-1.1163,-1.1378,-1.1582,-1.1694,-1.1818,-1.1929,-1.204,-1.2187,-1.2372,-1.2709,-1.2994,-1.3641,-1.4214,-1.4665,-1.5183,-1.5654,-1.5627,-1.5508,-1.5567,-1.5492,-1.5284,-1.5082,-1.4915,-1.4748,-1.4699,-1.4566,-0.11,-0.1297,-0.1375,-0.1493,-0.1612,-0.1612,-0.1612,-0.165,-0.1728,-0.1845,-0.1924,-0.2159,-0.2395,-0.2663,-0.3023,-0.3275,-0.3723,-0.4294,-0.4771,-0.5012,-0.5255,-0.5403,-0.5448,-0.5869,-0.6142,-0.6268,-0.6282,-0.6193,-0.6069,-0.5885,-0.5686,-0.5488,-0.5259,-0.5093,-0.4957,-0.4794,-0.4761,-0.4794,-0.4728,-0.4791,-0.4927,-0.496,-0.5024,-0.519,-0.5322,-0.5392,-0.5359,-0.5395,-0.5392,-0.5395,-0.5392,-0.5657,-0.6119,-0.6284,-0.6486,-0.6646,-0.6909,-0.704,-0.7138,-0.7204,-0.7302,-0.7339,-0.7339,-0.7339,-0.7302,-0.7232,-0.7204,-0.7106,-0.7077,-0.7077,-0.7073,-0.7138,-0.7199,-0.7204,-0.7204,-0.7232,-0.7265,-0.7396,-0.7522,-0.7669,-0.7798,-0.798,-0.8272,-0.8598,-0.8975,-0.9278,-0.9576,-0.9963,-1.0558,-1.0837,-1.1113,-1.1329,-1.1459,-1.1595,-1.1706,-1.1818,-1.1929,-1.2114,-1.2335,-1.2526,-1.2834,-1.3418,-1.4005,-1.4525,-1.5096,-1.5279,-1.5216,-1.5267,-1.5206,-1.497,-1.4768,-1.4573,-1.4398,-1.4203,-1.4126,-0.0629,-0.0825,-0.0825,-0.0943,-0.114,-0.114,-0.114,-0.114,-0.114,-0.1257,-0.1412,-0.1488,-0.1829,-0.2211,-0.2317,-0.2706,-0.3326,-0.3767,-0.413,-0.4303,-0.4585,-0.4692,-0.4752,-0.5005,-0.5352,-0.5881,-0.5877,-0.58,-0.5693,-0.5528,-0.5359,-0.5259,-0.496,-0.4827,-0.4761,-0.4628,-0.4595,-0.4664,-0.4595,-0.4595,-0.4697,-0.4731,-0.4764,-0.4827,-0.4894,-0.4894,-0.4927,-0.4894,-0.4827,-0.4794,-0.4794,-0.513,-0.5627,-0.6057,-0.6321,-0.635,-0.6646,-0.6811,-0.6876,-0.6909,-0.6946,-0.6876,-0.6848,-0.6815,-0.6811,-0.6745,-0.6716,-0.6749,-0.6749,-0.6848,-0.6843,-0.6942,-0.6942,-0.6913,-0.6913,-0.6913,-0.6942,-0.7199,-0.7344,-0.741,-0.7452,-0.756,-0.7712,-0.7951,-0.833,-0.8677,-0.8975,-0.939,-0.9988,-1.0472,-1.0692,-1.0905,-1.1033,-1.1174,-1.1298,-1.1372,-1.1521,-1.1744,-1.1929,-1.2077,-1.2231,-1.2628,-1.3222,-1.3941,-1.4413,-1.4631,-1.4735,-1.4751,-1.4662,-1.4525,-1.4213,-1.3871,-1.3732,-1.371,-1.3675,-0.0039,-0.0393,-0.0393,-0.0432,-0.0471,-0.0471,-0.0471,-0.0471,-0.0471,-0.0589,-0.0783,-0.0961,-0.1145,-0.1438,-0.1781,-0.2311,-0.2918,-0.3254,-0.344,-0.3602,-0.3832,-0.3921,-0.4058,-0.4178,-0.4403,-0.4721,-0.5063,-0.5259,-0.5256,-0.5156,-0.4994,-0.4897,-0.4694,-0.4592,-0.4528,-0.4464,-0.4364,-0.4434,-0.4398,-0.4398,-0.4431,-0.4434,-0.4498,-0.4595,-0.4697,-0.4764,-0.4764,-0.4797,-0.4794,-0.4794,-0.4794,-0.4864,-0.5063,-0.5395,-0.5756,-0.6119,-0.635,-0.6515,-0.6642,-0.6778,-0.6811,-0.6745,-0.6581,-0.6416,-0.635,-0.6218,-0.6222,-0.6222,-0.6383,-0.6548,-0.6741,-0.6745,-0.6848,-0.6881,-0.6811,-0.6811,-0.6848,-0.6909,-0.6942,-0.6942,-0.7007,-0.711,-0.7236,-0.7386,-0.7687,-0.8021,-0.8309,-0.8748,-0.9339,-0.9757,-1.0092,-1.0304,-1.0498,-1.0679,-1.0887,-1.0925,-1.1037,-1.1298,-1.1484,-1.1669,-1.1781,-1.1922,-1.2412,-1.3256,-1.3745,-1.3999,-1.4086,-1.4117,-1.3967,-1.3709,-1.3393,-1.3093,-1.3101,-1.3114,-1.3248,0.0629,0.0314,0.0314,0.0275,0.0196,0.0157,0.0157,0.0157,0.0157,0.0039,-0.0154,-0.0342,-0.0639,-0.0925,-0.1192,-0.1703,-0.2177,-0.2483,-0.2673,-0.2884,-0.308,-0.3271,-0.3393,-0.3527,-0.3627,-0.3794,-0.4095,-0.4492,-0.4655,-0.4558,-0.4492,-0.4395,-0.4261,-0.4192,-0.4192,-0.4161,-0.4131,-0.4167,-0.4233,-0.4303,-0.4303,-0.4303,-0.4364,-0.4431,-0.45,-0.4531,-0.4564,-0.4567,-0.4531,-0.4531,-0.4531,-0.4595,-0.4694,-0.4894,-0.5223,-0.5719,-0.602,-0.6156,-0.6247,-0.635,-0.635,-0.628,-0.6185,-0.6123,-0.6053,-0.5987,-0.5859,-0.5921,-0.5987,-0.6185,-0.6251,-0.635,-0.6383,-0.6383,-0.6383,-0.6383,-0.6383,-0.6416,-0.6416,-0.6449,-0.6642,-0.6708,-0.6749,-0.6918,-0.7106,-0.7339,-0.7631,-0.8112,-0.865,-0.9031,-0.9398,-0.9767,-0.9977,-1.0125,-1.0288,-1.0363,-1.0438,-1.0738,-1.1037,-1.1186,-1.1335,-1.1477,-1.1929,-1.264,-1.3006,-1.3138,-1.3366,-1.336,-1.3134,-1.2942,-1.2737,-1.2578,-1.2569,-1.2593,-1.2696,0.1335,0.1099,0.106,0.0943,0.0825,0.0781,0.0779,0.0779,0.0774,0.0612,0.0376,0.0224,-0.0074,-0.0469,-0.0739,-0.1064,-0.1446,-0.1685,-0.1957,-0.2161,-0.2461,-0.2656,-0.2824,-0.2958,-0.3094,-0.3157,-0.3224,-0.3424,-0.3923,-0.3925,-0.3894,-0.3894,-0.3794,-0.3792,-0.3825,-0.3925,-0.3961,-0.403,-0.4133,-0.4233,-0.4303,-0.4303,-0.4303,-0.4303,-0.4267,-0.4264,-0.4267,-0.4231,-0.42,-0.4197,-0.4197,-0.4264,-0.4461,-0.4528,-0.4761,-0.5193,-0.5591,-0.5793,-0.5921,-0.5921,-0.5987,-0.5885,-0.5822,-0.5789,-0.569,-0.5624,-0.5627,-0.5723,-0.5723,-0.5756,-0.5793,-0.5793,-0.5822,-0.5822,-0.5826,-0.5826,-0.5822,-0.5855,-0.5818,-0.5951,-0.621,-0.6313,-0.6317,-0.6416,-0.6576,-0.6773,-0.7023,-0.731,-0.7836,-0.8253,-0.8658,-0.9145,-0.9432,-0.9524,-0.9652,-0.976,-0.9873,-1.003,-1.0368,-1.0631,-1.085,-1.1031,-1.1494,-1.1871,-1.1853,-1.2037,-1.2311,-1.2608,-1.2433,-1.2323,-1.2184,-1.2041,-1.1955,-1.2029,-1.2147,0.196,0.1763,0.157,0.1493,0.1447,0.1419,0.1407,0.1366,0.1304,0.1102,0.0768,0.068,0.0461,0.0105,-0.0377,-0.0675,-0.0942,-0.1211,-0.1379,-0.1547,-0.1849,-0.2084,-0.2288,-0.2423,-0.2555,-0.2654,-0.2721,-0.2956,-0.3224,-0.3257,-0.3393,-0.3496,-0.3527,-0.3596,-0.3692,-0.3727,-0.3861,-0.3961,-0.403,-0.4131,-0.4267,-0.4267,-0.4267,-0.4233,-0.4133,-0.4064,-0.403,-0.3961,-0.3928,-0.3894,-0.3894,-0.3928,-0.4061,-0.4233,-0.4431,-0.4761,-0.516,-0.5594,-0.576,-0.576,-0.5723,-0.5587,-0.5521,-0.5359,-0.5259,-0.5126,-0.5093,-0.519,-0.5219,-0.5289,-0.5392,-0.5425,-0.5458,-0.5458,-0.5462,-0.5462,-0.5458,-0.5428,-0.5392,-0.5355,-0.5587,-0.5752,-0.5822,-0.5921,-0.6053,-0.6251,-0.6453,-0.6738,-0.7059,-0.7499,-0.7943,-0.8428,-0.8667,-0.875,-0.8932,-0.9041,-0.9236,-0.9354,-0.9728,-1.0067,-1.0293,-1.0475,-1.0588,-1.0869,-1.0901,-1.1224,-1.1692,-1.1914,-1.1788,-1.1693,-1.1597,-1.1417,-1.1239,-1.1391,-1.1609,0.2745,0.2295,0.2183,0.207,0.1955,0.1897,0.1889,0.1884,0.1759,0.1626,0.1391,0.1094,0.0765,0.0377,-0.0034,-0.0236,-0.0404,-0.0707,-0.0909,-0.1042,-0.1311,-0.1547,-0.1681,-0.1849,-0.2017,-0.2084,-0.2084,-0.2084,-0.2386,-0.2721,-0.2989,-0.3025,-0.3058,-0.3125,-0.3391,-0.346,-0.3563,-0.3696,-0.383,-0.3961,-0.4064,-0.4064,-0.403,-0.4097,-0.3961,-0.3894,-0.3861,-0.3861,-0.3825,-0.3825,-0.3825,-0.3825,-0.3894,-0.3995,-0.4095,-0.4261,-0.4564,-0.4897,-0.5196,-0.5292,-0.5259,-0.519,-0.5093,-0.503,-0.4927,-0.4794,-0.4694,-0.4791,-0.4824,-0.4858,-0.4957,-0.4994,-0.5027,-0.506,-0.503,-0.5027,-0.5027,-0.5063,-0.503,-0.496,-0.4927,-0.5126,-0.5292,-0.5392,-0.5557,-0.5756,-0.5951,-0.6222,-0.6514,-0.6857,-0.7281,-0.7702,-0.7838,-0.7897,-0.8116,-0.8289,-0.8479,-0.867,-0.9079,-0.942,-0.9695,-0.9884,-1.0067,-1.0288,-1.0547,-1.088,-1.1229,-1.1298,-1.1274,-1.1121,-1.1005,-1.0925,-1.0887,-1.0804,-1.1006,0.3424,0.2894,0.2823,0.2691,0.2507,0.2458,0.245,0.2377,0.2325,0.2156,0.1847,0.1385,0.0959,0.0643,0.0371,0.0169,0.0101,-0.0169,-0.0371,-0.0572,-0.0774,-0.0975,-0.1143,-0.1311,-0.1412,-0.1445,-0.1546,-0.158,-0.1747,-0.2016,-0.2351,-0.2552,-0.2589,-0.2721,-0.2922,-0.3125,-0.3293,-0.3531,-0.3727,-0.3861,-0.3928,-0.3861,-0.3894,-0.3894,-0.3825,-0.3692,-0.3658,-0.3591,-0.3591,-0.3491,-0.3458,-0.3458,-0.3558,-0.356,-0.3694,-0.3861,-0.4064,-0.4231,-0.4561,-0.4728,-0.4761,-0.4761,-0.4697,-0.4664,-0.4564,-0.4495,-0.4392,-0.4392,-0.4359,-0.4392,-0.4425,-0.4495,-0.4495,-0.4495,-0.4528,-0.4528,-0.4561,-0.4561,-0.4561,-0.4528,-0.4528,-0.4595,-0.4728,-0.4827,-0.503,-0.5229,-0.5458,-0.5719,-0.6007,-0.6326,-0.6633,-0.7001,-0.7147,-0.7227,-0.7346,-0.7533,-0.7753,-0.8025,-0.8437,-0.878,-0.9013,-0.9392,-0.969,-0.9916,-1.0105,-1.0246,-1.042,-1.0596,-1.0743,-1.0738,-1.0738,-1.0663,-1.0588,-1.0513,-1.0519,0.3881,0.3695,0.3451,0.3334,0.3291,0.3262,0.3089,0.2943,0.291,0.258,0.2103,0.1586,0.125,0.1009,0.0808,0.064,0.0472,0.0304,0.0236,0.0101,-0.0135,-0.037,-0.0538,-0.0739,-0.0907,-0.1076,-0.1042,-0.1143,-0.1277,-0.1312,-0.1748,-0.2153,-0.2186,-0.242,-0.2688,-0.2889,-0.3125,-0.3362,-0.3594,-0.3692,-0.3758,-0.3758,-0.3758,-0.3727,-0.3596,-0.3429,-0.3228,-0.3125,-0.3023,-0.2887,-0.2855,-0.2922,-0.3056,-0.3056,-0.3192,-0.3362,-0.3493,-0.3661,-0.3859,-0.4328,-0.4697,-0.4697,-0.4531,-0.4267,-0.4131,-0.3961,-0.3859,-0.3892,-0.3859,-0.3889,-0.3859,-0.3894,-0.4061,-0.4095,-0.4128,-0.4128,-0.4128,-0.4059,-0.4061,-0.4059,-0.4128,-0.4261,-0.4364,-0.4531,-0.4694,-0.493,-0.5163,-0.5425,-0.5622,-0.5892,-0.6048,-0.63,-0.6521,-0.6596,-0.669,-0.6874,-0.7103,-0.7373,-0.7748,-0.8059,-0.8336,-0.8708,-0.916,-0.9316,-0.9468,-0.9506,-0.9652,-0.9911,-1.0212,-1.0438,-1.0475,-1.0438,-1.04,-1.0325,-1.0363,0.4464,0.4406,0.4293,0.4015,0.3634,0.3596,0.3481,0.3309,0.3175,0.279,0.2188,0.1849,0.158,0.1379,0.1211,0.1077,0.0976,0.0875,0.0808,0.0706,0.0505,0.0303,0.0101,-0.0067,-0.0235,-0.0403,-0.0437,-0.0538,-0.0673,-0.0707,-0.0942,-0.1278,-0.1648,-0.2052,-0.2353,-0.2654,-0.2889,-0.3023,-0.3192,-0.3324,-0.3426,-0.3426,-0.3426,-0.3426,-0.3293,-0.3092,-0.2889,-0.2725,-0.2624,-0.2522,-0.2421,-0.2455,-0.2487,-0.2487,-0.2555,-0.2723,-0.2857,-0.3023,-0.3222,-0.3758,-0.4161,-0.4192,-0.4061,-0.3894,-0.3696,-0.3527,-0.3391,-0.3357,-0.3391,-0.3424,-0.346,-0.3661,-0.3859,-0.3825,-0.3792,-0.3725,-0.3725,-0.3692,-0.3725,-0.3792,-0.3928,-0.4061,-0.4164,-0.4233,-0.4464,-0.4661,-0.4897,-0.51,-0.5292,-0.5413,-0.5552,-0.5693,-0.5897,-0.5975,-0.6067,-0.6263,-0.6472,-0.6753,-0.7061,-0.7296,-0.7603,-0.8144,-0.8518,-0.8675,-0.8827,-0.8975,-0.9155,-0.942,-0.9685,-0.9992,-1.018,-1.0255,-1.0218,-1.0137,-1.0175,0.4794,0.4794,0.4794,0.4561,0.4125,0.4059,0.3928,0.3732,0.3496,0.3025,0.2421,0.2153,0.1918,0.1748,0.1479,0.1378,0.1345,0.1344,0.1344,0.1277,0.1176,0.1008,0.084,0.0672,0.0504,0.037,0.0302,0.0202,-0.0067,-0.0067,-0.0337,-0.0706,-0.1009,-0.1413,-0.1916,-0.2319,-0.2552,-0.2654,-0.2787,-0.2922,-0.3058,-0.3058,-0.2993,-0.296,-0.2857,-0.2656,-0.2487,-0.2321,-0.222,-0.2119,-0.2018,-0.1918,-0.1918,-0.1884,-0.1884,-0.2017,-0.2185,-0.2386,-0.2619,-0.3121,-0.3591,-0.3658,-0.3591,-0.3491,-0.336,-0.3159,-0.3056,-0.2989,-0.3023,-0.3058,-0.3058,-0.3257,-0.3355,-0.3288,-0.3288,-0.3288,-0.3357,-0.3357,-0.3458,-0.3558,-0.3694,-0.383,-0.3961,-0.4064,-0.4295,-0.4495,-0.4694,-0.4861,-0.497,-0.5055,-0.5044,-0.5155,-0.5303,-0.5354,-0.5427,-0.5758,-0.6044,-0.6135,-0.6405,-0.656,-0.6868,-0.7399,-0.7706,-0.771,-0.794,-0.8356,-0.8585,-0.8737,-0.916,-0.962,-0.9771,-0.996,-0.996,-0.9916,-0.9954,0.4827,0.4794,0.4827,0.4797,0.4731,0.4625,0.4428,0.4167,0.3825,0.3391,0.2889,0.2455,0.2221,0.2119,0.1849,0.1747,0.1747,0.1849,0.1883,0.1883,0.1849,0.1748,0.1547,0.1378,0.1244,0.1109,0.1041,0.084,0.0504,0.0504,0.0202,-0.0168,-0.0438,-0.0808,-0.1344,-0.1918,-0.2255,-0.2389,-0.2586,-0.2653,-0.2653,-0.2688,-0.2622,-0.249,-0.2388,-0.222,-0.2017,-0.1849,-0.1748,-0.1614,-0.1412,-0.1345,-0.1312,-0.1244,-0.1244,-0.1345,-0.1513,-0.1715,-0.195,-0.2721,-0.3058,-0.3159,-0.3092,-0.3025,-0.2956,-0.2822,-0.2688,-0.2621,-0.2654,-0.2686,-0.272,-0.2753,-0.2787,-0.282,-0.282,-0.2889,-0.2922,-0.2989,-0.3092,-0.3291,-0.3462,-0.3598,-0.3727,-0.3892,-0.4125,-0.4325,-0.4525,-0.4625,-0.4628,-0.4606,-0.459,-0.4666,-0.4792,-0.4942,-0.5067,-0.5357,-0.5568,-0.5661,-0.5752,-0.594,-0.6183,-0.661,-0.6774,-0.6804,-0.7088,-0.7548,-0.7783,-0.8016,-0.8475,-0.8932,-0.9392,-0.9582,-0.962,-0.9695,-0.9733,0.5292,0.5196,0.5196,0.5196,0.5163,0.4864,0.4564,0.4231,0.3696,0.3293,0.3092,0.2723,0.252,0.2453,0.242,0.2318,0.2351,0.2351,0.2418,0.2418,0.242,0.2285,0.2153,0.2018,0.1918,0.1816,0.1715,0.1512,0.1244,0.1109,0.0807,0.0471,0.0,-0.0471,-0.1076,-0.158,-0.1849,-0.1884,-0.2051,-0.2185,-0.2185,-0.2252,-0.2253,-0.2052,-0.1918,-0.1748,-0.1513,-0.1345,-0.121,-0.1076,-0.0908,-0.0775,-0.0775,-0.0707,-0.0707,-0.0808,-0.0942,-0.1176,-0.1344,-0.1781,-0.2185,-0.2421,-0.2624,-0.2589,-0.2555,-0.2455,-0.2321,-0.2218,-0.2185,-0.2183,-0.2151,-0.2321,-0.2353,-0.2388,-0.2421,-0.2488,-0.2523,-0.2591,-0.2691,-0.3025,-0.3228,-0.3496,-0.3661,-0.3625,-0.3825,-0.3859,-0.3992,-0.4092,-0.4125,-0.4108,-0.4092,-0.4168,-0.4313,-0.4486,-0.4702,-0.4947,-0.5126,-0.5188,-0.5298,-0.5393,-0.5647,-0.5872,-0.6048,-0.6155,-0.6447,-0.6742,-0.7092,-0.7442,-0.7787,-0.8246,-0.8665,-0.9203,-0.9435,-0.9473,-0.9473,0.5653,0.5594,0.5594,0.5561,0.5491,0.5093,0.4694,0.4233,0.373,0.3426,0.336,0.3123,0.2989,0.2956,0.2889,0.2889,0.2889,0.2956,0.2889,0.2889,0.2956,0.2788,0.269,0.2591,0.2488,0.2388,0.2253,0.2084,0.1849,0.1681,0.1311,0.0841,0.037,-0.0135,-0.0673,-0.111,-0.1445,-0.1512,-0.1613,-0.1681,-0.1681,-0.1681,-0.1681,-0.1513,-0.1379,-0.1211,-0.1043,-0.0841,-0.0673,-0.0606,-0.0472,-0.0304,-0.027,-0.0202,-0.0169,-0.0202,-0.0404,-0.0605,-0.0807,-0.0942,-0.1346,-0.1715,-0.1985,-0.2119,-0.2119,-0.2018,-0.1883,-0.1782,-0.1715,-0.1648,-0.1648,-0.1817,-0.1782,-0.1816,-0.1817,-0.1884,-0.1985,-0.2018,-0.2322,-0.2656,-0.3056,-0.3324,-0.3493,-0.346,-0.3458,-0.3426,-0.3393,-0.3491,-0.3565,-0.3594,-0.3628,-0.3757,-0.3915,-0.415,-0.4318,-0.447,-0.4624,-0.4736,-0.4834,-0.4923,-0.4924,-0.511,-0.5327,-0.5552,-0.5819,-0.6079,-0.6475,-0.6865,-0.7173,-0.7518,-0.7902,-0.8441,-0.9094,-0.9208,-0.917,0.5925,0.5925,0.5925,0.5925,0.5822,0.5355,0.4861,0.4334,0.4097,0.3928,0.3789,0.3629,0.3527,0.346,0.3326,0.3259,0.3259,0.3429,0.336,0.3295,0.3328,0.3192,0.3058,0.2958,0.2855,0.2755,0.2653,0.252,0.2423,0.2119,0.1681,0.1176,0.0672,0.0235,-0.0202,-0.064,-0.0975,-0.1076,-0.1144,-0.1177,-0.111,-0.1076,-0.1009,-0.0874,-0.074,-0.0639,-0.0505,-0.0404,-0.0337,-0.0236,-0.0067,0.0101,0.0236,0.0405,0.0472,0.0405,0.0135,-0.0067,-0.027,-0.0404,-0.0539,-0.0875,-0.1244,-0.1445,-0.158,-0.158,-0.1445,-0.1345,-0.1244,-0.1144,-0.111,-0.1109,-0.1076,-0.1076,-0.1076,-0.1211,-0.1344,-0.158,-0.1918,-0.2285,-0.2755,-0.3023,-0.3123,-0.3123,-0.3025,-0.2924,-0.2857,-0.2755,-0.2872,-0.3103,-0.3176,-0.3426,-0.3606,-0.3854,-0.3999,-0.4073,-0.4198,-0.4338,-0.44,-0.4438,-0.4403,-0.4428,-0.467,-0.4927,-0.5142,-0.5458,-0.5854,-0.6209,-0.6556,-0.6865,-0.7134,-0.7787,-0.8403,-0.8703,-0.8775,0.6383,0.6251,0.6255,0.6255,0.6189,0.5818,0.5355,0.4858,0.4558,0.4395,0.4359,0.4159,0.4092,0.4059,0.4023,0.3892,0.3828,0.3797,0.3761,0.3694,0.3596,0.3464,0.3362,0.3228,0.3125,0.3058,0.2956,0.2889,0.2757,0.2488,0.2119,0.1648,0.1109,0.0672,0.0269,-0.0135,-0.0404,-0.064,-0.0707,-0.0674,-0.0573,-0.0539,-0.0438,-0.0303,-0.0168,-0.0067,0.0,0.0101,0.0169,0.027,0.0337,0.0405,0.0438,0.0472,0.0472,0.0472,0.0405,0.0337,0.0236,0.0135,0.0034,-0.0034,-0.0336,-0.0773,-0.1008,-0.1076,-0.0974,-0.0875,-0.074,-0.0606,-0.0505,-0.0437,-0.0403,-0.0403,-0.0437,-0.0605,-0.0807,-0.1076,-0.1446,-0.1983,-0.2453,-0.2688,-0.2788,-0.269,-0.2589,-0.2456,-0.2323,-0.2189,-0.2172,-0.2388,-0.2673,-0.2873,-0.3036,-0.3226,-0.3522,-0.3632,-0.3774,-0.3921,-0.3946,-0.4025,-0.4101,-0.4127,-0.4164,-0.4368,-0.47,-0.4961,-0.5196,-0.5547,-0.5899,-0.6054,-0.636,-0.7053,-0.7668,-0.797,-0.8275,0.6966,0.6843,0.6839,0.6745,0.6585,0.6383,0.602,0.5587,0.5123,0.4927,0.4894,0.4791,0.4722,0.4725,0.4725,0.4658,0.4456,0.4425,0.4325,0.3997,0.3863,0.3763,0.3629,0.3496,0.346,0.3393,0.3293,0.3192,0.306,0.2758,0.2388,0.1985,0.1513,0.1076,0.0672,0.0337,0.0101,-0.0101,-0.0236,-0.0236,-0.0169,-0.0067,0.0034,0.0168,0.0337,0.0371,0.0405,0.0506,0.054,0.0607,0.0641,0.0708,0.0775,0.0876,0.0943,0.0977,0.0876,0.0841,0.0808,0.0707,0.064,0.0572,0.0504,0.0235,-0.0101,-0.0269,-0.0336,-0.0337,-0.0168,-0.0034,0.0101,0.0168,0.0235,0.0302,0.0101,-0.0067,-0.0337,-0.0605,-0.111,-0.1681,-0.2051,-0.2321,-0.2388,-0.2253,-0.2119,-0.1985,-0.179,-0.1563,-0.154,-0.1703,-0.1969,-0.2245,-0.2398,-0.2548,-0.287,-0.3167,-0.3278,-0.3418,-0.3541,-0.3632,-0.3756,-0.3786,-0.3768,-0.402,-0.4319,-0.4556,-0.4745,-0.4955,-0.5204,-0.5398,-0.5628,-0.6167,-0.6745,-0.7169,-0.751,0.7554,0.7587,0.7587,0.7368,0.7007,0.7007,0.6778,0.6416,0.5885,0.5561,0.5524,0.5491,0.5458,0.5458,0.5458,0.5326,0.5156,0.509,0.4827,0.4367,0.4298,0.4164,0.3928,0.3828,0.3725,0.3694,0.3627,0.3496,0.3429,0.3127,0.269,0.2253,0.1849,0.1479,0.1176,0.0808,0.0539,0.0371,0.0135,0.0067,0.0236,0.0337,0.0404,0.0539,0.0573,0.0573,0.0573,0.0607,0.064,0.0775,0.0876,0.101,0.1212,0.1379,0.1481,0.1514,0.1379,0.1379,0.1345,0.1312,0.1211,0.1176,0.1176,0.1076,0.084,0.0403,0.0269,0.0269,0.0438,0.0539,0.0639,0.0706,0.0773,0.0807,0.0673,0.0471,0.0235,-0.0168,-0.074,-0.1244,-0.158,-0.1816,-0.1883,-0.1748,-0.1547,-0.1445,-0.1214,-0.0919,-0.0856,-0.0936,-0.1229,-0.1524,-0.1734,-0.1898,-0.2329,-0.2585,-0.275,-0.287,-0.3074,-0.3267,-0.3434,-0.3427,-0.3391,-0.3655,-0.3999,-0.4136,-0.4332,-0.4497,-0.4663,-0.4854,-0.5049,-0.5318,-0.5738,-0.6294,-0.6811,0.8144,0.8252,0.8252,0.8052,0.7759,0.7759,0.7563,0.7232,0.7101,0.6675,0.6251,0.6189,0.6156,0.6185,0.6185,0.602,0.5756,0.569,0.5359,0.4994,0.4794,0.4595,0.4228,0.4128,0.3995,0.3825,0.3727,0.3727,0.3627,0.336,0.3092,0.2891,0.2386,0.195,0.1715,0.1312,0.1043,0.0841,0.0706,0.0573,0.0674,0.0708,0.0741,0.0875,0.0942,0.0908,0.0942,0.0942,0.1043,0.1144,0.1178,0.1312,0.1513,0.158,0.1681,0.1782,0.1816,0.1849,0.1916,0.1883,0.1816,0.1782,0.1782,0.1782,0.158,0.1109,0.0908,0.0941,0.1009,0.111,0.1177,0.1278,0.1312,0.1278,0.1211,0.1009,0.0807,0.0235,-0.037,-0.0739,-0.1076,-0.121,-0.1277,-0.121,-0.0974,-0.074,-0.0438,-0.0203,-0.0068,-0.0102,-0.0453,-0.0741,-0.1043,-0.1299,-0.1692,-0.2049,-0.2229,-0.2517,-0.2764,-0.296,-0.3125,-0.3183,-0.3211,-0.3397,-0.3604,-0.3737,-0.3837,-0.4006,-0.4168,-0.4282,-0.4527,-0.4772,-0.4958,-0.5398,-0.602,0.863,0.8738,0.8732,0.8571,0.8382,0.8349,0.822,0.7987,0.7954,0.7722,0.7302,0.7036,0.6905,0.6909,0.6876,0.6679,0.642,0.6354,0.5954,0.5557,0.5326,0.5093,0.4827,0.4558,0.4525,0.4359,0.4095,0.3997,0.3892,0.3658,0.3426,0.3295,0.279,0.2455,0.222,0.1883,0.1546,0.1311,0.1277,0.1244,0.1111,0.1011,0.0943,0.1043,0.1109,0.1143,0.121,0.121,0.1277,0.1479,0.1614,0.1783,0.1983,0.2084,0.2151,0.2252,0.2285,0.2285,0.2386,0.242,0.2386,0.2354,0.2319,0.2319,0.2456,0.2018,0.1814,0.1816,0.1681,0.1716,0.1783,0.185,0.1884,0.185,0.1648,0.1412,0.1008,0.0504,0.0101,-0.0135,-0.0404,-0.0538,-0.0638,-0.0773,-0.0504,-0.0168,0.0135,0.0337,0.0505,0.064,0.0309,0.0035,-0.0283,-0.0635,-0.1,-0.1401,-0.1738,-0.2062,-0.2421,-0.2622,-0.2758,-0.2958,-0.3101,-0.3163,-0.32,-0.3214,-0.3342,-0.3542,-0.361,-0.3707,-0.3949,-0.4223,-0.441,-0.463,-0.5199,0.9081,0.9145,0.9145,0.9055,0.8926,0.8899,0.877,0.8608,0.8576,0.8582,0.8479,0.7982,0.7749,0.7657,0.7624,0.7335,0.7143,0.7077,0.6646,0.6185,0.602,0.5752,0.5488,0.5289,0.5123,0.4924,0.4628,0.4395,0.4228,0.4025,0.3828,0.3563,0.3295,0.2989,0.2755,0.2487,0.2218,0.2017,0.1916,0.1849,0.1548,0.1212,0.1144,0.1144,0.1176,0.121,0.1311,0.1412,0.1479,0.1748,0.2051,0.2253,0.2421,0.2555,0.2688,0.2755,0.2822,0.2822,0.2887,0.2921,0.2855,0.2822,0.2822,0.2924,0.3029,0.2995,0.2757,0.2688,0.252,0.2354,0.2421,0.2423,0.2456,0.2356,0.2085,0.1816,0.1344,0.0907,0.0673,0.0438,0.0303,0.0168,0.0034,-0.0101,0.0067,0.037,0.0572,0.074,0.0908,0.1009,0.0917,0.0683,0.0446,0.0068,-0.0371,-0.081,-0.1252,-0.1654,-0.1983,-0.2218,-0.2456,-0.2708,-0.2852,-0.2813,-0.285,-0.29,-0.2974,-0.3124,-0.3182,-0.3209,-0.3426,-0.3706,-0.3942,-0.4189,-0.4566,0.9556,0.9792,0.9824,0.9734,0.9574,0.9434,0.9268,0.9145,0.899,0.899,0.9081,0.9017,0.8759,0.8322,0.8317,0.809,0.7824,0.7727,0.7302,0.6811,0.6679,0.6379,0.6083,0.5885,0.5591,0.5359,0.5126,0.4957,0.4758,0.4558,0.4325,0.4133,0.3825,0.3558,0.3362,0.3094,0.2855,0.2688,0.252,0.2421,0.2085,0.1783,0.1513,0.1512,0.1512,0.1513,0.158,0.1715,0.1884,0.2119,0.242,0.2688,0.2855,0.2991,0.3092,0.3224,0.3259,0.336,0.3391,0.3424,0.3424,0.3393,0.3424,0.3556,0.3661,0.3763,0.3658,0.3787,0.3553,0.3157,0.309,0.3058,0.3058,0.2824,0.2589,0.2321,0.1951,0.1614,0.1345,0.1144,0.0941,0.0873,0.0806,0.0739,0.0806,0.1043,0.1144,0.1311,0.1445,0.1479,0.1512,0.1312,0.1076,0.0539,0.0034,-0.0404,-0.0843,-0.1244,-0.1648,-0.2017,-0.2353,-0.2587,-0.2658,-0.2559,-0.26,-0.2703,-0.2771,-0.2664,-0.2836,-0.2902,-0.3011,-0.321,-0.3433,-0.3688,-0.405]}]]